GFSSGP_sfc_dewp_000.txt.gz
Dewpoint
42 30 31 26 16 21 25 27 36 43 44 49 48 44 47 52 46 45 58 59 57 62 65 66 71 71 71 71 71 71 71 70 70 69 68 68 69 68 68 67 65 64 64 64 64 66 64 67 67
31 23 23 21 14 15 22 30 34 42 48 49 49 49 46 48 55 57 57 58 58 61 65 65 71 71 72 71 71 70 70 70 70 70 69 69 68 69 68 66 65 65 65 66 66 66 67 66 65
29 21 16 16 17 17 22 29 43 46 48 48 47 50 50 49 53 53 56 55 57 60 63 66 70 71 72 72 71 71 71 70 70 70 70 69 68 67 66 65 65 65 65 66 66 67 67 66 66
22 16 22 16 18 27 29 37 41 44 48 48 42 44 53 57 54 56 57 55 54 56 60 67 70 70 70 70 71 71 71 71 70 69 69 68 68 65 64 65 64 64 65 65 65 64 63 64 65
14 16 20 19 23 31 35 40 43 40 43 46 46 45 49 58 61 58 58 56 54 54 58 59 69 70 69 69 69 69 69 70 69 69 68 68 67 66 65 64 64 64 63 64 64 65 65 65 65
12 22 18 18 26 33 37 42 39 35 40 44 43 42 48 59 58 58 58 56 53 54 59 59 68 69 69 69 68 68 68 68 67 68 68 67 66 65 64 63 62 62 61 61 61 62 62 63 63
15 17 15 18 23 25 28 32 31 32 34 36 42 37 52 58 57 58 56 54 54 54 56 59 59 63 67 67 67 68 68 67 66 66 66 66 66 64 63 63 61 61 61 61 60 60 60 60 61
13 12 12 13 12 10 10 14 23 25 30 45 43 33 44 53 59 59 56 54 54 57 55 59 61 59 61 61 65 66 66 67 66 65 64 64 64 63 61 59 61 60 60 60 59 59 58 59 59
13 6 5 5 5 8 10 9 14 27 33 36 38 38 46 56 60 59 57 55 55 56 60 61 59 60 61 59 61 63 65 66 66 64 64 62 60 60 58 61 60 60 59 59 58 57 55 54 57
10 7 6 6 8 7 8 8 13 19 21 23 32 44 53 58 59 58 56 53 56 57 59 60 62 61 61 56 61 61 60 61 63 62 63 61 62 62 60 61 61 60 59 57 57 58 58 56 50
15 9 11 10 12 9 9 9 11 10 12 16 21 37 53 57 57 56 54 52 54 57 58 60 63 63 61 58 59 57 57 59 61 64 64 62 62 61 60 59 57 59 60 56 56 56 54 56 54
14 16 13 13 15 13 11 15 14 13 10 19 25 36 49 53 53 51 50 50 52 55 58 60 62 64 64 58 57 58 57 58 58 59 64 63 60 60 60 57 55 56 56 58 56 55 57 53 50
17 19 21 19 18 19 20 17 19 18 17 19 28 42 46 47 48 50 49 48 50 55 59 62 63 63 62 63 60 61 60 57 59 59 59 62 59 59 57 55 53 53 54 54 55 54 50 44 42
25 22 22 22 23 23 22 21 21 19 20 20 25 35 43 45 45 47 49 50 53 56 58 63 63 63 58 59 61 59 59 56 56 55 55 60 60 57 53 51 48 48 49 51 52 51 47 43 42
24 21 22 23 22 23 20 18 16 19 19 20 20 25 38 43 43 44 46 50 51 53 56 61 61 57 57 56 56 55 52 52 51 50 54 55 56 54 54 49 49 48 50 53 54 53 49 45 41
18 19 15 22 23 25 23 16 19 25 26 21 25 23 33 42 45 44 46 49 52 53 56 58 55 52 53 54 54 52 51 53 50 51 51 54 54 55 54 50 49 50 51 50 50 50 47 45 41
17 9 12 19 24 25 23 18 23 23 24 26 25 26 23 37 45 49 52 53 50 51 55 56 54 45 48 52 52 54 54 51 46 48 46 49 51 52 52 49 49 52 50 49 49 48 48 46 41
12 11 14 14 20 23 23 22 21 24 24 27 27 26 23 32 44 44 42 41 45 50 54 54 48 47 51 52 52 47 46 46 45 43 42 45 44 48 49 48 51 52 50 49 48 50 48 45 44
18 16 16 17 24 29 26 20 21 25 25 27 27 25 28 35 37 37 39 41 46 53 53 51 49 48 46 44 41 40 41 41 42 42 45 46 45 46 47 46 47 49 48 49 51 50 50 48 46
20 18 17 22 25 29 24 21 22 25 27 29 28 28 30 32 33 36 39 43 44 48 48 45 42 42 41 40 42 43 44 42 43 42 44 43 43 42 41 45 45 45 45 47 49 50 48 48 48
22 20 24 23 25 27 25 23 22 24 26 28 29 30 30 31 32 35 39 42 44 44 44 42 42 42 43 42 40 41 41 40 39 39 38 39 41 40 41 43 44 45 44 42 45 46 47 44 46
22 26 29 27 25 19 27 17 25 22 24 26 28 31 32 32 32 33 35 39 42 45 45 43 42 41 41 42 41 43 39 38 39 40 39 38 39 39 39 41 43 44 43 43 42 39 43 44 42
28 32 30 29 26 26 25 18 25 25 24 26 28 31 33 34 36 37 39 39 41 43 44 44 42 41 41 40 42 40 41 40 40 39 39 37 36 38 38 41 43 43 42 43 45 45 45 44 43
32 30 30 30 30 27 26 23 25 26 26 27 30 34 36 36 35 38 39 39 40 44 45 44 41 40 42 41 41 43 44 42 39 37 35 34 35 36 38 39 42 43 42 42 41 43 43 43 43
29 26 27 29 28 26 26 23 28 28 29 31 33 34 37 39 38 37 38 38 41 42 43 40 40 38 41 42 39 40 40 40 39 37 35 36 35 35 38 41 41 39 40 40 41 42 42 40 39
30 30 30 20 25 23 25 20 26 30 31 32 33 35 36 37 38 38 37 39 40 42 42 42 39 38 38 38 37 37 40 40 37 37 37 36 36 38 41 40 39 40 40 40 41 40 38 39 39
29 30 31 30 30 31 24 26 30 30 30 31 32 34 35 36 36 36 37 39 41 41 41 43 41 38 39 40 41 41 42 40 39 38 37 36 39 37 39 40 38 35 36 36 37 37 38 37 37
31 32 29 30 28 16 14 18 19 30 30 30 31 34 35 36 36 37 37 38 40 41 43 44 43 41 41 41 40 39 39 38 37 37 37 37 38 39 37 35 34 34 36 38 38 37 36 36 35
32 32 29 28 30 24 22 18 30 28 29 30 32 32 35 37 37 37 38 39 40 42 42 42 42 42 41 39 39 38 38 36 36 36 37 37 38 35 34 34 34 35 37 38 38 36 34 30 30
32 30 28 27 20 29 30 24 29 30 30 32 33 33 35 38 37 37 38 39 40 41 41 41 41 39 38 36 36 36 36 35 35 36 37 37 37 37 36 37 38 37 37 34 32 31 29 27 25

GFSSGP_sfc_dewp_003.txt.gz
Dewpoint
48 35 27 27 18 16 25 29 33 35 38 43 40 40 40 45 47 47 53 54 59 61 63 66 72 72 71 70 70 70 71 71 70 70 69 69 68 68 68 67 66 66 66 66 66 67 67 68 68
31 22 25 21 16 14 22 26 30 36 39 39 37 37 38 44 52 53 51 53 59 61 63 66 72 72 71 71 71 70 70 70 70 70 70 69 69 68 67 67 66 66 66 67 67 67 68 67 66
39 25 19 12 12 13 22 25 35 37 38 37 36 38 41 44 48 48 51 54 58 60 63 69 72 72 72 72 71 71 71 71 71 70 69 70 68 66 66 66 65 65 66 66 65 65 66 67 66
24 16 17 14 18 22 23 32 34 35 39 38 33 38 48 47 47 51 51 52 54 56 62 70 71 71 72 72 72 72 72 71 70 70 69 69 67 66 66 65 65 65 64 64 65 65 65 64 65
19 16 14 15 21 25 30 32 33 33 34 35 33 34 46 54 53 51 50 49 50 51 56 65 70 71 70 70 70 70 70 70 69 69 69 68 67 66 65 64 64 63 62 62 62 63 64 65 66
14 18 16 17 21 28 32 34 32 29 32 31 32 36 46 54 51 52 50 48 47 52 55 58 68 70 69 69 69 69 68 68 68 68 67 67 66 65 64 63 63 62 62 61 60 60 61 61 62
17 20 17 21 24 27 30 30 26 23 28 27 30 33 46 48 52 52 49 46 45 50 54 55 58 64 68 67 68 68 68 67 67 66 66 66 65 64 63 62 61 61 60 60 59 59 59 59 60
14 17 15 17 18 19 19 20 24 24 27 29 29 29 41 49 52 50 48 46 46 50 53 57 57 57 59 62 66 67 67 67 66 65 64 64 64 63 61 61 61 60 59 59 58 58 57 57 59
11 10 9 9 8 8 8 7 10 15 25 26 27 38 39 52 53 50 48 45 48 50 55 56 56 57 57 55 61 64 65 66 66 64 64 63 60 59 59 61 61 60 59 59 57 56 55 56 58
9 8 6 4 6 5 5 6 7 15 21 17 27 35 45 52 52 49 45 45 49 53 54 58 59 59 57 50 56 56 55 58 59 59 60 57 59 59 57 61 62 62 61 59 59 58 59 59 50
10 9 7 5 4 1 0 2 4 7 10 15 22 30 43 48 49 49 47 45 48 52 52 57 63 61 57 54 54 53 53 55 57 60 61 60 59 59 57 57 57 59 61 55 56 56 54 55 52
10 9 8 6 7 7 4 7 8 7 7 15 19 33 42 46 47 47 47 45 47 50 50 57 61 61 59 55 53 54 53 54 54 56 59 59 56 57 57 54 53 53 51 54 54 52 54 53 48
10 10 10 9 11 12 15 12 16 9 12 15 23 35 41 45 46 46 46 45 46 47 50 55 60 58 55 58 57 58 58 55 56 56 55 56 55 57 54 52 49 48 48 49 50 50 49 47 44
16 17 18 19 19 20 19 17 18 18 16 16 20 29 37 40 42 44 45 45 45 46 51 55 58 57 53 54 57 58 56 54 53 52 52 55 55 56 52 50 48 47 47 47 48 49 49 46 43
19 17 19 20 21 20 20 17 16 18 19 18 18 22 31 37 38 41 45 45 47 47 49 56 57 55 52 53 54 52 48 49 49 49 51 51 52 53 54 50 49 48 50 52 50 50 49 48 45
17 18 16 19 20 22 21 17 17 20 21 20 22 21 25 34 36 38 42 44 45 46 48 53 54 51 50 52 50 49 48 50 48 48 49 51 52 52 53 50 50 50 52 49 49 47 47 46 45
17 13 12 19 20 20 19 17 21 23 22 21 21 23 23 28 36 39 40 42 45 46 48 52 55 46 48 52 49 50 50 48 44 45 44 47 48 49 50 49 51 56 51 53 52 50 51 48 47
12 7 8 10 19 16 15 16 19 23 23 24 22 23 23 25 34 40 45 44 45 45 47 50 52 45 47 49 50 45 45 45 44 43 44 46 46 49 50 49 53 53 51 51 52 55 51 52 50
14 12 12 15 20 20 21 16 21 24 24 25 24 25 25 26 37 44 42 43 46 48 48 47 49 50 46 44 43 41 41 42 43 43 45 47 46 46 47 45 47 49 48 51 53 52 52 51 51
19 17 16 18 21 21 21 18 21 24 26 26 26 28 31 35 37 39 41 43 44 49 49 49 47 43 41 41 42 44 45 43 43 43 44 43 44 44 43 45 44 46 44 50 51 52 49 49 50
21 21 24 22 22 20 21 20 21 23 25 26 28 29 30 32 34 38 41 45 47 47 46 43 43 43 43 42 40 41 41 41 39 40 41 42 45 41 41 42 43 47 46 44 49 48 48 44 46
23 25 26 23 22 18 21 15 23 22 24 27 30 31 31 31 32 34 38 41 45 46 45 43 42 41 41 44 41 43 40 39 41 42 41 40 41 38 36 38 41 45 45 46 45 40 47 46 43
28 30 27 26 24 22 20 14 25 22 23 26 30 31 33 35 36 37 38 40 42 45 46 45 43 41 42 41 43 42 43 44 44 43 43 43 40 38 36 38 41 44 41 44 46 46 43 41 42
30 29 28 29 26 25 24 19 23 23 26 28 31 33 35 34 37 37 39 40 42 45 45 45 41 39 42 42 43 45 46 45 40 39 37 36 37 36 38 36 40 43 43 41 42 42 43 43 41
27 27 28 29 27 26 24 18 27 27 28 30 32 33 36 38 37 37 37 38 41 42 43 41 40 39 41 43 43 40 39 40 40 38 37 37 35 35 38 40 41 38 39 39 41 44 42 41 40
27 28 31 20 24 22 23 16 25 29 30 31 31 33 35 37 39 38 38 40 40 41 42 44 42 40 39 41 40 41 40 39 38 38 37 36 36 37 38 39 39 39 38 41 42 39 40 39 39
28 28 28 30 31 30 19 22 28 29 29 30 31 32 34 35 36 37 37 39 41 41 42 44 43 41 41 42 42 41 40 39 38 38 38 36 38 34 37 38 37 39 39 40 40 39 39 40 39
31 29 30 29 27 15 13 12 22 29 27 29 29 31 33 35 36 36 37 39 40 41 42 43 43 42 42 41 40 37 38 38 37 36 36 36 36 36 37 39 38 38 39 38 38 37 38 37 37
30 30 27 22 26 23 20 19 28 26 28 29 31 31 32 34 36 37 38 39 39 40 41 42 42 42 39 38 37 38 37 36 35 35 36 37 38 37 39 39 39 38 38 38 38 36 35 35 36
30 29 26 28 21 27 28 25 28 28 28 30 31 32 34 36 36 36 37 38 39 40 40 41 41 39 38 37 36 34 34 34 34 35 36 36 37 38 38 38 37 38 39 37 36 35 31 30 29

GFSSGP_sfc_dewp_006.txt.gz
Dewpoint
50 35 34 28 24 21 16 25 34 36 37 38 40 37 41 48 49 48 53 57 62 64 66 68 71 72 72 71 72 72 72 72 71 70 70 70 69 68 67 67 67 67 67 67 67 68 68 68 67
34 34 27 27 21 17 19 30 30 36 36 32 34 34 41 45 50 50 52 58 62 65 66 68 71 71 72 72 71 71 71 70 71 70 70 69 68 67 66 66 67 66 66 66 66 66 67 68 67
44 32 23 23 18 14 23 27 35 33 31 33 34 44 42 44 47 49 54 58 64 66 68 71 71 71 72 72 72 71 71 71 71 70 70 68 67 66 66 66 66 65 65 65 65 65 65 65 66
31 23 19 16 13 21 24 33 33 32 36 35 36 41 44 47 48 49 53 56 57 65 68 70 70 71 72 72 72 72 71 70 70 70 69 68 66 66 65 65 64 63 63 63 64 64 65 66 66
31 25 16 17 21 25 30 31 31 31 32 32 32 42 47 50 47 48 49 51 53 62 66 68 69 70 70 70 70 70 70 69 69 68 68 67 66 65 64 63 63 62 62 61 61 61 61 62 63
21 21 16 14 23 26 28 29 30 34 33 29 32 41 48 48 47 47 46 47 50 57 63 64 69 69 69 69 69 69 68 68 68 68 66 66 65 64 63 63 62 62 61 61 60 59 59 60 61
24 21 16 22 23 27 31 32 26 24 27 27 31 41 47 47 49 47 45 45 51 52 54 59 63 66 67 67 68 68 68 67 67 66 66 66 65 64 63 62 61 60 60 59 59 58 58 58 59
19 17 14 23 21 23 24 23 23 23 27 26 27 35 41 49 49 47 45 44 48 54 54 58 61 60 62 65 66 67 67 67 66 65 65 65 65 64 63 63 61 60 58 58 57 57 56 57 57
14 12 17 14 16 14 14 11 14 14 26 25 33 34 45 49 48 47 45 44 47 52 58 59 57 60 63 62 64 66 66 66 66 65 64 63 63 62 61 61 62 60 59 59 58 57 56 58 59
11 13 9 6 7 7 5 7 6 11 21 21 30 42 50 50 49 47 44 44 48 54 55 61 61 61 58 52 62 63 61 63 63 62 63 62 61 61 59 61 62 62 62 61 61 60 60 60 56
11 10 7 4 7 3 3 3 4 11 14 17 26 34 48 50 49 46 43 43 48 53 55 61 64 62 60 59 59 59 59 60 63 63 61 61 61 61 61 63 62 63 62 61 60 59 59 56 55
9 7 5 4 4 2 -0 3 3 8 12 18 25 31 46 46 46 46 44 44 48 51 52 61 62 62 61 60 58 59 59 59 59 60 61 61 60 61 59 58 55 55 55 54 55 55 55 55 52
10 7 6 5 7 11 13 9 13 9 13 18 24 36 43 45 45 46 47 47 48 50 53 58 61 62 63 60 63 62 60 61 60 60 60 60 59 59 58 56 55 54 53 53 53 52 52 52 49
11 9 8 10 15 15 13 13 18 15 13 14 23 34 40 44 45 46 47 47 49 49 54 60 60 61 59 60 60 62 60 60 60 57 56 56 58 58 57 55 55 54 53 53 52 51 52 52 50
14 13 15 17 18 17 16 16 14 18 17 15 17 25 34 40 41 44 46 48 48 47 52 62 64 60 58 58 59 59 54 51 54 54 55 54 55 56 56 56 55 55 55 54 53 53 52 52 51
13 16 15 17 18 21 19 17 16 18 18 18 19 20 25 35 38 42 46 46 45 49 56 64 61 58 57 59 55 54 56 55 54 55 55 55 54 54 55 55 56 56 57 54 54 53 51 51 50
17 12 17 19 17 19 18 19 17 20 21 21 22 23 23 27 36 40 43 47 49 47 54 59 58 56 55 56 54 54 55 54 53 52 53 53 52 55 54 54 55 56 55 54 54 52 52 51 51
15 11 9 9 17 13 12 15 19 21 21 24 22 23 26 26 31 39 41 44 48 49 51 55 57 54 55 54 54 51 51 51 52 52 51 52 51 52 53 52 54 56 53 52 52 53 51 51 50
13 11 9 16 19 17 16 18 20 23 23 28 31 28 29 32 42 46 49 50 50 53 50 53 56 56 52 52 50 49 49 49 50 49 50 49 51 50 50 49 50 49 49 49 49 48 47 47 49
16 15 15 17 19 17 18 16 21 23 26 27 27 30 35 39 39 42 47 50 54 53 53 54 52 49 47 47 49 49 49 48 48 49 49 50 50 48 44 48 47 47 47 47 48 49 46 45 46
20 19 25 22 22 20 18 19 21 24 26 27 30 32 33 36 39 41 45 49 51 50 50 45 45 46 48 49 45 46 47 45 45 45 46 47 47 45 46 46 47 48 46 45 45 46 45 43 43
21 27 25 22 20 17 18 14 21 23 25 28 31 33 33 33 35 38 43 46 48 49 50 46 46 45 46 47 47 46 44 45 47 49 47 47 46 46 43 43 46 46 46 45 45 42 45 44 41
26 28 25 24 23 21 19 19 24 23 24 28 31 33 35 38 39 39 41 44 45 49 50 49 46 44 45 46 46 46 48 48 48 48 47 45 45 44 43 42 43 45 44 44 45 43 44 44 43
29 29 27 27 26 30 20 21 27 24 26 29 32 34 35 37 39 39 41 44 45 49 49 48 45 43 45 46 48 47 46 45 44 44 43 41 41 41 42 42 43 44 44 42 44 44 43 41 41
26 27 32 35 33 31 25 20 28 28 29 30 32 34 37 40 41 40 40 41 43 46 47 47 46 44 45 45 44 45 45 45 44 43 41 40 39 40 40 42 42 42 42 43 43 43 43 41 40
27 26 36 25 29 28 20 15 26 30 30 31 32 33 36 38 41 40 40 42 43 45 46 47 45 43 43 46 45 46 45 42 42 42 40 40 40 40 40 41 41 41 41 41 41 40 41 40 41
29 28 25 31 34 32 19 26 28 29 29 30 30 31 34 36 38 38 40 42 43 44 46 47 45 44 45 47 46 44 43 43 42 41 41 40 41 38 39 41 40 40 40 40 39 39 38 38 39
28 26 29 35 29 20 16 20 27 28 29 29 29 30 32 36 38 40 39 42 43 43 46 48 46 43 43 41 41 40 40 41 41 41 40 40 39 38 39 39 39 39 39 38 38 38 38 37 38
28 28 27 23 30 27 24 20 25 27 28 29 31 31 34 36 37 39 39 41 41 43 43 45 43 41 41 40 40 41 41 40 39 39 39 38 38 37 36 36 37 37 37 39 39 38 36 34 33
27 27 25 34 26 34 32 23 29 31 33 32 32 34 36 38 39 39 40 40 40 41 42 41 42 42 41 40 40 38 38 37 36 38 36 36 36 36 35 35 34 35 34 36 36 36 35 33 32

GFSSGP_sfc_dewp_009.txt.gz
Dewpoint
49 37 37 30 24 23 19 19 37 37 37 41 46 48 49 50 48 49 64 64 66 68 69 70 71 71 72 72 72 72 71 71 71 71 71 70 68 68 67 67 67 67 66 66 66 67 68 68 67
42 36 33 26 22 19 22 34 33 32 36 43 44 46 47 47 51 57 62 64 66 67 69 69 70 71 71 71 71 71 71 71 71 71 70 69 67 66 66 66 67 66 65 65 65 65 65 65 66
44 37 22 23 21 18 25 32 31 32 34 37 43 46 46 47 51 55 65 67 68 69 70 70 70 71 71 71 71 71 71 71 71 70 67 67 66 66 66 65 65 64 64 64 64 65 65 66 66
32 28 20 15 14 18 32 32 33 35 36 42 43 46 46 48 50 57 66 67 68 69 70 70 70 71 71 71 71 71 70 70 70 69 68 67 66 65 65 64 63 62 61 61 61 61 62 63 64
38 27 17 16 18 34 31 31 32 35 34 45 48 45 45 48 51 52 64 65 67 67 68 69 69 70 70 71 70 70 69 69 69 68 68 66 65 64 64 63 62 61 61 60 60 59 60 61 62
24 20 16 14 19 29 29 30 35 37 36 44 48 46 45 46 46 48 55 63 65 66 67 68 69 68 69 69 68 68 68 68 68 68 67 66 65 64 63 63 61 61 60 59 59 58 58 59 60
23 22 18 16 21 30 29 28 24 36 31 40 48 45 46 45 45 45 50 58 62 64 64 65 66 67 67 66 66 67 67 67 67 66 66 66 65 65 64 63 61 60 59 57 57 57 58 58 59
22 20 15 16 24 25 24 22 18 26 23 28 45 44 46 46 46 43 48 51 53 57 60 62 63 64 64 65 66 66 66 65 65 65 65 65 64 64 64 63 62 61 59 57 56 57 58 58 59
19 11 11 11 17 18 17 12 8 21 24 38 41 46 48 47 45 43 43 46 51 55 57 59 59 61 62 64 65 66 66 65 64 64 64 63 63 62 62 62 62 61 61 60 60 59 59 59 59
12 12 10 7 12 10 9 7 7 16 22 38 47 47 47 47 45 43 43 45 49 53 57 56 57 61 59 58 63 63 63 64 64 63 63 62 62 62 60 61 62 61 61 61 62 61 60 60 57
12 10 6 5 5 6 5 5 10 19 19 30 47 47 48 48 46 45 43 46 50 53 57 59 56 55 55 58 61 61 61 62 62 61 58 59 58 60 59 60 61 60 62 60 60 60 59 58 56
9 7 5 6 7 3 2 2 5 8 13 27 46 50 49 49 48 45 43 45 50 53 59 58 58 55 56 53 56 55 57 56 61 59 59 58 58 55 55 54 55 57 59 59 57 55 55 54 54
8 8 6 7 9 14 12 7 10 11 18 25 40 48 49 48 48 47 44 45 50 53 59 58 57 57 56 57 58 57 57 56 55 57 56 55 56 54 54 54 52 51 51 50 50 49 50 51 50
13 8 6 7 15 16 17 15 16 14 14 24 36 45 45 45 45 45 46 45 48 52 59 61 59 58 57 57 58 57 56 54 57 54 54 55 54 54 54 52 53 51 52 52 50 49 49 50 51
15 10 11 14 17 16 18 16 15 16 12 16 27 40 42 45 45 46 46 46 47 57 60 61 64 62 57 56 55 56 47 49 51 52 51 52 52 51 52 52 53 54 53 53 51 52 52 50 50
14 17 14 17 19 19 16 14 16 17 17 15 20 22 32 43 44 45 45 45 49 60 60 59 60 61 59 55 52 51 51 51 51 52 53 52 52 53 52 51 51 53 54 53 52 52 51 51 50
19 13 18 17 19 22 19 18 17 18 18 18 18 18 20 29 39 44 45 44 52 58 55 56 57 61 57 51 51 52 48 48 49 49 50 49 52 51 50 50 50 51 52 52 52 52 52 51 50
16 16 19 18 16 13 12 17 21 21 22 22 21 22 22 33 40 44 46 48 50 55 59 56 59 57 53 53 51 50 48 48 48 48 47 49 48 48 47 46 47 48 48 48 47 47 47 47 47
18 16 18 18 19 20 18 19 23 27 27 26 29 40 41 42 45 49 50 52 54 55 55 55 55 53 52 48 48 47 45 45 46 45 48 46 45 45 45 45 47 46 46 45 45 46 44 44 46
19 23 25 21 21 16 17 20 24 27 28 30 32 37 39 42 45 46 46 45 48 51 52 50 49 49 47 46 47 46 46 46 45 45 46 47 47 45 44 44 45 45 44 43 42 43 44 43 44
25 26 25 24 22 20 21 21 24 27 29 30 32 33 37 41 43 45 45 45 45 47 44 43 43 43 45 46 42 42 42 43 44 46 46 46 47 44 41 42 43 44 44 42 41 43 42 42 42
27 30 28 25 23 19 18 19 24 27 30 32 33 35 36 39 43 43 44 44 45 45 43 43 42 41 43 44 43 42 43 44 46 47 46 46 43 41 41 41 41 43 42 41 43 43 43 43 41
30 33 29 28 25 24 22 23 24 28 29 30 32 35 36 38 40 42 43 44 45 44 43 43 42 41 43 42 42 45 44 44 45 45 41 40 40 40 40 41 41 41 43 41 43 42 41 41 40
29 31 31 29 28 26 27 27 29 31 30 32 34 36 36 37 39 41 43 44 43 43 42 41 41 41 42 43 45 43 40 42 42 40 39 39 39 40 39 40 40 41 41 42 42 42 40 40 41
29 31 28 27 27 26 31 28 30 31 32 34 36 37 38 39 39 39 41 42 43 43 43 43 43 42 43 43 43 42 41 40 40 39 38 38 40 38 40 40 40 40 40 41 40 40 40 40 39
30 30 27 25 25 25 19 25 28 30 32 33 34 36 38 38 38 38 38 39 40 41 41 43 42 42 43 45 42 41 41 41 41 39 38 39 39 39 39 40 40 40 40 40 39 38 38 39 39
31 27 27 30 29 26 25 27 29 30 30 31 31 32 36 37 37 36 40 41 41 42 44 44 43 42 41 39 40 40 42 41 40 38 39 39 38 37 39 39 38 38 39 39 39 38 38 38 37
27 27 28 29 21 19 21 27 30 32 33 31 30 32 34 36 37 39 40 41 41 42 44 43 42 41 41 39 41 40 40 39 38 38 37 36 36 37 36 36 36 36 37 38 38 37 37 36 36
30 30 29 27 27 23 22 23 31 32 33 33 34 36 37 38 38 39 39 40 40 41 42 42 41 41 40 39 40 38 38 36 37 36 35 35 34 34 35 36 35 35 35 35 36 36 36 36 35
29 29 30 26 25 27 26 23 35 34 34 34 34 37 38 37 38 39 39 39 38 38 38 37 38 40 40 39 39 36 36 33 33 33 33 32 32 34 34 32 29 28 27 28 28 31 31 28 26

GFSSGP_sfc_dewp_012.txt.gz
Dewpoint
47 35 36 30 22 23 19 21 36 39 44 49 49 49 50 51 49 50 65 66 68 69 69 69 71 71 72 72 72 71 71 70 70 69 69 68 67 66 66 66 66 66 65 65 65 65 65 65 65
40 35 33 26 22 19 20 31 41 42 44 47 47 49 52 56 61 63 63 67 68 68 68 69 71 71 72 71 71 71 71 70 70 69 68 67 66 66 66 65 65 64 64 64 64 65 65 65 66
43 37 21 21 21 17 22 32 35 40 43 44 45 47 48 52 60 62 65 67 68 68 69 70 70 70 71 71 71 71 71 71 70 68 67 66 66 65 64 64 63 62 62 61 61 61 62 63 63
33 26 19 15 14 16 30 32 38 43 45 46 46 46 47 53 56 65 67 68 68 69 69 69 69 70 71 71 71 70 70 70 68 68 66 66 65 64 63 63 62 61 60 60 59 59 60 61 62
36 24 17 15 16 32 33 33 35 38 46 45 45 45 47 60 65 67 67 68 67 68 70 70 69 70 70 70 70 70 70 69 69 68 67 65 64 63 63 62 61 60 59 59 58 58 58 59 60
24 19 14 13 18 31 30 34 36 45 45 45 45 46 46 58 63 64 66 67 68 68 68 69 69 69 69 69 69 68 68 68 68 68 67 65 64 64 63 62 61 59 58 57 57 57 58 58 59
23 20 16 15 23 31 26 28 34 44 47 47 45 43 45 51 59 63 65 66 66 66 66 66 67 67 67 66 66 67 67 67 67 67 66 65 65 65 64 62 61 59 57 56 56 58 58 58 59
23 20 16 14 23 26 21 17 25 32 34 47 46 43 42 44 53 60 62 62 63 64 64 63 64 64 64 65 65 65 65 65 65 66 65 64 64 64 64 63 63 61 59 58 59 59 59 59 59
21 16 13 12 20 22 18 17 16 32 40 44 43 45 44 45 47 51 54 55 58 59 61 61 62 62 63 63 64 65 65 64 64 64 64 63 62 61 62 62 61 62 61 61 61 61 60 59 59
18 13 12 12 16 15 11 8 11 32 45 46 47 46 45 43 46 47 49 52 54 56 58 58 59 60 61 60 63 63 63 63 63 63 62 62 61 61 60 62 62 62 61 62 62 62 62 61 57
17 11 6 8 12 9 6 7 12 31 40 46 45 45 44 42 42 44 45 50 53 55 57 58 60 59 58 58 60 61 61 62 62 62 62 61 61 60 61 59 60 59 60 59 59 59 58 58 57
8 11 5 9 6 4 5 7 9 20 28 47 46 45 45 44 43 43 43 47 52 55 56 56 59 58 56 59 60 60 59 61 61 61 59 57 57 54 55 56 56 56 54 57 57 56 53 53 54
7 7 6 12 15 10 6 4 7 16 34 47 47 47 46 45 45 44 43 46 52 56 57 58 56 56 56 56 58 57 57 58 59 57 56 56 55 52 53 52 52 51 51 50 50 49 48 49 50
11 7 6 8 16 15 11 15 14 15 36 49 48 48 47 47 46 45 45 44 53 58 59 60 60 59 56 57 57 57 56 54 57 55 54 54 55 53 52 52 52 52 52 53 51 50 50 51 51
11 6 9 11 17 16 17 16 15 14 36 48 49 49 48 48 48 46 46 44 52 59 59 59 59 59 57 57 57 55 51 54 53 51 53 53 53 52 52 51 50 51 52 51 52 51 52 51 50
13 15 12 16 18 19 12 12 16 14 26 39 46 46 46 47 47 46 46 48 57 59 57 59 59 60 57 55 54 51 48 50 50 52 52 52 52 51 49 47 46 49 49 50 49 50 49 48 48
17 11 16 18 19 19 17 16 18 16 15 22 29 37 39 40 45 48 46 57 59 58 56 58 60 59 56 54 54 51 50 50 48 49 50 49 48 48 46 45 45 47 47 47 47 46 47 46 44
14 16 25 15 17 21 15 20 23 20 19 26 29 41 46 48 50 53 56 57 57 57 58 58 59 59 56 53 53 51 48 47 47 46 46 46 46 47 45 45 46 46 45 44 44 43 43 44 44
19 20 18 18 20 17 21 25 27 30 36 39 42 45 44 43 45 49 52 56 56 56 56 54 52 51 54 48 50 47 45 44 45 47 48 47 47 47 45 45 45 46 43 42 42 42 42 42 43
27 23 22 23 23 15 21 23 27 31 33 38 42 43 43 42 43 45 47 48 49 50 52 51 47 46 45 48 48 49 45 45 45 46 47 47 45 43 41 43 42 44 42 40 40 42 42 42 42
29 25 25 23 23 20 23 22 27 31 34 35 37 42 44 43 43 43 45 46 47 48 46 43 42 43 44 45 43 43 44 45 45 46 44 42 42 41 41 41 42 41 41 41 41 42 41 41 42
28 29 27 25 23 16 19 19 24 31 33 35 38 41 42 43 44 43 43 43 43 43 42 41 41 41 42 43 42 43 44 44 45 45 42 39 40 40 40 41 41 41 42 41 42 43 42 41 40
28 31 29 28 25 25 23 22 24 30 30 33 36 39 41 42 42 42 43 43 42 42 42 41 41 41 42 42 43 44 42 43 44 41 39 38 40 41 40 41 40 40 41 40 40 41 40 40 39
29 31 32 30 29 24 27 26 26 29 30 33 36 37 39 41 42 43 43 43 42 42 41 41 42 43 43 43 44 42 41 40 39 38 38 39 41 40 40 40 40 40 40 39 39 39 39 39 39
29 31 26 26 25 24 30 28 29 32 33 36 37 37 38 39 41 42 42 42 42 42 43 43 42 43 44 42 41 40 39 39 38 38 38 40 40 39 40 39 39 39 39 39 38 38 37 38 38
29 29 26 23 22 23 27 27 27 33 36 37 37 38 38 38 40 41 41 40 41 43 43 43 40 38 40 40 39 39 39 41 40 38 40 40 38 38 39 39 37 37 38 38 38 37 37 36 36
30 25 28 27 27 24 26 28 29 32 32 32 34 37 37 37 38 40 41 41 42 42 42 42 41 40 39 39 39 39 41 41 39 39 38 37 37 37 36 36 36 35 36 37 37 36 35 35 34
24 27 27 27 19 18 21 27 27 30 31 32 35 35 37 39 38 39 40 41 42 42 42 42 41 40 39 38 39 38 38 38 38 37 36 36 36 35 34 33 34 35 35 36 36 35 35 34 34
28 27 28 27 26 21 20 23 32 33 34 35 36 37 38 38 39 39 39 39 40 38 38 38 39 39 40 39 38 38 36 36 37 36 35 35 34 33 33 34 34 30 30 30 30 31 33 29 27
28 29 29 23 23 26 25 21 34 34 35 36 36 37 38 39 39 39 38 38 36 35 35 35 36 37 40 40 39 38 37 35 33 35 36 34 33 33 32 32 27 27 26 27 26 27 27 26 25

GFSSGP_sfc_dewp_015.txt.gz
Dewpoint
45 34 35 29 22 22 20 20 40 41 47 50 52 51 55 58 53 50 65 67 68 68 69 70 70 71 71 71 71 71 70 70 69 69 68 67 66 66 66 65 65 64 64 64 64 64 65 65 65
36 34 31 26 21 16 20 36 42 45 48 48 48 51 54 57 62 63 65 68 68 68 68 70 71 71 71 71 71 71 70 70 69 68 67 66 66 65 64 64 64 63 62 61 61 61 62 62 63
40 35 21 21 20 17 21 35 43 47 48 45 46 47 52 59 62 63 66 68 68 68 69 70 70 71 71 71 71 71 70 70 69 68 66 66 65 64 63 63 62 61 60 60 59 60 60 60 61
32 27 19 17 16 17 24 34 41 44 46 47 50 47 49 59 62 64 67 68 68 68 68 69 69 70 71 71 71 71 70 69 68 68 66 65 64 62 62 62 61 60 59 58 58 58 59 59 59
32 22 16 15 15 26 32 36 43 43 45 46 47 46 51 64 65 67 68 68 67 68 69 69 68 70 70 70 70 70 69 68 68 67 66 64 63 62 62 61 60 59 59 58 58 58 58 58 59
23 20 14 13 17 32 30 36 46 45 46 48 50 47 48 65 65 66 67 66 67 68 69 69 70 69 69 69 69 69 68 68 68 67 66 64 64 63 62 61 60 59 58 58 58 58 58 59 60
21 17 16 16 31 32 33 31 45 44 45 46 47 44 51 63 64 66 66 66 66 67 68 67 68 68 68 67 67 66 67 67 67 67 66 65 65 64 63 62 60 58 58 58 59 59 59 60 60
23 18 17 15 27 34 35 23 39 46 44 46 45 44 54 53 63 65 65 66 65 65 65 64 64 64 63 64 65 66 66 65 66 66 65 63 63 63 64 63 62 61 59 59 60 60 60 60 61
22 18 15 14 27 24 24 20 25 41 45 45 46 45 56 57 62 61 61 60 61 62 62 61 62 62 62 62 64 65 65 65 65 64 63 62 61 60 61 62 62 62 61 61 61 62 62 61 60
21 18 16 14 21 28 25 30 36 43 45 45 43 45 52 56 57 56 57 57 58 59 60 61 61 61 61 61 63 62 63 62 62 62 62 61 60 60 60 61 62 62 62 62 62 62 62 61 57
17 12 10 8 17 18 16 14 27 43 44 45 43 45 49 53 52 52 53 54 54 56 58 59 59 60 60 59 61 61 61 61 61 61 61 61 61 60 60 59 59 58 59 58 59 58 58 56 56
18 10 11 9 16 7 7 9 31 27 42 46 44 44 46 47 49 50 52 53 54 56 56 57 59 58 58 59 59 59 60 61 61 61 60 58 56 54 56 57 54 52 51 52 53 52 50 49 50
13 7 11 13 9 5 5 5 13 17 42 45 44 42 44 45 46 48 50 52 54 55 56 58 59 57 56 58 59 59 59 60 60 60 59 56 54 52 52 51 52 51 52 52 51 50 50 50 51
11 10 8 14 14 9 8 15 15 26 47 45 43 42 41 42 43 44 46 49 53 55 57 58 58 56 56 57 58 57 57 58 59 57 56 55 54 52 51 51 50 50 50 50 50 50 50 49 49
10 7 9 12 15 15 17 16 13 26 47 46 44 44 44 43 43 42 43 47 53 56 57 59 59 57 57 56 56 56 54 56 56 53 53 53 53 52 51 48 46 48 49 48 48 47 47 45 46
13 13 9 13 17 18 12 7 17 35 47 46 46 47 47 48 47 47 47 45 53 58 59 60 61 58 58 58 58 55 50 50 51 52 52 51 51 48 46 44 45 47 47 47 46 46 43 43 43
16 10 16 16 18 17 15 15 18 22 47 47 41 42 43 49 52 53 54 51 57 58 59 59 60 60 57 58 57 54 50 48 49 49 47 47 47 47 45 45 46 47 45 45 44 43 43 43 42
11 15 23 13 16 18 16 20 26 25 32 27 45 46 47 49 52 56 57 57 57 57 58 59 59 59 56 56 52 50 46 47 46 46 45 46 47 47 45 46 46 45 43 42 41 40 41 42 42
19 19 18 17 19 24 26 27 31 39 43 44 44 44 47 47 50 52 53 55 54 54 56 56 56 55 52 49 49 49 50 49 48 47 47 45 45 43 42 43 44 43 41 40 40 41 41 41 42
23 21 22 23 21 25 28 27 33 35 39 43 42 43 44 47 47 48 50 50 53 53 51 49 50 48 47 50 51 52 49 46 48 46 43 42 42 41 40 41 41 41 41 41 40 41 41 41 42
28 25 23 21 22 25 26 27 29 34 39 42 43 42 43 46 46 47 49 48 48 45 44 42 43 43 46 49 47 44 44 45 45 44 40 40 41 41 41 41 41 42 42 41 41 41 41 40 41
27 29 27 24 20 22 22 21 29 32 37 40 42 43 43 45 44 43 43 42 42 42 41 40 41 41 42 42 42 42 43 43 45 42 38 39 41 41 41 41 41 41 41 40 40 40 39 39 38
28 30 27 27 24 23 23 24 27 31 34 37 40 42 42 41 41 41 41 41 41 41 40 41 42 42 42 42 43 44 42 43 41 39 38 39 41 41 41 41 40 40 40 39 38 38 38 38 37
29 31 31 32 28 24 27 25 25 29 32 35 38 41 41 42 42 42 42 42 41 41 41 42 43 43 43 41 41 40 39 38 37 37 38 41 41 41 42 40 39 39 39 38 37 37 36 36 37
30 29 25 25 24 24 28 27 28 31 34 36 38 38 40 42 42 42 42 42 42 43 43 41 41 40 40 39 39 39 38 37 36 37 39 40 40 41 38 38 37 36 38 38 37 36 35 35 34
28 28 26 22 21 22 27 26 28 34 36 37 37 38 40 41 41 41 41 41 42 41 40 39 38 38 38 38 38 38 38 40 39 38 39 40 39 38 38 37 36 35 36 36 36 36 35 34 34
29 25 29 27 26 24 26 27 29 32 35 36 37 37 37 39 39 40 41 41 41 41 41 40 39 38 38 38 38 38 39 40 39 39 38 38 37 37 37 37 36 36 35 36 36 35 34 34 33
26 29 26 26 17 18 22 25 27 30 31 33 36 37 38 38 39 39 40 41 41 39 40 40 40 40 39 39 39 39 38 38 39 38 37 36 36 37 35 35 35 35 35 34 34 33 32 33 33
27 26 27 28 25 20 19 24 31 31 34 35 36 38 38 38 38 38 39 39 38 37 36 36 36 37 39 40 39 39 39 37 37 37 36 36 35 34 35 36 35 33 29 28 28 29 30 29 26
28 28 25 22 23 25 23 21 33 34 36 36 37 37 38 38 38 38 37 36 35 34 34 32 31 32 34 35 36 37 37 36 35 34 35 34 35 35 32 34 34 29 28 27 27 26 27 25 24

GFSSGP_sfc_dewp_018.txt.gz
Dewpoint
51 45 35 29 19 21 18 18 35 41 49 53 54 54 55 58 51 51 66 67 68 68 69 70 70 71 71 71 71 71 70 69 69 68 67 66 66 65 64 64 65 63 62 62 62 61 61 62 62
34 34 29 26 20 15 17 29 44 47 51 52 50 54 55 55 62 63 65 68 68 68 69 69 70 71 71 71 71 71 70 69 68 67 66 65 64 63 63 63 64 62 61 60 60 59 59 60 60
37 32 21 21 20 15 18 40 46 48 49 46 46 49 53 57 63 64 67 68 68 68 69 70 70 70 71 71 71 70 70 70 68 67 66 64 63 62 62 62 63 61 59 58 58 58 58 58 59
31 27 19 17 16 17 21 41 46 46 46 48 49 44 52 61 62 65 68 68 67 67 68 68 69 70 71 71 70 70 70 69 68 67 65 64 62 61 61 61 61 59 59 59 59 59 58 58 60
28 21 15 14 14 19 24 42 45 44 45 47 47 46 54 64 66 67 67 67 67 68 68 68 68 70 70 71 70 70 69 68 68 67 66 64 62 61 61 61 60 59 59 59 60 59 59 60 61
22 19 14 14 15 32 32 42 46 45 46 48 51 50 54 65 66 66 67 67 67 67 68 68 69 69 69 70 70 69 68 68 68 67 66 64 63 63 61 61 60 59 60 60 60 60 60 61 62
21 16 13 15 28 34 30 44 44 44 46 47 48 48 59 63 66 66 66 66 67 68 67 68 68 68 68 68 68 67 67 67 67 66 66 65 64 63 63 62 61 60 61 61 61 61 62 61 61
23 18 25 17 31 34 38 30 46 46 46 46 48 54 56 61 65 65 65 65 66 66 66 66 66 66 65 65 66 66 66 66 66 66 65 63 63 63 62 62 62 61 61 61 61 62 62 62 62
22 18 15 20 35 37 38 31 34 44 44 46 45 52 59 64 64 63 63 64 64 64 64 62 63 62 62 62 64 65 65 65 65 64 63 62 60 60 60 62 62 62 62 62 62 63 62 62 61
22 18 16 16 27 37 37 30 40 44 45 43 47 56 61 63 62 60 60 60 61 62 61 61 60 60 60 62 62 61 62 62 62 62 61 61 60 59 59 61 62 62 62 61 61 61 61 58 56
20 18 14 11 28 35 28 31 39 44 43 44 49 55 59 60 60 60 60 60 60 60 60 60 60 60 59 60 61 60 61 61 61 61 60 60 60 60 60 59 58 57 56 54 56 54 54 51 52
17 16 12 8 16 19 19 21 41 39 39 46 53 55 56 57 55 56 55 55 55 56 58 59 59 59 59 59 60 59 60 60 60 61 61 59 58 56 57 55 51 51 51 51 50 50 50 50 51
18 13 12 11 12 9 10 15 35 28 45 44 51 52 53 54 52 51 50 51 53 54 56 57 58 57 57 58 58 58 59 60 60 60 59 57 53 53 52 51 51 51 51 50 50 50 49 48 48
18 9 10 14 8 6 6 10 14 27 45 43 48 50 51 51 50 49 51 52 54 55 56 58 59 57 56 57 58 58 58 58 59 58 55 55 53 52 52 49 48 48 49 48 49 48 47 45 45
10 5 9 11 14 14 16 13 13 39 44 43 43 46 44 44 44 46 47 49 53 55 58 59 59 58 57 57 57 57 58 57 55 53 54 53 53 50 47 45 45 47 47 46 46 46 43 42 43
12 13 8 10 16 17 9 4 16 45 44 44 43 45 46 47 48 47 47 49 56 58 59 60 59 58 57 57 58 58 54 52 55 52 52 49 48 46 45 45 46 47 46 45 44 44 41 41 42
15 9 14 15 18 16 12 17 27 30 46 44 43 43 47 50 54 55 56 51 58 59 59 59 58 58 59 59 58 55 51 49 47 47 49 48 48 47 46 46 46 46 43 42 41 41 41 41 40
9 12 21 13 22 27 25 30 36 39 36 43 45 46 49 51 53 55 56 57 58 58 59 59 58 59 58 56 53 49 48 48 50 52 47 45 45 46 45 45 44 42 40 41 40 40 41 41 41
17 16 16 17 20 28 32 34 36 43 43 43 45 46 48 49 51 54 55 55 55 56 58 58 57 57 56 49 49 48 49 51 48 44 44 44 42 41 41 42 41 42 41 41 41 41 41 41 42
22 20 20 22 25 31 33 31 37 39 42 43 44 46 48 48 49 51 52 52 53 54 55 55 55 51 48 49 50 51 49 46 46 43 41 41 41 41 40 41 41 41 40 40 41 41 40 41 41
27 22 23 21 27 29 29 28 33 37 42 42 42 44 46 48 48 50 51 49 47 45 46 45 45 46 47 48 45 44 44 45 44 41 38 40 41 41 41 40 40 40 39 40 41 40 39 38 39
24 28 25 23 25 23 25 25 30 35 39 41 42 43 45 46 45 44 42 41 41 41 40 41 41 41 42 43 43 43 43 42 42 39 38 39 40 40 39 40 40 41 40 39 39 39 38 37 36
27 30 27 25 24 22 23 26 28 36 38 40 41 43 43 43 42 41 39 40 41 41 41 42 43 43 43 43 43 42 42 41 39 38 38 39 40 41 41 41 39 39 39 38 37 36 35 36 35
29 30 30 31 27 23 27 25 26 32 35 38 40 42 41 42 42 41 41 41 41 42 43 43 41 40 40 39 40 39 37 37 36 36 37 40 40 40 41 39 38 38 38 37 36 35 34 34 34
31 28 25 25 24 24 28 26 25 31 35 39 39 40 41 42 42 41 41 42 43 42 41 40 39 38 38 38 38 38 37 37 36 36 37 37 39 40 39 37 36 35 37 36 36 35 34 33 33
26 28 26 21 23 23 27 25 27 32 35 38 39 40 41 41 42 41 41 41 40 39 38 38 38 37 38 38 37 37 37 39 39 38 38 39 39 39 38 37 35 34 35 35 36 36 35 34 34
28 25 28 27 26 24 26 27 32 35 36 37 37 38 40 39 40 41 41 40 40 40 40 39 38 38 38 38 39 38 38 38 39 39 38 38 38 37 37 36 34 35 35 35 36 35 35 34 34
27 29 24 25 17 16 22 25 27 32 35 35 36 37 38 39 39 40 40 40 39 39 40 41 40 39 39 39 39 39 39 38 37 37 37 36 36 36 35 35 35 35 35 35 34 34 32 32 32
27 25 27 27 24 19 17 23 29 33 35 34 36 38 38 38 39 39 39 38 37 36 36 36 34 36 35 34 36 35 35 35 35 35 35 35 35 35 34 34 34 35 33 30 29 28 28 30 27
28 26 24 21 20 24 22 19 28 33 34 36 37 38 38 38 37 37 37 36 35 34 33 30 30 28 29 31 31 30 33 34 36 34 34 35 34 35 35 33 35 35 32 28 26 27 27 26 24

GFSSGP_sfc_dewp_021.txt.gz
Dewpoint
53 40 36 32 20 23 19 17 38 47 51 54 55 53 53 56 54 51 66 66 68 69 69 67 69 71 70 70 71 71 70 69 68 67 66 66 65 64 64 65 65 63 61 60 60 59 59 58 59
32 33 31 28 19 15 19 35 46 50 52 53 52 52 51 50 61 64 64 68 68 69 69 67 69 70 70 71 71 70 69 69 68 66 66 64 64 64 63 63 64 63 59 58 58 57 58 59 60
35 31 25 24 22 14 21 44 47 49 49 46 49 53 57 53 62 64 67 68 68 68 68 67 69 70 71 71 71 70 70 69 68 67 65 63 62 62 62 63 63 62 59 59 58 58 59 60 60
31 29 21 20 15 19 24 45 47 48 51 51 49 46 57 62 62 65 68 67 67 68 68 69 69 70 71 71 71 70 69 69 68 67 65 62 61 61 61 63 63 61 60 60 59 60 60 61 62
28 23 19 17 15 18 24 45 46 45 46 48 49 44 56 64 66 67 67 67 66 67 68 68 68 69 70 71 71 70 69 68 68 67 66 64 61 60 61 63 63 62 61 61 60 61 61 62 63
27 22 18 16 25 33 39 45 46 44 44 46 48 52 58 66 66 66 67 66 66 67 68 69 69 69 70 70 70 68 68 68 68 67 66 63 63 63 61 61 62 61 61 61 61 61 62 62 62
24 19 16 17 33 34 37 47 45 44 46 48 50 53 60 64 66 66 66 66 67 67 68 68 68 69 69 68 68 67 67 67 67 66 66 65 64 63 63 62 61 61 63 62 62 62 63 62 62
24 21 18 23 33 35 32 39 45 44 46 48 52 53 56 62 66 66 66 66 66 67 66 66 68 67 68 68 67 66 66 66 66 65 64 63 63 63 62 61 62 62 62 62 62 63 63 62 61
23 21 16 25 35 37 38 35 40 46 46 46 46 56 59 64 64 64 64 64 65 66 66 66 66 67 67 66 66 65 66 65 65 64 63 62 60 60 60 61 62 62 63 62 62 62 62 59 58
24 22 18 23 39 42 42 33 38 45 45 43 55 61 62 63 62 62 62 62 62 64 64 65 66 65 64 62 64 63 62 62 62 62 62 61 62 61 60 61 61 61 60 59 60 60 58 55 52
23 22 19 16 37 42 38 35 43 44 44 44 51 58 60 61 61 61 60 61 62 62 64 64 64 63 62 61 62 61 61 61 62 62 62 63 62 63 62 61 57 57 55 54 54 53 52 54 52
19 20 13 10 26 35 31 32 43 43 41 45 55 61 60 60 60 60 60 61 61 62 62 61 61 62 61 60 60 60 60 61 62 63 64 64 62 61 61 55 55 55 53 54 53 53 54 51 50
21 19 13 12 15 25 25 31 42 39 44 50 58 60 60 59 59 59 58 58 58 57 58 59 60 60 60 60 60 60 61 61 63 62 62 61 58 57 55 55 52 52 51 51 50 50 48 47 46
22 12 10 12 10 12 19 16 28 31 45 53 56 57 58 56 55 54 52 52 54 55 57 60 59 59 59 59 60 60 62 62 62 61 60 59 57 57 54 51 50 50 49 49 48 47 44 43 43
12 10 12 14 12 15 16 14 17 40 44 50 54 52 53 52 51 50 51 52 54 55 58 60 60 60 59 59 61 60 57 56 57 59 58 57 56 53 51 50 50 49 49 48 47 45 44 41 40
12 16 11 13 16 17 11 9 30 37 43 44 48 47 48 48 48 50 48 52 56 58 60 60 59 59 60 60 60 60 58 57 56 56 55 53 51 51 51 49 49 48 46 44 45 42 40 39 39
19 10 14 14 26 17 18 22 36 39 44 44 44 46 48 51 54 56 55 55 59 59 59 60 61 61 61 60 59 57 53 50 49 51 51 52 50 50 49 47 47 46 43 43 41 41 41 39 38
14 13 14 15 23 30 32 35 39 41 44 45 46 48 50 52 53 54 56 58 59 60 60 60 61 59 59 57 55 51 51 51 51 52 49 46 45 47 45 44 45 43 42 42 42 42 41 40 40
15 15 15 19 26 35 37 38 40 42 44 45 46 48 50 51 54 56 57 59 59 59 59 60 59 59 56 51 50 49 52 53 47 43 44 44 43 44 44 42 43 43 42 43 43 42 41 36 40
22 21 23 26 30 34 35 38 41 42 42 44 46 48 50 51 53 54 56 57 58 59 59 58 57 57 51 49 51 53 51 48 43 42 43 43 44 43 42 43 43 43 41 43 42 42 37 37 40
26 24 24 26 30 32 32 32 38 42 44 45 47 49 51 52 53 53 53 55 55 55 57 55 50 50 50 51 49 47 48 47 44 41 40 41 42 41 42 43 43 42 42 41 41 40 38 32 35
27 27 28 28 26 23 26 18 34 41 43 45 47 50 51 52 53 50 46 46 48 47 49 48 47 46 45 46 47 47 45 45 42 41 41 40 42 42 41 42 43 43 41 40 39 36 36 33 28
28 28 27 24 24 24 25 24 30 40 41 44 45 46 48 48 47 43 42 42 42 44 45 46 45 45 45 46 46 44 43 42 41 41 41 42 42 42 42 42 42 41 39 39 38 37 35 34 30
33 31 31 31 28 23 26 23 26 37 40 42 42 44 44 44 42 41 42 42 42 45 46 45 42 41 42 42 43 43 42 41 40 40 41 41 42 42 43 42 41 40 38 38 37 37 35 33 32
31 29 27 27 28 24 28 26 26 32 38 42 41 42 43 43 42 41 41 42 43 44 43 42 41 40 42 42 41 41 41 41 41 41 40 41 41 42 42 42 40 36 37 37 37 36 35 33 31
28 29 31 21 25 26 26 26 26 33 35 42 41 42 42 42 42 42 43 43 42 42 42 41 40 40 40 41 41 41 42 41 41 42 41 41 41 41 42 42 38 37 37 37 37 37 36 36 35
28 26 30 28 26 26 25 27 30 35 34 39 40 41 41 42 42 42 43 42 41 41 42 42 40 39 40 41 42 42 42 41 39 39 40 39 40 38 40 41 38 37 37 36 36 35 36 36 34
29 30 26 27 21 16 19 25 25 33 34 38 39 40 41 42 41 42 41 42 41 41 43 43 41 40 42 41 40 38 37 36 36 38 35 36 37 37 39 40 38 37 37 36 35 34 34 33 32
28 27 28 27 25 19 18 17 31 33 35 37 39 40 41 41 41 41 41 39 39 40 40 40 38 38 35 32 34 33 33 35 37 35 35 34 36 35 37 37 37 36 35 35 36 33 30 29 30
28 27 28 26 21 25 24 19 27 34 36 38 38 39 40 41 41 40 39 38 37 37 36 33 35 30 29 30 30 30 33 33 34 34 34 35 35 36 36 36 36 35 35 37 33 29 28 28 28

GFSSGP_sfc_dewp_024.txt.gz
Dewpoint
54 35 26 30 23 22 21 19 43 49 51 51 51 52 52 54 53 52 64 64 66 66 65 65 70 70 70 70 71 71 69 68 67 67 66 65 65 65 64 65 65 62 60 59 58 58 59 61 61
23 23 30 26 19 16 19 26 33 49 50 49 49 48 48 48 58 62 63 66 67 67 65 64 70 70 70 71 71 70 69 68 67 66 64 64 64 63 63 63 64 62 59 57 58 60 60 61 61
27 30 24 19 14 15 21 40 45 46 45 44 47 51 50 49 58 60 66 67 68 67 65 65 69 70 70 70 70 70 70 68 68 66 63 63 63 62 62 63 63 62 60 59 59 59 59 60 61
23 26 22 15 15 16 24 43 45 44 46 44 45 51 54 56 56 56 66 67 67 67 65 68 69 70 70 70 70 70 69 68 68 66 64 62 61 61 61 64 64 61 60 60 61 61 61 61 62
26 23 16 15 15 16 22 43 46 42 43 41 42 45 53 61 59 61 66 68 67 68 66 67 68 68 69 70 70 70 69 68 68 66 65 63 61 61 62 63 64 62 61 61 61 61 62 62 62
18 20 13 13 21 29 24 42 43 41 39 41 44 46 58 64 63 66 67 67 68 66 66 66 68 68 68 70 69 69 68 68 68 66 65 62 62 62 62 62 62 62 62 62 61 62 62 62 62
21 12 13 20 30 34 36 44 42 39 41 43 48 47 60 63 65 66 66 66 66 66 66 67 65 67 68 68 67 67 67 67 67 66 65 64 64 64 63 62 61 61 62 62 62 63 63 62 61
24 17 15 26 31 36 43 43 43 44 43 50 51 47 58 62 65 65 65 65 65 65 66 67 67 66 66 67 67 66 66 66 66 65 64 63 63 63 62 63 63 62 62 62 63 62 62 60 60
25 14 15 29 32 35 37 38 42 45 46 48 49 53 58 63 65 64 64 65 66 66 66 66 64 65 65 63 65 65 66 65 65 63 63 61 58 59 58 62 63 62 61 61 61 61 59 59 58
23 16 16 28 35 37 36 35 35 43 45 46 54 59 63 64 63 62 63 63 64 64 65 65 66 66 64 60 61 59 57 58 60 60 61 60 62 61 59 61 61 58 57 59 58 57 57 54 46
23 19 17 21 35 34 30 32 32 36 43 44 49 60 61 62 61 62 62 62 62 63 64 65 65 65 61 58 56 55 56 60 61 63 63 63 63 64 61 57 54 57 55 53 53 52 49 51 49
22 20 18 26 36 33 31 33 36 36 39 43 50 59 61 61 62 61 61 61 62 62 60 61 61 61 61 55 54 57 59 61 63 63 65 65 62 63 62 54 55 57 54 54 52 50 52 50 48
22 19 17 15 30 38 35 33 36 39 43 47 56 58 59 59 55 54 55 55 56 56 57 58 59 59 59 59 59 61 62 62 63 63 64 62 59 61 57 57 54 53 52 50 50 49 47 46 45
22 19 13 12 22 33 32 32 34 36 46 52 55 56 56 55 53 52 52 52 52 52 56 58 56 58 58 60 62 61 61 59 60 62 62 62 60 59 57 55 52 52 50 49 48 47 44 43 43
16 12 12 11 17 24 28 23 24 40 46 50 52 53 53 52 51 49 48 48 50 51 57 59 59 59 60 61 61 61 60 60 58 60 61 60 59 57 55 53 52 51 50 49 46 46 43 42 40
11 13 9 15 15 16 22 16 30 42 43 47 50 51 52 50 49 49 49 47 49 53 58 61 60 60 62 62 61 60 61 60 58 59 58 55 53 55 53 51 50 49 47 45 43 43 41 40 40
14 6 10 15 22 16 13 15 32 42 42 44 48 48 49 50 51 52 50 50 53 56 60 61 62 61 60 60 61 61 57 53 52 54 54 53 52 51 49 48 48 47 44 44 42 42 43 42 41
9 11 7 10 23 15 18 28 32 43 42 42 44 46 48 49 51 54 54 55 56 59 61 61 61 61 61 61 60 53 50 51 51 50 48 47 47 48 47 46 46 44 43 44 45 45 43 41 39
12 12 10 18 29 30 30 30 33 41 43 44 44 46 48 49 53 55 57 58 58 60 60 61 61 62 60 59 55 51 51 50 47 46 46 46 45 45 45 43 45 46 43 45 44 40 39 36 38
16 14 19 24 30 30 31 33 35 38 42 44 45 46 48 51 53 55 57 58 58 59 60 60 60 60 57 53 51 50 50 49 46 45 46 44 44 43 43 44 42 43 39 42 43 42 38 35 35
23 21 24 20 28 31 30 31 35 39 42 44 46 47 49 51 53 54 56 58 59 58 59 58 57 57 51 51 51 51 50 47 44 44 44 43 44 42 42 42 41 40 39 36 41 40 38 34 31
22 25 25 27 24 18 27 15 33 38 41 43 46 48 52 53 53 53 55 56 58 58 58 53 51 49 50 49 47 47 45 45 45 44 43 42 43 40 38 40 42 42 40 40 39 34 36 34 29
26 29 27 25 24 24 24 18 31 39 39 43 48 50 51 50 49 48 49 51 53 55 52 50 48 47 47 48 48 46 44 43 41 41 40 41 41 41 41 41 43 43 42 40 38 36 35 32 31
30 29 28 27 26 22 20 22 16 33 35 43 46 48 49 47 44 43 44 45 46 48 49 48 46 45 45 44 44 43 41 36 34 36 36 34 35 37 39 40 43 43 41 39 37 38 36 35 32
30 27 24 26 25 21 27 23 18 27 36 42 44 45 46 44 43 42 42 41 43 46 47 46 44 43 43 41 38 38 37 37 34 35 34 36 32 32 34 37 37 38 40 38 39 37 37 35 31
27 26 24 13 18 19 27 21 23 31 35 41 43 43 43 43 42 41 41 42 44 45 45 44 43 39 37 36 37 39 36 35 34 34 31 30 31 30 32 34 36 39 39 39 37 36 36 36 34
28 25 30 28 29 28 20 25 28 33 33 40 41 41 41 41 42 41 43 44 44 44 45 44 38 35 36 42 44 40 37 32 30 31 32 29 30 27 31 34 35 37 38 39 37 35 36 36 35
29 29 26 29 23 15 15 19 17 32 33 38 40 40 40 40 41 42 43 44 44 44 43 41 40 38 40 40 37 32 30 30 31 31 29 29 30 31 31 32 33 35 36 37 36 34 35 34 32
28 27 26 25 26 16 13 9 28 29 33 36 40 40 40 41 42 43 43 44 43 42 40 41 39 39 37 33 31 31 29 30 30 29 29 30 32 32 31 32 33 33 33 34 35 36 35 32 29
29 26 24 22 20 28 27 14 26 34 34 35 38 39 41 42 42 43 43 42 40 39 39 38 37 35 32 30 29 27 28 27 28 28 30 32 32 32 32 33 33 32 33 37 38 34 29 28 28

GFSSGP_sfc_dewp_027.txt.gz
Dewpoint
53 44 28 21 22 22 20 20 31 48 47 50 50 51 52 53 54 53 63 64 64 62 62 66 70 70 70 70 70 70 69 68 67 66 65 66 65 64 64 64 64 61 59 59 60 61 61 61 62
37 19 15 23 19 17 15 18 24 47 47 49 48 48 47 51 59 62 62 65 65 63 62 64 70 70 71 71 70 70 68 67 66 65 65 64 64 63 62 62 64 62 59 60 59 59 60 61 61
27 17 18 18 18 15 18 36 44 47 47 45 46 46 46 49 55 61 64 66 66 64 63 65 69 70 70 70 70 70 69 68 67 66 64 63 62 61 61 63 64 63 60 60 59 58 59 59 60
18 14 22 19 17 17 22 43 44 42 43 43 46 46 48 53 53 59 64 66 66 66 67 68 69 69 69 69 70 69 69 68 67 65 64 61 61 62 62 64 64 62 61 61 61 61 60 61 61
19 19 16 17 17 17 17 42 42 40 42 39 40 43 44 50 53 58 65 66 66 67 68 67 67 68 68 70 69 69 69 68 67 66 64 62 62 62 63 64 63 62 61 61 61 62 62 62 62
12 16 14 14 16 20 19 36 36 42 40 39 41 46 53 55 56 55 61 65 67 67 67 65 67 67 68 70 69 68 68 68 67 66 64 61 62 63 62 62 62 62 62 62 62 63 62 62 62
16 11 10 12 21 28 25 42 40 39 39 42 40 42 55 59 59 62 65 64 65 66 67 66 66 67 68 67 67 67 67 67 67 66 65 64 64 64 63 62 62 62 62 62 62 62 61 60 61
14 15 9 13 26 36 33 40 42 41 43 43 48 49 47 58 62 64 66 65 64 66 66 66 66 66 66 65 66 66 66 66 66 65 64 64 63 63 62 64 63 62 62 62 62 62 60 59 60
20 15 8 13 34 35 39 38 41 41 39 43 48 50 54 61 63 63 64 66 65 66 65 66 63 63 64 63 64 65 66 66 64 62 62 60 57 59 59 62 62 61 59 60 60 58 58 60 58
15 11 10 20 37 41 35 36 39 38 45 47 50 55 59 62 61 60 61 62 63 64 64 64 66 65 63 57 58 57 57 58 58 58 59 58 59 60 57 59 61 57 57 59 58 57 58 57 48
16 16 18 19 34 37 31 32 35 39 41 46 49 58 61 60 59 60 60 61 62 63 64 63 64 62 59 57 54 52 54 58 60 61 62 62 60 60 58 56 54 55 56 53 53 51 49 51 50
18 20 19 18 33 29 25 31 32 44 46 47 51 60 60 60 59 59 59 61 62 62 61 60 59 60 58 53 50 53 56 59 62 64 63 62 59 62 58 53 52 54 51 53 51 49 51 50 49
19 19 20 25 29 27 32 28 31 38 36 44 55 58 57 56 53 54 54 55 58 54 55 56 58 57 55 55 56 59 60 64 62 62 63 62 60 62 57 57 53 53 51 51 51 50 49 48 47
20 20 15 16 27 34 30 29 31 38 39 46 51 50 50 47 47 48 49 50 52 53 54 56 54 56 56 58 61 62 60 59 59 59 60 63 61 62 59 58 56 55 52 52 50 49 47 47 46
19 16 12 14 25 29 32 20 25 38 40 46 46 47 46 44 44 46 47 49 49 51 54 56 57 58 60 60 59 58 58 58 58 59 61 61 59 59 57 56 56 54 51 53 51 50 46 43 42
17 18 16 16 21 27 30 17 29 36 37 39 42 44 44 46 44 43 43 46 47 52 55 58 57 60 61 60 60 60 60 60 58 58 58 55 55 56 56 54 51 51 49 46 45 44 43 43 43
17 12 13 14 16 19 24 19 31 37 34 40 43 45 46 46 45 46 45 44 47 53 58 59 60 61 60 61 61 61 60 57 54 54 55 53 52 53 51 49 49 49 46 46 46 46 46 44 42
13 11 11 12 15 20 15 20 25 33 33 39 42 44 45 46 47 50 48 48 49 55 60 60 61 60 61 62 60 58 55 53 53 52 49 50 49 49 49 48 48 48 46 46 46 46 43 40 37
14 14 6 14 22 15 12 19 24 33 33 36 38 42 45 47 50 53 53 54 55 59 60 61 61 60 60 57 55 54 53 51 50 48 48 48 47 46 47 45 46 46 45 44 45 43 41 36 36
13 11 14 16 19 23 16 17 27 34 34 36 37 40 43 46 51 52 54 55 57 60 60 60 59 60 60 58 57 53 52 49 47 47 48 46 46 45 43 46 44 43 40 40 39 41 38 36 35
15 14 17 16 21 21 21 23 30 33 38 40 40 40 42 46 50 52 54 57 58 58 60 59 58 60 57 53 50 51 50 48 46 46 45 45 45 42 42 42 41 41 39 37 39 39 39 34 34
18 23 21 21 22 17 22 12 24 33 35 39 42 44 45 48 50 52 54 57 58 59 60 59 58 53 50 51 49 49 45 45 46 46 44 43 44 41 38 37 40 42 40 40 39 35 37 37 33
28 24 24 23 22 24 21 15 32 33 32 35 40 43 47 48 50 52 53 55 58 58 58 55 51 49 50 48 48 48 46 46 43 42 40 39 39 38 37 39 40 41 40 40 40 39 38 37 35
28 27 26 25 20 21 15 16 18 29 30 35 41 45 48 49 48 48 50 51 53 55 52 51 48 46 48 48 47 47 44 38 35 37 35 34 34 34 34 33 37 37 37 39 38 39 39 39 36
25 24 24 24 22 22 21 19 17 15 29 34 43 45 48 46 43 44 45 46 49 49 49 48 45 45 46 45 41 39 39 38 40 36 33 32 29 29 31 33 34 33 35 37 38 40 41 37 36
25 22 25 17 17 16 22 14 15 27 29 35 43 45 47 44 42 42 42 43 45 47 47 45 44 44 42 39 37 39 36 36 34 32 31 31 30 29 31 32 32 33 35 36 40 39 37 39 39
24 23 26 25 33 26 13 11 27 30 30 35 41 43 44 42 41 41 41 43 44 46 46 46 44 41 37 39 40 39 40 35 30 31 33 30 30 27 30 32 32 32 33 35 38 37 37 37 38
28 26 23 23 20 17 10 11 15 28 28 33 39 41 42 41 41 40 41 44 45 45 47 47 43 38 39 37 39 35 37 31 31 32 31 29 31 31 32 32 31 32 33 33 34 34 35 36 37
28 25 24 24 26 22 14 13 20 20 28 32 37 40 41 41 41 41 42 44 44 45 46 43 40 39 37 35 34 37 33 31 31 31 30 30 32 31 31 30 30 30 30 31 34 37 37 36 36
28 26 26 26 20 26 29 18 22 24 26 31 34 38 40 41 40 41 43 44 44 44 43 42 40 37 35 33 37 35 31 29 30 30 28 31 31 32 31 29 29 29 29 31 35 33 36 34 32

GFSSGP_sfc_dewp_030.txt.gz
Dewpoint
50 41 39 30 17 22 20 18 38 45 45 48 50 49 51 55 55 54 66 66 61 62 65 67 70 70 70 71 70 70 69 67 66 67 67 67 66 65 65 65 63 63 61 61 60 61 61 62 62
40 38 32 16 18 17 16 36 38 45 48 48 47 47 50 54 59 62 63 64 61 62 63 66 70 70 70 70 70 69 68 66 67 67 66 65 64 63 63 65 64 63 60 59 59 59 59 59 59
39 27 11 13 18 18 17 38 46 45 45 45 44 47 46 52 59 61 64 66 62 61 63 68 69 69 70 70 69 69 68 67 66 66 64 62 62 63 63 64 64 63 61 60 60 59 59 60 62
26 18 12 19 18 17 22 48 49 45 45 43 45 44 45 52 56 61 65 66 64 63 66 68 68 68 69 70 69 69 68 66 66 65 64 62 63 63 64 65 64 63 62 61 61 61 61 63 63
25 16 11 15 15 16 19 41 40 44 47 47 51 42 43 51 59 62 65 66 65 67 67 67 67 67 69 69 69 68 67 66 65 65 64 64 63 63 64 65 64 63 62 62 62 62 62 63 63
17 14 14 14 14 16 18 35 42 46 46 49 50 43 46 52 56 63 66 66 67 67 67 67 67 68 68 69 68 68 67 66 65 64 64 64 64 64 65 64 64 64 63 63 63 62 62 62 62
19 11 10 12 16 24 27 43 46 49 51 44 46 42 54 52 55 61 65 66 67 67 66 67 67 68 67 67 67 67 66 66 65 65 65 65 65 64 64 64 64 64 63 63 63 62 61 61 61
13 15 13 13 8 26 35 42 47 46 47 48 43 40 49 54 60 65 63 63 63 64 66 66 66 66 65 65 66 65 65 65 64 64 63 63 63 63 64 64 64 63 62 62 61 61 60 61 59
13 14 15 12 9 39 47 48 46 45 44 45 42 47 55 60 62 63 62 63 62 63 64 66 65 65 64 64 64 65 65 64 63 63 63 62 59 60 61 63 63 61 61 62 61 60 58 61 60
15 15 13 24 37 42 46 48 48 38 41 39 47 55 59 61 61 59 58 59 59 60 64 65 65 65 63 56 61 61 61 60 59 59 60 61 63 61 59 61 61 59 59 60 60 58 59 59 51
16 14 16 30 41 41 42 45 40 42 42 45 51 56 59 59 59 60 60 61 60 62 62 63 63 63 58 58 58 58 59 61 62 63 64 64 63 63 61 63 57 58 59 58 56 56 53 52 52
15 14 16 22 38 38 40 36 34 35 41 50 51 53 58 56 57 59 60 61 61 61 61 62 61 62 60 58 56 57 60 61 65 64 63 63 63 63 61 59 57 57 56 55 55 55 54 53 51
15 17 17 21 32 31 30 39 40 38 40 50 52 55 55 54 56 58 60 60 59 58 60 58 60 60 59 60 61 62 64 64 65 64 63 64 62 62 61 59 57 56 55 54 54 53 51 49 47
15 20 19 17 30 29 32 41 40 44 43 46 54 51 50 49 48 50 55 55 54 54 56 58 57 59 59 62 63 62 61 61 61 61 62 63 62 61 60 58 56 56 52 51 51 50 48 49 49
21 18 18 15 26 30 34 30 28 40 43 47 46 46 43 43 44 46 50 52 53 53 55 57 57 59 61 61 60 60 59 60 60 61 62 61 59 58 57 56 54 52 52 49 49 49 48 48 46
21 19 17 18 25 29 38 34 26 38 40 40 41 42 41 41 43 46 49 50 51 53 55 57 56 61 60 59 59 58 60 60 59 59 57 57 57 57 54 53 53 52 53 50 48 49 48 47 46
20 16 20 18 20 28 31 30 24 32 37 39 41 41 42 43 42 44 47 47 51 54 57 59 61 61 60 61 62 61 61 56 56 56 55 55 54 54 54 53 53 52 50 50 50 49 47 44 42
18 18 16 14 13 17 25 22 23 28 34 39 40 42 45 43 43 45 45 47 50 58 59 60 62 62 61 61 60 59 58 56 55 55 53 53 52 52 52 51 50 50 49 48 48 47 45 42 40
19 16 15 13 14 16 22 18 18 24 29 39 40 43 44 44 47 49 50 52 55 60 60 60 61 60 60 59 58 56 55 54 54 53 52 51 51 49 50 50 49 49 46 45 43 42 42 41 41
20 18 16 13 17 18 12 14 19 24 28 34 38 41 44 46 49 52 52 55 59 60 61 61 60 59 60 59 57 57 54 54 52 51 51 50 49 48 48 48 46 45 43 43 43 42 41 40 40
18 17 21 15 13 8 16 11 21 25 29 29 34 38 42 45 51 51 53 56 60 60 61 60 60 60 60 59 57 55 54 51 49 49 49 48 47 45 44 43 44 44 44 43 43 41 40 37 38
22 25 21 20 18 15 23 16 32 33 29 32 34 37 40 43 50 51 53 57 58 59 60 60 60 60 59 58 53 53 49 47 49 50 49 47 47 44 41 41 43 44 44 43 43 39 40 39 37
26 29 26 18 18 32 28 25 28 36 33 33 38 42 42 45 49 51 56 57 58 59 60 60 60 58 54 52 53 52 49 50 48 47 45 42 44 43 40 41 43 42 42 42 42 41 39 39 38
28 28 24 22 22 30 25 31 25 29 31 36 36 41 44 48 49 50 56 57 56 59 60 60 58 51 52 51 52 52 49 45 43 42 41 42 41 40 40 39 39 39 39 39 40 41 40 38 38
21 22 27 31 31 29 20 18 27 30 36 45 44 40 46 47 49 50 52 54 56 57 55 53 49 48 50 51 48 46 43 44 42 42 40 37 36 37 37 36 37 37 37 39 40 40 39 39 38
24 20 31 27 29 25 20 16 19 25 28 36 41 45 47 47 48 48 49 51 53 51 51 50 47 46 47 46 44 44 43 42 40 40 35 37 35 35 35 35 36 36 36 37 38 39 40 40 38
24 23 24 24 35 35 18 12 24 27 27 33 41 43 46 45 44 45 45 48 49 49 50 49 46 45 45 43 43 43 41 38 38 35 38 38 35 32 36 36 36 36 36 37 37 38 39 39 38
24 23 26 26 24 21 13 13 24 27 25 31 40 43 45 44 42 42 42 46 47 48 49 51 48 45 42 43 44 41 40 38 35 37 38 35 34 34 35 35 35 35 35 35 35 37 38 38 38
26 25 22 18 28 30 27 17 21 22 25 30 37 42 44 44 43 42 42 44 46 47 48 48 47 42 41 40 41 40 38 39 36 38 37 35 35 34 34 34 33 33 33 34 34 34 34 35 36
25 26 24 35 24 32 35 25 23 25 25 31 33 38 42 44 43 42 42 43 45 46 46 47 46 41 40 40 38 38 39 36 36 36 36 36 35 36 34 34 32 33 33 33 33 33 34 34 33

GFSSGP_sfc_dewp_033.txt.gz
Dewpoint
54 49 42 38 21 21 20 21 43 46 47 50 51 53 56 57 56 51 66 64 66 68 69 69 70 70 71 71 70 69 68 68 67 67 67 66 65 65 65 65 64 63 60 60 60 58 58 58 59
42 39 39 32 15 16 18 45 47 48 48 49 49 50 54 57 61 64 62 64 64 67 68 68 70 70 70 70 69 68 67 67 67 66 66 65 64 64 65 64 63 63 60 59 59 59 59 60 61
44 39 26 12 12 15 18 48 46 48 48 45 45 46 49 58 62 63 64 64 64 64 67 69 69 69 70 69 68 68 67 67 66 65 65 64 63 63 64 65 64 64 61 61 61 61 61 62 63
33 25 15 12 15 18 20 44 47 44 48 50 46 43 48 55 60 64 63 63 63 66 67 67 67 68 68 69 68 67 67 66 65 65 65 64 64 63 64 65 65 62 62 62 61 61 61 63 62
34 24 10 13 16 18 28 42 45 46 48 52 51 43 48 55 64 65 65 64 66 67 67 65 66 67 69 69 68 67 66 65 65 66 66 65 64 63 64 65 65 63 62 62 62 61 62 63 62
25 19 13 12 12 17 47 47 46 45 47 51 49 48 50 60 63 65 66 66 66 65 65 66 67 68 68 68 67 66 65 65 65 65 65 65 65 65 65 65 65 64 63 63 62 62 62 61 62
23 19 13 10 10 14 44 50 50 50 49 46 51 52 54 57 64 65 66 66 66 66 65 66 67 67 67 66 66 65 65 65 65 65 65 65 64 65 65 65 65 64 64 63 62 60 59 59 60
17 16 13 12 11 38 47 48 51 52 47 49 46 47 52 61 62 63 63 64 64 65 65 66 67 66 65 64 65 65 64 64 64 64 63 63 63 64 64 64 64 63 62 62 61 60 58 58 57
20 12 9 11 32 43 47 45 53 54 51 47 45 53 61 61 60 60 60 62 62 62 63 64 65 64 63 63 64 64 63 63 63 63 62 62 60 60 62 62 62 61 60 60 60 59 58 60 59
18 15 14 26 40 41 47 44 47 50 51 45 53 60 61 60 58 58 59 59 60 60 60 60 63 63 62 60 62 61 60 60 59 59 60 59 60 60 59 61 61 60 59 59 59 60 58 56 50
17 14 15 33 40 42 43 43 45 47 45 47 51 56 58 57 58 57 56 59 59 60 60 61 63 62 57 58 59 59 59 58 59 59 60 62 61 60 60 61 58 56 59 56 56 55 53 51 50
15 17 16 37 39 41 40 40 35 41 45 50 54 55 58 57 56 59 57 58 59 61 61 62 63 59 56 58 57 58 60 63 63 63 62 61 62 61 59 57 57 56 56 54 53 52 49 46 46
17 16 17 38 39 43 40 39 37 43 49 46 50 53 57 58 57 59 59 59 60 60 60 60 60 56 56 57 61 62 63 62 63 61 62 61 60 59 58 56 55 53 52 51 49 48 45 45 46
18 17 18 21 39 40 38 40 39 43 49 50 50 51 55 57 58 59 60 60 60 60 59 58 57 56 59 61 62 62 60 59 60 61 62 61 60 57 56 54 52 51 49 48 47 47 46 47 46
24 20 20 18 31 39 42 36 37 43 46 47 49 53 52 56 58 58 59 58 59 57 56 56 56 61 60 59 58 58 58 58 59 60 60 57 57 55 54 52 51 49 49 48 47 48 47 46 46
22 22 18 19 33 36 32 31 35 43 44 52 50 48 45 45 54 55 54 53 55 55 54 55 58 60 58 58 58 57 58 58 58 56 55 54 55 52 52 51 50 50 51 47 48 47 46 44 42
25 19 22 22 30 35 32 29 31 43 45 47 43 41 40 42 47 49 51 52 53 54 53 56 60 58 58 59 58 59 57 56 55 55 53 53 53 53 51 50 48 49 49 48 46 46 45 41 39
23 21 19 22 20 32 30 28 26 38 40 40 41 41 42 41 42 47 48 51 54 54 55 60 60 59 59 59 59 58 55 55 55 53 52 52 51 51 50 48 48 47 46 44 43 42 42 40 39
27 21 19 18 15 28 27 23 23 27 38 40 41 44 44 42 43 44 46 53 55 57 60 60 59 59 59 58 57 55 54 53 53 52 51 51 48 48 48 47 45 43 42 40 41 40 39 39 39
27 22 21 19 18 20 20 20 22 24 31 39 41 44 44 45 47 48 53 56 56 58 59 60 59 58 59 58 58 55 53 52 51 49 49 48 47 47 45 44 42 42 41 41 41 39 39 38 37
28 29 22 20 17 14 13 16 24 25 28 38 42 43 44 46 49 51 55 58 59 59 59 59 59 58 59 59 57 55 52 49 48 47 47 46 45 44 44 43 42 42 42 41 40 40 37 35 36
22 29 29 25 20 15 25 22 32 33 32 31 35 40 44 48 51 51 56 58 59 59 59 59 59 58 59 59 56 51 47 45 47 48 46 44 44 42 39 41 42 42 42 40 41 40 38 36 35
28 30 27 28 27 30 27 23 26 35 27 33 36 36 41 50 51 51 55 58 58 59 59 60 60 59 59 59 54 50 48 46 47 46 45 45 44 42 38 38 36 36 38 37 37 38 39 38 36
31 29 30 31 30 26 25 26 29 33 31 35 35 40 42 49 51 54 56 57 58 58 59 59 59 59 57 51 51 48 46 42 40 39 39 41 39 38 36 35 35 35 35 36 37 37 39 37 36
29 27 26 26 28 27 29 27 26 32 33 38 39 38 43 49 52 56 56 56 57 58 58 58 57 50 49 46 42 41 40 40 38 38 38 34 35 35 33 34 35 34 34 35 36 37 38 38 37
30 27 29 25 27 28 31 27 26 29 32 38 41 40 45 47 51 55 55 55 56 57 57 55 48 48 46 42 40 40 39 40 39 37 35 36 35 35 34 35 33 33 34 34 35 36 37 38 38
31 27 30 33 33 29 25 18 27 29 35 42 41 43 46 47 48 51 54 55 54 52 50 48 46 46 44 42 40 40 39 37 35 35 35 37 34 33 34 33 32 32 33 33 33 36 36 36 36
26 26 25 28 19 19 19 21 26 28 37 39 42 45 45 45 45 46 48 51 50 49 49 48 46 45 42 41 40 37 35 34 34 35 35 34 33 33 33 33 33 32 32 33 34 35 34 35 36
27 26 26 25 29 24 23 21 24 27 30 38 42 44 45 43 43 44 44 47 48 48 48 47 46 42 41 40 39 37 35 34 35 35 36 35 34 33 32 33 32 30 31 32 32 32 32 33 34
25 28 32 26 21 28 27 24 22 23 29 31 35 43 45 44 42 42 42 45 46 47 47 47 46 40 39 39 38 36 36 35 35 35 36 37 34 34 33 34 31 31 31 32 33 32 32 32 32

GFSSGP_sfc_dewp_036.txt.gz
Dewpoint
55 50 41 38 22 20 19 19 24 45 47 49 52 56 56 58 56 48 64 67 68 69 70 69 70 70 70 70 69 69 68 66 65 65 65 65 65 66 65 64 64 63 60 59 60 60 60 60 61
46 38 38 30 15 13 14 26 44 47 48 54 52 55 56 57 63 62 63 68 68 69 69 69 70 70 70 69 68 68 66 65 66 65 65 65 65 64 65 64 63 63 61 60 60 59 59 61 63
42 41 32 24 12 12 15 45 45 47 48 45 45 45 52 60 63 62 63 67 68 68 67 69 69 69 69 68 68 67 67 66 66 66 65 64 64 63 64 65 64 64 61 60 60 59 60 62 63
33 24 19 10 10 13 17 37 48 46 47 50 46 43 52 55 62 63 63 65 66 67 67 68 68 68 69 68 68 67 66 65 66 66 66 65 63 63 64 65 64 63 61 60 60 60 61 63 62
34 21 11 10 11 14 36 32 46 47 49 51 48 46 49 62 63 63 63 64 66 66 66 66 67 68 68 68 67 67 66 66 66 66 66 65 64 63 64 65 65 63 61 60 60 60 62 62 61
25 19 13 12 12 14 47 51 49 49 50 51 48 51 52 64 63 64 66 66 66 65 66 65 67 67 67 67 66 65 65 66 66 66 66 65 65 65 65 65 65 64 64 63 61 61 61 62 61
27 21 17 15 15 23 46 51 49 50 48 47 50 51 56 60 65 65 65 65 65 66 65 65 64 65 66 66 65 65 65 65 65 65 65 65 65 65 65 65 65 64 63 62 61 60 58 59 60
22 17 14 13 10 24 47 50 51 51 48 51 52 51 53 60 63 63 63 63 63 62 61 62 65 63 65 64 65 64 64 65 64 64 64 63 64 64 64 64 64 63 62 61 60 59 58 60 59
19 16 13 11 21 40 47 47 51 52 50 49 56 58 60 61 61 60 60 61 62 63 60 61 63 64 64 63 63 64 64 64 63 63 63 62 61 61 61 61 62 61 61 59 59 58 59 58 60
20 16 16 15 36 43 45 45 48 47 48 51 56 58 59 60 60 59 58 58 59 60 61 61 63 63 62 61 61 60 59 59 60 59 60 59 59 60 60 61 61 60 60 59 58 59 58 54 49
22 17 18 24 43 42 44 43 48 47 45 47 54 56 58 58 58 58 58 58 57 58 60 61 63 62 60 59 60 59 58 58 58 58 59 59 60 60 60 60 57 54 58 56 54 50 49 47 47
16 16 16 40 42 41 40 42 44 46 46 54 57 57 57 56 55 55 58 56 56 56 58 61 62 61 58 58 59 58 57 59 61 62 62 61 61 60 58 58 55 55 54 51 50 48 46 46 46
17 18 29 41 41 40 44 43 40 44 49 54 57 56 56 55 55 56 58 57 56 57 58 59 61 61 57 57 57 59 61 62 62 61 60 60 58 57 56 55 52 51 50 48 47 46 46 47 45
24 27 36 39 38 36 41 39 39 44 47 51 55 56 55 55 57 57 57 57 57 58 59 59 61 58 57 60 60 62 61 60 60 61 60 60 58 55 54 51 50 48 47 47 47 47 46 46 44
29 21 38 40 40 38 39 34 39 44 48 50 53 55 56 55 58 57 57 58 58 59 59 60 59 58 61 60 59 58 58 58 59 59 58 58 56 54 52 50 49 49 48 47 47 47 45 43 40
27 21 19 36 36 37 33 32 40 45 48 50 51 53 55 56 57 57 58 58 59 59 58 57 59 60 58 58 57 57 58 58 57 56 55 54 54 52 51 49 49 50 49 48 47 45 43 40 39
25 18 20 25 32 33 30 29 34 43 48 51 52 49 53 56 58 58 59 60 59 58 56 58 59 58 58 57 58 57 57 57 55 54 53 53 53 52 50 48 49 48 47 46 45 45 42 39 38
24 20 20 22 25 31 29 25 30 42 47 51 46 41 46 55 56 57 58 57 57 56 55 59 58 58 57 58 58 56 54 54 54 52 52 51 52 51 49 48 47 45 42 41 40 39 39 39 38
29 28 26 20 21 31 29 24 27 41 45 45 41 42 45 52 53 53 54 55 55 54 58 59 58 58 57 57 56 54 53 53 53 52 51 51 49 50 47 44 43 42 40 41 40 39 38 38 36
29 28 25 23 22 29 27 23 24 35 41 43 41 41 42 43 46 50 52 53 53 54 58 59 58 58 57 57 56 54 53 53 52 51 51 48 48 46 45 43 41 41 41 40 40 38 38 38 36
28 27 26 26 21 15 18 22 27 25 37 41 42 42 42 42 44 47 51 53 53 58 59 58 58 57 58 58 57 53 51 49 48 47 47 46 46 45 43 42 42 42 41 40 40 38 36 35 36
26 28 25 27 20 11 22 20 28 30 29 39 41 43 43 43 45 51 53 54 56 58 60 59 58 58 58 58 56 52 50 48 47 47 46 44 44 43 42 42 43 42 40 38 39 39 38 36 34
29 31 29 27 26 26 25 20 22 33 27 32 35 42 44 45 47 54 55 56 57 58 58 59 59 58 58 58 56 52 48 47 48 47 45 44 43 40 39 38 36 37 37 36 35 36 36 38 36
34 30 31 33 30 23 27 23 23 29 27 28 31 37 43 48 51 55 58 58 58 58 59 59 58 58 58 58 56 51 48 46 47 45 44 43 38 38 36 35 35 35 35 35 36 36 38 37 36
31 28 25 23 25 23 30 25 25 27 32 33 32 40 43 50 52 56 57 58 58 58 58 58 59 58 58 55 53 49 46 45 45 42 41 37 37 36 35 35 35 35 35 34 34 34 35 36 36
30 26 26 20 23 24 31 27 28 29 29 34 37 40 49 50 53 55 57 57 58 58 58 58 58 54 48 45 45 43 41 41 40 40 37 38 36 35 35 35 35 34 34 33 33 35 37 36 36
28 27 30 31 31 27 27 22 26 32 34 39 40 41 46 49 54 55 56 56 57 57 57 56 51 47 42 40 40 40 40 40 40 42 42 39 36 35 36 34 33 34 33 32 33 36 35 34 35
29 28 25 28 22 22 20 21 24 32 34 40 39 40 46 49 54 55 55 55 55 55 54 50 47 44 41 40 40 38 40 40 40 38 38 34 35 36 34 34 33 33 31 32 34 35 33 34 34
26 25 26 26 27 21 22 20 20 30 37 38 40 42 46 47 51 54 54 54 53 51 49 47 46 43 40 39 38 37 35 36 36 36 36 35 35 35 34 35 33 31 30 31 34 33 33 32 33
26 27 29 25 19 27 25 22 27 27 33 41 42 44 46 46 48 51 52 53 51 50 48 47 45 43 40 39 37 35 36 41 38 36 37 36 35 36 35 35 33 31 31 31 32 33 32 31 32

GFSSGP_sfc_dewp_039.txt.gz
Dewpoint
54 49 40 36 20 19 18 18 21 35 46 52 54 54 55 59 53 47 64 66 69 68 69 69 69 70 70 69 69 68 66 64 63 64 65 66 65 65 65 64 63 63 62 60 60 60 62 64 65
44 39 35 24 15 13 14 19 33 40 51 57 55 56 56 57 61 62 63 68 68 68 68 68 69 69 69 69 68 67 65 64 65 64 64 65 64 64 64 64 64 64 63 60 60 60 61 63 65
41 38 34 21 14 12 13 27 45 48 51 50 45 49 55 59 61 62 65 68 68 68 68 69 69 69 69 68 67 66 66 66 66 66 64 64 63 63 64 65 64 63 63 61 60 60 61 63 64
33 27 19 11 8 12 16 19 41 46 49 51 50 46 53 62 62 63 67 68 68 67 68 68 68 68 68 68 67 67 66 66 66 65 65 64 63 63 64 65 64 64 62 60 60 60 62 62 63
32 21 14 13 10 14 44 48 43 48 50 50 50 47 53 62 62 64 66 67 67 67 68 68 67 68 68 68 67 66 66 66 66 66 65 65 64 64 65 65 64 64 63 62 62 62 62 60 62
25 19 14 11 12 13 47 50 49 49 49 50 49 51 57 63 63 64 66 66 66 66 66 66 67 67 67 67 66 66 66 66 66 66 65 65 65 65 65 65 64 64 63 62 62 62 61 60 60
26 22 17 14 15 14 46 50 49 48 47 47 51 51 59 62 63 64 64 61 61 63 65 65 65 66 66 65 65 66 66 66 66 66 65 65 65 64 64 64 64 63 62 62 61 60 61 60 60
26 18 15 13 11 13 47 49 51 50 48 51 53 52 55 61 62 62 61 60 60 60 62 62 62 62 64 63 64 65 65 66 65 65 65 64 64 64 64 64 63 63 62 61 60 61 61 60 60
19 18 15 14 13 32 47 47 50 53 49 55 58 57 60 62 62 61 60 60 59 60 60 61 62 61 62 63 63 64 65 65 64 64 64 62 61 60 59 62 62 62 61 60 61 60 59 59 59
21 18 17 17 30 42 46 46 47 47 53 54 57 59 61 60 60 59 58 58 58 58 59 60 61 60 63 61 61 60 61 60 60 60 59 59 59 59 59 60 60 60 60 60 60 59 57 52 48
20 18 18 20 41 43 43 42 48 46 46 52 55 57 59 59 58 58 59 59 58 58 58 59 60 62 61 59 60 59 58 58 58 59 58 59 59 60 58 59 54 54 57 53 49 48 47 46 46
20 19 18 37 43 41 41 43 41 46 46 55 57 57 57 57 57 57 57 57 59 58 57 58 62 62 60 59 58 58 57 57 59 58 58 59 60 59 58 56 55 53 51 48 47 47 47 46 45
17 19 31 40 41 42 42 41 39 45 56 57 56 57 56 54 55 57 57 56 56 57 59 60 62 61 58 57 57 58 58 61 62 62 61 60 59 55 56 53 51 50 48 47 47 47 46 45 42
26 26 37 39 39 37 36 40 42 47 56 55 55 55 55 53 55 57 57 54 55 55 57 59 60 61 57 57 57 59 61 61 60 60 59 58 56 55 51 50 48 47 48 48 47 46 43 41 39
29 30 38 39 39 38 38 37 38 48 55 54 54 55 54 53 55 55 57 54 55 56 58 59 60 58 57 58 60 60 60 59 59 59 59 57 55 53 50 49 48 48 48 47 46 44 41 39 37
26 23 28 35 39 38 33 31 41 47 50 53 55 55 53 55 55 55 56 56 57 58 58 59 60 58 59 59 58 58 58 58 58 57 56 55 54 51 50 49 49 49 48 46 45 43 40 39 38
25 17 21 28 36 35 32 32 41 47 50 51 53 55 54 54 56 56 57 57 58 58 59 58 59 59 58 57 57 57 57 56 55 54 54 53 52 51 49 49 48 46 45 44 44 42 40 37 37
24 24 25 23 30 32 31 28 40 45 49 50 51 53 55 55 56 56 57 58 58 59 57 59 58 57 57 57 56 56 56 55 54 52 52 52 51 50 49 47 45 42 41 40 39 37 39 39 37
28 28 27 24 22 31 29 25 38 43 48 51 50 47 52 55 56 58 58 59 59 57 57 58 57 57 57 57 55 53 53 53 52 51 51 51 51 49 46 44 42 41 40 39 38 39 37 37 36
29 26 25 25 26 29 27 27 26 42 47 49 48 43 48 53 56 57 58 59 57 55 57 58 57 57 56 56 55 54 53 53 52 51 51 49 49 46 43 42 41 41 41 40 39 38 38 37 36
27 27 27 25 26 19 24 23 23 29 42 46 46 43 45 52 53 55 56 55 56 54 56 58 57 57 56 57 55 53 51 50 49 49 48 47 47 45 43 42 41 41 41 40 39 37 36 35 36
26 29 29 27 25 11 21 16 26 27 35 40 43 43 43 49 51 52 53 54 55 55 56 57 57 57 57 57 55 52 50 49 48 48 46 46 46 44 42 42 42 41 39 38 39 38 37 36 35
27 33 30 29 25 25 23 19 21 31 28 35 40 42 43 44 47 49 52 53 54 55 57 58 58 57 57 57 56 52 50 48 48 47 45 44 42 42 42 39 37 37 38 37 36 35 36 37 36
32 30 30 31 29 22 26 22 22 26 28 29 35 41 44 43 47 49 52 54 54 57 58 58 58 57 57 57 56 52 50 47 48 45 44 42 39 38 37 35 37 37 37 36 35 36 37 37 36
30 27 24 23 24 21 28 25 25 26 28 30 33 38 43 45 49 54 55 55 56 57 57 58 58 57 57 57 56 52 51 48 48 45 44 39 37 36 35 36 37 37 36 35 35 34 34 36 36
30 26 24 19 21 21 30 27 26 30 32 33 32 37 41 48 50 55 56 56 56 57 58 58 58 58 57 56 55 51 50 48 49 46 42 39 37 36 36 37 37 37 35 34 34 35 37 36 35
30 27 29 29 30 26 25 26 24 29 35 39 39 45 47 50 52 55 57 57 57 57 58 57 57 57 53 51 48 45 44 43 47 44 42 38 37 35 36 37 36 35 35 33 34 37 35 35 35
29 29 25 27 20 22 21 21 22 28 29 38 39 42 47 50 53 54 56 56 57 57 57 57 56 54 47 44 44 44 45 45 45 42 39 37 36 36 37 35 35 35 34 34 34 35 34 35 35
26 25 25 26 25 20 20 22 21 27 30 35 36 39 45 50 53 54 55 56 56 57 56 56 52 48 42 41 42 41 42 41 40 39 36 35 36 35 34 35 34 35 33 32 33 34 33 33 33
28 27 26 24 20 26 25 22 25 25 29 37 37 40 45 48 52 54 55 55 55 55 55 54 51 46 43 42 41 41 41 41 38 37 35 35 35 35 35 37 36 34 32 31 33 33 32 32 31

GFSSGP_sfc_dewp_042.txt.gz
Dewpoint
53 45 40 31 20 18 18 16 20 27 39 54 55 54 54 57 52 46 64 66 67 68 69 69 70 70 69 68 68 67 66 65 64 64 66 66 66 66 64 64 65 64 64 62 64 66 65 64 63
43 38 35 22 15 13 10 17 24 43 52 52 49 53 57 56 61 61 63 68 68 68 68 68 70 69 68 68 67 66 65 65 66 65 65 65 65 65 65 64 64 64 64 62 64 65 66 65 66
39 36 33 18 14 12 12 18 44 48 51 48 45 52 54 57 60 62 64 68 68 68 68 68 69 68 68 67 66 65 66 66 66 66 64 64 64 64 65 64 64 64 64 62 62 64 64 65 65
32 28 16 12 8 10 14 16 38 44 49 50 48 47 56 63 62 64 67 67 68 67 68 68 68 68 67 67 66 66 66 66 65 65 65 65 64 63 65 64 64 64 63 62 61 62 63 63 64
28 21 15 13 10 11 18 47 48 46 49 49 49 49 56 61 65 66 66 65 66 67 68 68 67 67 67 67 67 66 66 66 65 65 65 65 65 64 66 65 64 63 63 62 61 62 63 63 62
25 19 14 13 11 13 37 49 49 48 49 48 50 53 57 62 63 63 61 62 63 66 67 67 67 67 67 66 66 66 66 66 66 66 65 66 66 65 65 64 63 63 62 62 62 61 62 63 62
24 21 16 14 15 14 41 49 48 49 48 48 52 53 59 61 63 60 61 61 61 63 65 66 63 65 66 66 66 66 66 66 66 66 66 65 65 65 64 63 63 63 63 63 62 61 61 62 62
25 18 21 14 11 11 45 48 51 50 49 51 55 53 56 60 60 59 60 60 60 60 61 62 61 62 63 63 66 66 66 66 66 65 65 64 64 64 63 63 63 62 62 63 63 61 61 60 61
20 20 16 14 12 17 47 46 51 53 54 55 57 57 60 60 60 58 58 59 59 58 57 59 61 61 62 62 64 65 66 65 65 64 64 61 61 60 58 61 62 62 62 62 61 61 60 59 57
21 19 18 19 18 36 46 45 47 48 53 54 57 60 61 61 59 57 56 56 57 56 56 57 60 59 62 61 61 61 62 61 60 60 59 59 59 57 59 60 60 61 61 61 59 57 55 49 46
20 19 19 18 20 43 44 43 48 50 49 53 54 57 60 59 58 58 56 56 56 57 58 59 59 60 62 60 59 59 58 59 59 58 58 58 59 58 58 57 54 56 54 48 48 47 46 45 45
21 20 19 23 43 41 41 45 45 44 46 54 57 58 58 57 57 56 56 57 56 57 58 59 59 62 61 60 57 57 57 57 58 58 58 59 59 58 57 55 53 50 49 47 48 47 45 44 42
18 18 25 29 41 41 42 40 42 50 54 57 57 57 56 56 57 57 57 58 57 56 57 58 59 61 59 58 57 57 57 57 59 58 58 59 59 56 55 53 50 48 47 47 47 46 42 41 40
24 31 35 40 40 39 39 41 42 53 56 56 55 55 55 55 56 56 55 56 57 56 56 55 61 61 58 57 56 57 58 60 61 60 60 59 57 55 51 49 48 47 48 47 45 43 41 39 38
29 35 37 38 37 39 39 37 39 54 55 54 54 54 54 53 56 55 55 54 56 56 55 58 60 60 57 56 57 58 59 59 58 58 58 57 55 51 49 48 47 48 47 45 44 41 40 38 36
24 26 30 36 39 39 33 30 45 54 53 52 53 54 54 53 54 55 57 54 55 56 58 59 60 59 57 57 58 58 58 58 58 57 56 55 53 50 48 48 48 48 47 45 43 41 39 38 36
25 19 21 27 37 37 32 34 43 51 52 52 53 54 53 54 55 55 56 56 56 57 58 58 59 58 57 57 57 57 57 57 56 55 55 54 52 50 49 49 48 47 45 44 43 41 39 37 37
24 24 27 24 31 34 34 33 42 48 51 52 52 53 53 53 54 55 56 57 57 57 58 58 58 57 56 56 55 55 56 55 54 54 53 52 51 49 49 47 46 43 41 41 39 38 39 38 37
28 27 26 26 24 33 32 29 40 45 48 50 51 52 53 54 54 56 57 57 57 58 57 58 57 56 57 55 55 54 53 54 53 52 52 51 50 49 47 45 42 41 39 38 38 39 37 36 36
28 26 25 25 26 28 26 28 36 44 46 50 50 52 52 54 55 56 57 58 58 58 57 57 57 57 57 57 55 54 53 53 52 51 51 51 49 48 45 42 41 41 40 39 38 38 38 37 36
26 26 26 26 26 21 25 24 24 36 45 49 50 51 50 52 55 56 57 57 58 57 56 57 57 57 57 56 54 52 51 51 50 50 49 49 48 45 43 42 41 41 40 39 38 37 36 35 36
24 28 29 28 25 18 22 15 24 27 41 43 47 48 47 47 53 56 57 57 58 57 56 57 57 57 56 56 54 52 51 50 49 49 48 47 46 44 42 42 41 41 40 39 38 38 37 36 34
25 31 30 29 26 25 23 19 19 29 29 40 43 46 46 46 51 54 56 57 57 56 55 56 57 57 56 56 54 52 50 50 48 48 47 45 45 43 42 42 38 37 37 36 36 36 38 37 36
31 28 28 30 27 23 24 21 22 26 28 29 39 44 45 44 50 52 54 55 55 55 56 56 57 56 57 56 55 53 51 49 49 48 46 44 42 41 39 37 37 36 37 36 36 39 37 37 36
29 27 23 22 24 22 27 26 26 26 27 30 32 37 42 44 46 49 50 53 54 55 56 57 57 57 57 57 56 54 52 52 50 49 47 43 38 37 36 36 36 36 37 37 38 35 34 35 36
28 27 25 18 20 20 28 25 23 29 33 37 33 32 40 43 45 48 50 53 54 55 56 57 57 57 57 56 56 55 54 53 52 50 48 43 38 36 36 36 38 38 40 39 35 35 37 37 36
28 26 28 28 29 25 24 25 21 30 37 38 37 40 39 45 46 49 52 53 54 55 56 57 57 57 57 56 56 56 54 52 52 50 47 42 39 37 37 38 40 42 39 36 35 36 37 36 35
29 30 24 27 20 19 21 20 20 23 28 37 38 40 44 46 49 52 54 54 55 56 56 57 57 57 57 55 55 53 51 51 50 48 44 40 40 37 37 38 41 37 36 35 35 35 35 34 35
28 26 26 25 24 19 19 20 24 22 27 31 36 39 42 47 50 52 54 55 56 56 56 56 56 56 54 52 50 49 48 48 48 46 46 42 39 36 37 39 36 36 35 34 34 34 34 34 34
27 27 26 24 20 25 24 22 25 23 25 28 33 38 40 48 50 52 53 54 56 56 56 56 56 55 53 48 46 48 48 47 46 45 41 37 37 37 36 36 36 35 34 34 33 33 34 33 32

GFSSGP_sfc_dewp_045.txt.gz
Dewpoint
54 42 40 30 20 20 16 14 19 21 32 56 56 53 53 56 52 48 65 66 68 67 66 67 69 69 69 69 68 68 67 66 66 66 67 67 66 66 66 65 65 66 65 65 65 65 67 66 64
43 37 35 26 16 11 8 17 25 41 50 52 51 56 55 55 59 61 63 67 68 67 66 66 69 69 68 68 67 67 66 66 66 67 67 66 66 66 66 65 65 66 67 66 66 65 65 66 66
38 34 34 25 17 8 10 17 33 43 52 49 48 54 56 56 59 61 64 68 68 67 66 67 68 68 67 67 66 66 67 67 67 66 66 66 66 66 66 65 65 66 67 66 66 66 66 66 65
32 32 19 16 12 12 14 15 37 45 49 48 49 53 59 62 62 65 67 68 68 67 66 68 67 67 67 66 66 66 67 66 65 65 66 66 66 66 66 65 65 65 66 66 66 65 64 64 64
27 24 22 14 12 12 13 36 48 43 48 47 48 52 57 61 62 63 64 66 67 67 68 68 67 67 67 67 67 67 66 65 65 65 65 66 66 66 65 64 64 64 65 65 64 63 63 63 63
26 22 17 12 12 13 20 48 48 48 48 49 52 53 58 63 60 61 63 64 66 66 67 67 67 67 66 66 66 66 66 66 66 66 66 66 66 65 65 64 64 63 63 64 64 63 63 62 62
26 24 19 16 16 15 36 49 48 48 47 48 53 52 59 61 60 61 61 63 63 65 66 66 65 64 64 66 66 66 66 66 66 66 66 65 65 63 63 64 64 63 62 62 63 64 63 62 61
26 21 16 15 12 13 43 48 51 48 48 52 56 52 53 59 60 60 59 60 61 61 61 61 61 61 63 64 66 66 66 66 66 65 64 64 63 64 64 63 63 64 63 62 62 62 62 61 59
22 23 18 16 14 17 47 46 50 53 52 55 57 57 59 59 60 59 58 58 58 59 57 57 58 60 62 63 65 66 66 65 64 63 63 60 56 56 56 61 62 63 63 63 61 60 59 58 57
24 22 19 20 19 27 46 45 47 51 52 53 56 59 59 57 58 57 57 56 55 55 56 57 59 60 60 60 63 64 64 62 61 60 59 57 60 58 57 59 62 62 61 60 58 56 54 51 44
23 21 21 20 19 38 45 45 47 50 49 52 54 56 58 58 56 56 57 56 54 55 56 57 58 59 60 61 62 62 60 60 61 60 59 61 59 60 57 58 57 56 54 48 49 47 45 45 42
22 22 21 20 39 43 42 45 46 45 47 54 56 58 58 57 56 56 56 54 53 53 54 56 58 58 59 60 60 59 58 58 59 58 60 61 59 60 57 55 56 52 50 51 48 47 47 45 43
22 20 22 27 41 41 43 41 43 49 55 57 57 56 55 56 57 56 56 55 55 54 56 57 60 61 61 59 59 59 59 58 60 59 60 61 59 59 57 55 52 50 50 49 47 46 43 43 42
24 27 34 39 40 40 39 41 42 53 56 55 55 55 55 55 56 56 55 55 56 55 55 57 58 61 60 58 58 58 59 58 59 60 60 62 61 59 56 52 50 50 49 48 46 44 43 41 40
28 30 36 39 38 39 41 38 39 53 55 54 54 55 55 56 56 56 56 55 56 57 57 58 59 62 60 59 57 58 59 59 62 62 63 62 60 58 55 51 50 50 49 48 46 44 42 39 37
23 29 29 32 38 40 35 30 43 54 54 53 54 53 54 53 56 56 56 56 56 56 56 57 59 61 60 59 58 58 60 63 62 62 61 60 57 55 53 50 50 50 49 47 45 43 41 39 39
28 20 21 23 38 38 34 33 43 54 51 51 52 52 53 53 54 55 55 55 55 56 56 57 60 61 60 60 60 60 61 62 61 61 58 57 55 53 52 50 51 51 48 47 44 43 42 40 38
25 23 24 23 34 36 36 34 44 51 51 48 50 52 53 53 52 54 56 55 55 56 57 57 59 61 61 60 59 59 60 61 60 59 57 56 53 53 52 51 51 48 46 44 42 43 42 40 40
27 27 25 25 25 34 35 34 36 49 50 50 50 51 52 52 53 54 56 57 56 57 58 58 60 61 59 58 58 57 58 58 57 56 56 56 53 52 52 50 48 46 45 43 44 43 42 39 41
29 26 25 26 26 28 26 25 31 45 49 49 49 51 51 52 53 54 56 56 57 56 57 58 59 59 59 58 58 57 58 57 56 54 54 54 54 52 50 48 46 45 43 45 44 44 41 41 41
28 26 26 26 27 23 25 23 26 39 45 47 50 51 52 52 53 55 56 56 57 57 57 58 58 59 60 59 57 56 56 55 53 52 52 53 52 50 48 47 46 45 44 43 44 43 40 36 40
26 27 28 27 26 21 22 16 22 29 41 44 46 50 51 51 53 54 56 56 57 58 58 58 59 59 59 59 57 56 55 54 54 55 54 52 51 48 45 45 46 45 44 44 43 40 40 39 35
27 31 29 29 27 27 24 20 21 28 28 40 44 47 50 51 51 53 56 57 57 59 59 59 59 59 59 58 58 56 56 56 55 55 53 51 49 47 45 45 45 45 43 42 41 41 40 40 39
31 29 29 30 28 24 24 22 23 24 27 29 35 45 48 50 51 52 55 57 58 60 59 59 59 58 59 58 58 57 56 54 53 53 51 49 49 46 45 44 44 43 40 40 39 41 41 41 39
29 28 25 25 26 24 28 26 26 27 28 30 32 34 44 49 50 50 53 56 57 58 59 59 58 58 58 58 57 57 56 54 54 52 51 48 48 46 45 43 42 39 39 39 40 42 41 39 40
29 29 29 19 22 21 28 24 21 30 30 37 38 37 36 45 48 49 52 55 56 57 58 58 57 57 58 58 58 57 56 56 55 53 52 50 48 47 45 41 39 39 41 41 43 41 38 39 39
29 27 29 29 30 28 24 25 25 30 32 36 38 39 38 40 45 47 50 53 55 56 57 58 57 57 57 58 58 58 57 56 54 53 52 50 49 44 43 40 41 42 41 44 40 38 38 39 40
29 30 28 29 23 21 20 22 17 23 26 32 36 38 41 45 47 48 49 52 54 56 57 58 58 57 58 58 58 58 58 56 56 54 52 50 47 43 42 40 41 42 44 40 39 37 38 39 39
30 28 28 27 26 21 20 20 28 25 26 30 35 38 41 46 48 50 52 53 54 56 56 57 57 57 58 58 58 58 57 56 56 54 53 49 46 42 39 40 43 43 39 38 37 38 38 37 37
29 30 29 30 23 27 26 22 26 28 26 29 30 38 40 44 48 51 53 55 55 55 56 56 57 57 58 57 56 56 56 54 54 52 51 49 45 42 41 42 41 39 38 36 39 38 35 35 36

GFSSGP_sfc_dewp_048.txt.gz
Dewpoint
52 37 32 30 17 14 12 10 13 24 23 48 53 51 50 54 51 49 64 66 66 65 63 66 70 70 70 70 69 68 68 68 67 68 68 68 67 68 67 67 67 67 68 68 67 63 63 63 63
32 32 33 23 11 8 7 12 16 32 44 51 52 54 52 54 58 60 63 67 66 65 63 62 70 69 69 68 68 68 67 67 68 68 68 67 67 67 67 67 67 67 67 66 67 64 63 63 64
37 34 27 19 12 6 8 14 21 29 48 49 48 53 54 56 59 60 63 67 67 65 63 64 69 69 68 68 67 67 67 67 68 67 67 67 67 67 67 68 68 68 68 67 67 65 63 64 65
28 29 23 13 9 10 12 11 15 28 43 46 48 52 58 62 61 63 64 68 67 66 65 67 68 68 68 67 67 67 67 67 66 66 67 67 67 66 67 67 68 68 68 67 67 63 63 64 64
25 21 15 11 9 12 10 13 35 34 40 44 47 50 55 61 64 65 66 68 67 67 67 67 67 67 67 67 67 67 66 66 66 66 66 66 66 66 66 66 66 68 68 66 64 63 63 64 64
21 20 12 8 9 10 17 36 43 44 45 48 49 51 56 62 62 64 65 66 67 67 67 67 67 66 66 66 67 66 66 65 65 66 66 66 66 66 66 65 66 66 65 64 64 63 63 63 62
20 16 12 10 16 18 27 44 46 46 45 47 51 50 59 60 61 63 64 64 65 66 66 66 66 65 65 65 65 65 66 66 66 66 66 66 65 65 64 64 64 64 64 64 64 63 62 61 60
22 18 12 13 15 17 33 44 48 47 46 51 53 49 54 59 60 61 62 63 61 62 64 61 61 61 64 64 65 66 66 66 66 65 65 64 64 64 64 63 63 63 64 64 64 62 61 59 57
23 18 12 14 16 19 34 40 49 51 49 51 54 54 58 60 60 60 59 59 58 60 60 60 58 57 58 61 64 65 66 65 64 63 63 59 53 53 55 62 64 63 63 62 62 60 59 58 55
22 19 15 18 20 20 31 42 47 49 48 50 55 59 59 59 59 58 57 56 55 56 57 58 58 58 60 62 62 62 61 60 59 57 56 53 56 55 54 60 63 62 61 60 58 57 57 54 44
23 20 20 19 20 22 29 43 45 44 45 47 53 56 57 58 58 57 56 55 54 55 55 55 56 57 59 61 63 61 59 60 59 59 57 58 56 56 55 56 55 55 56 48 49 48 47 48 46
21 21 21 21 30 36 40 43 43 45 49 53 57 57 57 55 55 56 55 55 55 55 55 55 56 59 59 60 61 61 58 57 57 56 59 58 56 56 56 55 55 54 52 52 51 49 50 48 47
23 22 22 26 33 39 43 41 41 48 53 55 56 57 56 56 55 56 55 53 54 55 54 55 57 58 58 59 61 60 58 56 55 57 58 55 54 56 55 56 53 53 52 51 50 49 47 47 45
25 25 30 34 37 39 37 39 42 51 54 55 55 55 55 55 55 54 53 53 53 52 52 52 55 54 54 57 60 59 58 57 58 54 57 60 56 57 55 55 54 53 52 50 49 48 47 45 43
27 26 32 34 37 36 39 37 37 52 53 53 52 53 55 54 54 54 53 52 52 50 52 55 54 55 54 56 58 57 56 54 54 56 62 62 60 59 57 55 54 53 52 52 50 48 46 43 39
23 26 21 33 36 38 36 29 43 52 52 51 49 51 51 55 55 54 54 54 51 52 53 57 56 57 59 58 54 54 54 56 56 59 61 63 62 61 59 55 54 53 52 50 48 47 45 43 39
23 16 17 21 34 35 35 29 43 52 51 48 47 49 49 51 53 55 55 54 54 53 54 57 58 57 59 60 56 56 57 57 59 62 62 63 61 60 58 55 54 54 51 50 48 47 45 41 38
15 17 18 19 31 35 33 29 42 48 49 46 45 48 50 49 51 52 53 54 53 53 55 57 57 60 62 60 58 53 55 57 60 61 59 60 58 58 56 54 54 53 51 50 47 47 43 41 39
24 21 18 24 27 31 29 26 29 45 48 45 44 45 48 50 50 52 51 52 53 54 56 56 59 60 62 58 54 50 53 56 59 59 60 60 57 56 56 54 54 53 50 49 49 45 44 40 41
27 23 21 25 26 27 22 21 25 40 44 44 42 44 44 47 50 51 53 53 53 53 55 55 56 57 60 58 54 52 51 54 56 58 60 59 58 56 55 55 53 51 49 49 48 46 42 41 41
28 24 23 22 26 24 24 20 24 33 41 45 44 43 44 45 49 51 52 54 56 54 56 54 55 56 59 59 56 54 54 56 56 57 58 56 56 55 55 54 51 51 49 47 48 46 44 40 40
25 26 25 25 24 18 24 15 18 26 34 41 44 46 46 46 47 50 52 54 55 56 55 55 56 57 59 60 57 55 51 52 55 57 56 55 56 55 53 52 50 51 48 48 47 44 43 41 40
24 27 27 27 24 24 21 18 18 26 24 32 39 43 46 46 47 48 51 54 55 56 57 56 56 56 58 59 60 57 54 52 55 58 57 57 56 54 51 50 50 50 48 48 46 44 43 42 41
30 29 28 28 26 24 19 19 16 18 21 22 27 38 43 46 48 47 49 52 54 56 58 59 57 56 58 59 60 60 58 55 55 57 57 56 54 53 51 48 50 49 48 48 44 44 45 43 41
30 27 24 25 25 24 25 23 20 22 25 28 29 30 35 44 48 49 48 51 54 57 59 59 58 56 57 58 59 60 60 59 58 57 57 56 53 51 51 50 50 48 48 45 44 46 45 42 40
28 26 26 21 23 22 26 20 19 25 27 31 35 37 37 37 44 48 50 51 54 57 59 59 57 57 57 59 59 60 61 60 59 58 57 56 53 51 51 50 49 48 45 44 44 43 44 41 41
29 27 28 27 32 28 20 22 22 25 26 28 33 36 36 36 39 44 47 50 53 57 59 60 58 57 57 59 60 60 60 60 59 59 58 54 52 52 51 49 48 45 42 42 44 44 42 40 41
30 30 27 28 23 20 19 19 15 19 20 24 25 31 38 42 41 42 44 48 52 55 58 60 59 58 57 59 60 59 59 59 59 59 55 54 53 52 50 47 45 43 43 43 44 40 41 42 42
30 28 28 27 26 23 20 18 22 20 23 27 29 32 35 41 44 46 47 49 51 53 56 58 58 57 57 58 59 60 59 59 59 58 57 56 55 52 48 47 45 43 43 42 40 42 41 39 41
25 25 28 26 22 26 27 21 22 25 27 28 28 32 37 40 44 48 50 52 52 53 54 55 56 56 57 58 59 59 59 58 58 57 57 56 52 49 47 44 42 44 41 41 41 41 40 40 39

GFSSGP_sfc_dewp_051.txt.gz
Dewpoint
56 45 31 24 17 13 8 9 8 17 24 39 41 43 44 52 51 47 63 66 64 63 64 68 71 71 71 71 70 69 69 68 68 68 68 68 69 69 69 69 69 69 67 64 63 63 63 63 63
38 25 27 21 14 5 6 5 11 15 32 45 47 48 44 52 55 61 63 66 66 64 63 67 70 70 70 70 69 68 68 68 68 68 68 68 68 68 68 68 69 69 68 64 63 63 63 64 64
36 28 23 21 13 7 5 14 17 21 33 43 40 46 51 54 58 60 63 67 68 64 64 67 69 69 69 68 68 67 68 68 68 68 68 68 68 68 69 68 68 68 68 64 63 64 64 64 65
27 25 20 10 8 9 7 12 13 16 28 36 40 43 56 61 60 64 63 66 68 66 64 68 68 68 68 68 67 67 67 67 67 67 67 67 68 68 69 69 68 68 68 64 63 63 63 64 64
23 18 13 13 8 7 10 10 13 22 25 33 37 41 53 60 63 65 66 67 67 66 67 68 67 67 67 68 68 67 67 67 67 67 67 67 67 68 69 69 68 68 68 64 62 62 62 63 63
20 17 11 8 8 9 11 23 31 28 31 39 42 41 57 61 63 65 67 67 68 67 67 67 67 67 67 67 67 67 66 67 67 67 67 67 67 67 68 68 68 67 65 65 64 63 62 61 60
20 16 12 9 12 14 21 36 40 42 39 40 46 45 58 60 62 64 65 65 66 67 66 66 66 65 66 66 66 66 66 66 67 67 66 66 65 65 66 67 66 65 64 64 64 63 62 60 59
18 15 11 10 16 22 30 37 44 44 41 49 49 46 52 60 61 62 62 62 64 64 65 64 64 64 65 65 65 65 65 66 66 66 65 65 64 64 64 65 64 64 64 64 62 62 61 58 57
18 16 11 12 15 22 27 33 45 49 45 48 54 56 59 60 61 60 58 60 60 60 60 62 62 62 64 64 64 64 66 65 64 64 63 59 52 52 55 62 64 64 64 63 61 60 60 58 55
18 17 14 17 20 21 24 35 43 44 43 47 55 58 59 59 59 59 57 56 57 57 57 57 58 60 59 61 62 63 63 61 60 58 59 54 56 56 54 61 63 63 63 62 61 59 58 55 45
20 17 17 17 22 23 25 35 41 40 39 46 51 56 58 58 57 57 56 55 56 57 57 56 57 58 57 59 60 61 59 58 58 60 58 59 59 58 58 58 54 55 57 50 50 51 50 50 48
19 18 19 19 23 28 35 37 39 43 47 53 56 56 56 56 56 55 55 54 53 54 56 56 58 59 60 60 60 60 57 58 57 59 62 61 59 60 58 54 54 54 52 51 51 51 52 51 49
19 19 20 22 27 35 37 36 38 45 51 56 57 56 55 54 55 55 54 55 53 53 54 56 57 57 59 60 60 59 55 54 58 58 59 59 58 60 56 56 54 54 53 53 52 52 50 49 47
22 22 22 26 30 29 34 36 39 48 53 55 55 54 52 53 54 54 53 54 54 55 54 56 58 58 58 57 58 58 57 56 57 59 59 62 59 60 55 56 54 54 53 53 52 50 50 48 46
23 22 23 27 30 29 34 36 37 48 51 51 52 50 51 53 52 53 53 53 53 53 54 56 56 56 54 53 54 53 56 55 56 56 61 61 59 59 58 57 55 54 54 54 53 52 49 47 42
17 19 18 40 30 31 35 40 42 46 49 46 46 48 49 53 51 52 53 52 51 50 50 52 51 53 52 54 54 53 56 56 55 55 60 61 58 58 58 56 56 55 55 53 52 50 49 46 42
19 12 18 29 25 29 29 40 41 42 46 43 45 46 47 50 50 52 52 50 49 50 50 52 53 50 53 56 57 58 56 52 48 54 57 60 60 61 62 57 56 57 54 53 52 51 50 46 41
13 13 14 13 32 26 28 28 37 40 42 42 42 44 45 48 49 51 52 51 50 52 55 56 55 56 58 60 56 53 54 54 54 56 58 60 61 61 60 57 57 57 53 53 52 51 48 45 42
17 16 13 18 26 27 29 26 35 39 40 41 42 43 43 47 49 51 52 52 52 53 54 55 57 58 59 55 53 49 53 53 53 56 59 60 60 60 59 56 57 56 54 54 53 51 48 43 43
20 20 17 22 23 24 25 23 26 35 39 38 40 41 42 44 47 49 52 52 52 53 54 55 55 55 59 57 53 51 49 50 51 54 58 58 59 58 58 57 56 56 53 54 53 51 46 45 45
20 22 21 22 29 20 20 17 18 22 34 37 37 38 39 42 46 49 49 50 53 53 54 54 55 56 59 58 54 51 49 50 51 52 55 58 59 58 57 57 56 56 55 53 52 50 48 44 44
20 22 23 21 20 16 24 15 26 22 28 35 37 37 37 40 44 47 50 50 51 52 54 54 54 54 55 56 55 54 49 47 50 52 54 57 59 59 56 56 56 55 54 54 53 49 50 47 43
22 26 23 22 22 22 25 18 24 22 22 27 36 38 38 39 42 46 49 50 52 53 55 56 54 53 54 56 57 55 54 50 51 54 57 59 59 58 56 56 56 54 53 53 53 52 50 45 44
25 26 25 26 23 22 20 20 19 22 18 21 26 34 39 39 41 43 46 49 51 53 56 56 54 53 54 55 57 58 56 54 50 54 57 58 58 57 57 55 56 55 53 52 51 52 49 46 46
26 25 24 24 23 24 22 17 17 32 22 21 24 26 33 39 41 42 43 46 50 53 56 57 54 52 53 55 56 58 58 57 55 54 58 57 57 56 56 55 54 53 53 51 51 50 49 46 45
26 25 27 25 26 24 25 18 17 24 24 24 25 29 31 34 40 42 43 45 49 53 55 56 55 55 53 56 58 59 58 59 58 59 58 58 58 58 56 54 52 52 51 51 49 46 47 46 45
27 24 26 26 30 29 23 20 27 23 18 23 24 30 33 35 35 39 43 46 48 54 57 58 57 56 56 59 61 60 61 61 61 61 61 60 60 55 54 53 52 51 51 48 47 47 45 42 45
26 29 26 28 25 24 17 18 17 20 19 19 20 25 33 37 36 37 41 44 48 51 57 59 59 57 57 57 59 59 59 61 61 61 61 60 58 55 53 53 52 51 46 47 46 44 43 42 44
27 28 27 26 26 28 23 20 22 19 20 21 23 24 27 36 41 42 42 44 46 49 54 58 59 58 57 57 59 60 60 60 60 60 60 58 57 55 53 53 51 47 47 45 43 43 43 42 43
25 27 28 28 26 26 27 24 22 24 22 24 25 25 27 31 40 45 46 47 48 50 53 56 58 57 57 57 58 60 60 60 60 60 58 58 57 54 51 49 48 46 44 44 42 42 42 41 42

GFSSGP_sfc_dewp_054.txt.gz
Dewpoint
56 49 41 33 20 18 13 7 7 6 18 43 51 43 49 47 47 46 64 63 63 66 69 70 71 71 71 71 71 70 69 69 69 69 69 70 70 70 70 68 67 67 65 64 63 63 62 62 62
43 39 27 22 18 14 7 10 14 19 31 42 45 45 41 50 52 57 61 67 65 66 67 70 70 71 71 70 70 69 69 69 69 69 69 69 70 70 69 68 66 66 65 64 63 63 62 62 63
41 31 23 21 20 12 9 12 15 20 22 30 38 44 51 54 57 60 64 68 66 65 67 68 69 70 70 69 69 68 68 68 68 68 69 69 69 70 69 68 66 66 65 63 63 63 62 63 64
32 25 23 16 8 8 9 12 12 14 15 26 30 46 56 57 61 64 65 66 65 66 69 69 69 69 69 69 69 68 68 68 67 68 68 69 69 69 69 68 67 66 65 63 62 62 61 63 62
26 20 15 12 11 13 7 9 10 11 18 25 39 45 55 61 64 66 66 64 66 67 69 68 68 68 68 68 68 68 68 67 68 67 68 68 69 69 69 68 68 65 65 63 62 61 61 62 61
23 20 13 9 12 11 11 33 33 30 27 26 33 41 56 63 63 65 67 66 67 66 68 67 68 67 67 67 67 67 67 67 67 67 68 69 69 69 68 68 67 65 65 64 63 63 61 61 60
20 17 13 11 9 21 24 35 34 42 49 45 47 47 58 60 62 63 64 65 66 67 66 65 66 66 66 66 66 66 67 67 67 67 67 67 67 68 68 67 66 65 65 64 63 63 62 60 57
18 15 13 10 12 22 32 34 47 41 49 52 54 48 48 59 61 61 61 62 64 65 65 64 64 64 63 63 64 65 66 66 66 66 65 65 66 66 66 65 65 64 64 63 62 62 60 58 56
17 15 15 15 14 24 32 34 49 48 46 49 57 57 58 60 61 59 59 60 60 62 63 63 63 62 62 61 62 64 66 65 65 64 63 61 62 62 60 63 64 64 63 63 62 60 59 57 55
16 16 19 15 16 17 20 26 45 39 40 45 45 57 59 59 58 58 57 57 57 57 59 62 62 61 60 59 61 62 63 61 60 58 57 55 57 58 60 63 64 63 62 61 61 60 58 56 46
16 16 18 16 21 21 23 40 44 44 44 48 43 54 58 58 56 56 55 56 56 56 57 59 60 60 60 59 61 61 61 61 60 60 58 60 58 58 59 59 59 59 58 53 55 55 51 52 51
15 15 17 16 20 24 28 46 45 45 53 54 53 56 56 54 55 55 54 54 55 55 56 58 58 58 59 59 58 59 59 58 58 61 61 60 58 59 57 56 56 55 54 52 53 53 54 51 49
16 17 16 19 20 27 31 33 41 48 55 55 55 55 54 54 54 54 53 53 54 54 56 57 58 57 56 56 58 59 59 59 60 61 60 61 59 59 58 58 55 55 56 54 55 54 52 51 48
19 19 19 19 22 27 28 45 47 51 53 53 54 52 53 54 53 53 52 52 53 54 55 57 57 57 56 55 57 57 58 57 58 60 60 61 60 61 60 60 58 57 57 56 55 53 52 51 48
19 17 19 23 24 26 30 34 41 47 50 52 50 48 51 52 53 52 52 52 53 54 55 56 57 58 57 56 58 57 57 58 59 59 60 60 60 59 59 59 58 58 58 57 55 53 53 50 48
20 17 14 23 27 29 35 36 41 41 46 48 46 46 52 49 52 52 52 52 52 53 54 56 55 56 56 55 56 52 53 59 58 59 59 61 60 60 60 59 59 59 59 56 55 53 51 51 47
19 14 13 24 29 31 38 40 44 44 45 42 44 45 48 48 51 53 52 51 51 52 53 54 54 52 51 52 51 54 54 57 56 56 59 61 61 61 60 60 59 59 58 56 54 54 53 50 46
16 15 15 13 25 25 25 41 43 48 41 39 42 43 46 47 49 51 52 51 51 51 52 52 52 52 51 51 52 53 57 56 55 53 56 60 60 62 61 61 60 58 57 56 55 53 53 50 46
20 16 14 22 27 26 30 30 40 40 38 38 41 42 44 47 49 51 51 51 50 51 53 52 52 53 52 55 54 53 54 53 53 54 58 61 60 61 61 61 60 58 57 55 55 53 51 47 45
22 19 17 17 24 22 18 21 39 41 45 39 40 41 43 45 48 51 51 51 51 52 53 53 53 51 52 56 56 53 53 54 54 54 59 60 61 61 61 60 58 58 56 56 55 53 50 48 48
20 17 17 22 27 23 19 16 17 36 41 36 39 41 42 44 48 49 51 51 52 54 55 55 55 54 56 57 56 54 52 52 53 53 56 59 60 59 60 60 58 58 57 55 55 54 51 47 49
19 16 18 23 23 18 24 17 17 21 27 33 35 39 41 43 47 49 50 52 52 54 55 55 55 55 56 58 56 54 51 48 51 52 56 57 60 60 59 58 59 58 57 55 55 53 51 50 47
21 25 24 20 18 20 20 22 21 23 23 28 35 36 39 42 46 49 49 51 53 54 54 55 55 55 56 58 58 57 53 52 51 55 55 58 60 60 60 58 58 57 56 55 54 52 51 51 48
24 25 26 24 22 22 19 21 25 23 25 27 31 35 36 38 44 47 50 50 51 52 55 56 55 54 55 58 58 58 57 54 53 54 56 59 59 59 59 57 58 57 56 56 55 54 52 50 48
24 24 24 25 24 25 22 21 23 29 30 25 30 32 37 39 41 44 48 50 51 51 53 55 55 54 55 56 57 57 59 58 55 55 56 58 58 58 58 58 57 56 55 54 53 53 50 48 45
27 25 27 25 29 27 31 24 20 27 28 26 25 31 34 38 41 42 45 49 51 53 54 54 54 54 54 55 57 59 58 60 60 58 56 58 58 58 58 58 57 55 54 53 52 49 47 48 48
27 25 26 26 32 33 30 27 28 27 24 20 23 26 31 35 39 41 43 46 50 52 55 56 55 54 54 56 58 58 60 60 61 60 60 59 59 59 58 58 54 53 53 52 49 48 48 47 45
23 27 27 25 27 26 22 22 23 24 20 20 22 28 33 38 40 39 41 45 48 52 56 58 57 55 55 56 58 58 60 60 60 58 61 61 59 57 56 55 54 53 52 48 47 47 44 44 44
22 24 30 28 26 28 27 24 31 27 24 23 27 27 31 39 41 42 43 45 47 51 54 58 58 57 58 59 59 59 59 59 60 61 60 60 58 57 55 54 53 51 47 48 45 44 43 43 43
23 26 28 30 26 30 34 28 26 32 26 27 27 27 36 35 42 44 45 46 47 50 54 57 58 59 60 60 60 60 60 61 60 60 59 58 57 56 55 52 49 47 46 44 43 43 43 43 42

GFSSGP_sfc_dewp_057.txt.gz
Dewpoint
55 53 50 39 27 21 17 16 16 21 35 48 47 40 47 49 48 50 62 63 62 61 62 68 69 71 71 71 70 70 70 70 70 70 70 70 69 68 68 67 66 66 65 62 62 62 63 63 63
46 42 43 30 19 16 16 15 14 20 41 45 45 41 49 51 53 61 63 63 63 61 63 69 69 70 71 70 70 70 70 70 70 69 70 70 69 68 68 67 66 66 65 62 61 62 63 63 63
50 40 28 22 21 19 16 15 13 20 26 39 40 55 52 51 56 60 66 64 62 67 69 69 69 69 70 70 69 69 69 69 69 69 70 70 69 68 67 66 66 66 65 61 61 62 62 62 62
40 30 25 19 17 16 17 12 14 13 13 27 49 50 54 56 60 65 67 66 66 67 69 68 68 69 69 69 69 69 68 68 68 69 70 70 70 68 67 66 66 66 64 61 61 61 61 62 61
39 27 19 19 18 17 17 28 27 32 39 47 45 51 50 56 64 65 66 66 67 68 68 68 68 69 69 68 69 68 68 68 68 68 69 69 69 69 67 66 66 65 64 61 60 59 60 61 59
24 24 19 16 16 17 30 28 34 45 42 48 48 52 54 60 62 64 66 66 66 68 68 68 69 68 68 68 68 68 68 68 68 68 68 69 69 68 67 66 65 65 64 63 61 61 60 59 59
23 20 17 14 12 22 30 35 46 46 48 43 50 51 53 59 61 62 65 66 67 67 67 67 67 67 67 66 66 67 67 67 68 68 68 68 68 68 66 66 65 65 64 63 62 61 59 58 58
23 17 14 14 13 24 29 34 46 46 48 50 54 47 49 59 61 62 62 65 66 65 65 65 65 65 64 64 65 65 66 66 66 67 67 67 67 67 66 65 65 64 63 62 61 60 58 56 55
23 15 14 14 17 26 31 36 47 49 48 52 57 54 56 60 60 60 61 61 62 64 63 63 63 62 61 61 64 66 66 65 65 66 65 64 64 64 62 64 64 64 63 62 61 59 57 55 53
18 16 15 17 20 20 36 42 46 45 46 49 55 59 59 60 58 58 59 58 57 59 62 62 61 61 60 59 62 63 63 62 60 60 59 62 61 62 62 63 63 63 62 61 60 59 57 52 45
17 15 17 16 23 25 30 38 43 42 45 49 49 57 58 57 56 56 56 56 56 57 60 61 60 59 59 59 61 61 62 61 58 58 58 59 61 61 61 60 59 59 59 56 57 55 50 50 48
16 17 16 16 23 26 33 43 48 47 50 55 56 56 57 55 54 55 54 55 55 56 57 59 59 58 58 59 59 60 61 60 59 59 58 59 57 57 57 57 57 54 53 50 51 51 52 48 46
19 17 18 19 19 28 43 47 48 47 50 51 55 56 55 54 54 54 54 55 55 56 57 58 58 58 58 58 58 58 59 60 60 59 59 59 56 56 55 55 54 53 54 50 52 52 50 47 46
23 21 18 19 19 26 39 43 43 50 47 49 54 54 54 52 52 53 53 54 54 56 56 56 56 56 57 57 57 58 59 59 59 60 61 59 58 57 56 57 53 54 55 52 54 52 50 48 44
27 22 20 18 25 30 38 36 40 48 50 50 53 53 53 53 52 51 52 53 53 55 55 55 55 56 55 55 56 57 57 59 58 59 59 59 59 59 58 59 58 56 56 54 53 52 51 50 45
24 23 19 19 26 34 32 34 41 44 47 48 51 52 53 52 51 51 52 53 53 54 55 56 56 54 55 54 55 55 58 58 58 58 59 58 58 59 58 58 58 56 57 55 53 52 50 49 44
24 19 18 17 26 35 35 38 40 44 44 46 47 51 50 52 52 52 52 52 53 53 54 55 55 53 53 56 56 55 54 56 54 56 57 58 59 60 57 58 57 58 57 55 53 52 50 50 47
22 20 16 17 26 36 38 39 39 41 48 48 47 49 48 51 51 51 51 51 52 53 54 54 54 54 54 55 52 50 51 52 55 55 55 59 59 59 60 59 59 59 56 55 53 51 52 50 45
22 23 19 18 27 26 36 39 38 40 46 47 46 46 47 51 52 51 51 51 51 52 53 53 52 51 51 50 49 48 49 49 55 54 53 58 59 60 61 60 59 58 55 54 53 52 51 48 46
25 23 20 20 28 26 26 39 38 41 44 44 44 46 46 48 51 51 50 51 50 50 51 51 50 49 48 47 48 50 50 50 52 54 55 59 59 59 60 60 59 58 56 55 54 52 50 47 45
24 22 20 20 28 25 24 24 38 40 44 43 46 44 46 48 48 49 49 49 49 50 51 49 50 49 49 49 51 54 52 53 53 52 53 59 59 60 60 60 59 57 56 55 54 52 49 47 47
21 24 20 19 24 23 23 20 24 40 41 47 45 42 44 48 49 48 48 48 48 49 51 50 51 50 49 52 53 53 51 49 52 52 52 56 59 59 59 59 59 57 57 55 54 53 51 48 46
24 29 28 26 23 21 21 22 23 35 38 43 43 41 43 48 49 49 48 49 50 50 51 50 52 49 48 50 54 55 54 51 50 52 53 55 58 59 59 58 58 57 56 55 54 53 51 51 49
26 29 27 28 25 22 23 21 22 24 24 33 36 40 41 45 48 49 50 49 50 52 53 53 53 53 51 52 55 56 57 52 50 50 52 57 59 59 59 58 57 57 55 55 55 55 53 53 51
25 25 24 24 24 23 28 26 24 27 31 29 34 35 39 43 48 48 49 50 50 50 53 54 54 54 55 55 55 56 57 57 54 52 53 57 58 58 58 59 57 56 56 56 55 54 52 51 46
25 26 27 22 26 26 32 26 26 30 30 28 27 32 35 40 46 48 49 49 50 51 52 53 53 53 54 54 56 57 57 57 57 56 57 57 57 58 59 59 58 57 56 55 53 53 51 48 47
29 26 28 26 34 29 30 31 30 30 28 28 23 26 32 37 42 46 48 48 49 51 51 53 53 53 53 54 56 57 58 57 59 58 58 59 59 58 58 58 57 56 55 54 52 50 48 48 46
25 29 27 27 25 25 26 27 26 28 27 24 23 26 28 35 37 41 47 49 49 49 51 52 53 54 53 54 54 55 58 59 59 59 59 59 57 55 55 55 55 54 53 50 48 48 47 46 45
26 24 29 30 31 26 24 25 29 29 30 25 23 25 32 36 37 39 41 45 50 50 51 51 51 53 55 55 55 56 59 60 59 57 56 58 56 56 56 55 53 52 50 48 47 45 45 44 44
25 25 26 31 29 30 29 28 30 28 28 27 24 26 29 38 39 40 42 43 47 49 51 52 54 55 56 56 59 59 59 59 59 59 58 58 57 56 55 54 52 49 47 46 45 44 43 43 42

GFSSGP_sfc_dewp_060.txt.gz
Dewpoint
53 51 47 38 23 21 19 17 19 18 27 44 46 45 48 50 51 47 61 61 63 64 68 69 70 70 70 70 70 70 70 70 70 70 69 69 68 68 67 66 66 65 65 64 64 64 64 64 64
45 43 40 33 20 16 16 18 15 17 21 48 45 49 51 47 54 62 60 61 61 61 62 66 66 70 69 70 70 70 70 70 70 70 69 68 68 67 67 66 65 65 65 64 64 64 62 61 63
43 38 29 27 21 18 17 19 19 19 44 42 53 54 51 52 56 61 66 63 61 62 61 61 64 67 69 70 70 69 69 69 70 69 69 68 68 68 67 66 65 64 65 63 63 62 60 61 63
39 30 27 20 18 19 20 19 19 39 45 48 49 51 55 55 63 64 66 63 64 66 68 67 66 68 69 70 69 69 69 68 69 68 68 68 68 68 67 66 65 64 64 62 62 60 59 61 63
38 27 20 20 18 19 18 25 40 43 44 47 49 45 49 60 63 64 66 67 67 67 68 68 67 67 68 68 69 69 68 68 69 69 68 68 68 67 66 65 65 64 63 60 59 59 61 61 63
30 26 21 19 19 18 26 39 41 43 45 43 50 50 52 60 61 63 65 66 67 67 67 68 68 68 67 68 67 67 68 68 69 68 68 67 67 67 66 65 65 64 63 62 61 61 61 60 61
25 22 19 17 16 14 28 43 43 44 45 43 50 51 54 59 61 62 65 65 66 67 67 67 67 67 67 66 65 65 67 68 68 68 67 67 66 66 66 65 65 64 63 62 60 60 60 59 59
25 22 19 16 15 14 30 44 47 44 47 50 54 48 49 58 61 62 65 65 66 65 65 66 66 66 64 64 64 64 66 67 68 68 67 66 66 66 65 65 64 63 62 61 60 58 58 58 58
22 19 16 15 16 20 30 42 48 49 47 52 57 57 58 60 60 61 62 62 63 64 64 65 64 64 64 64 65 65 67 67 67 66 66 65 65 64 62 63 63 63 62 60 59 59 57 55 57
20 17 17 17 17 22 40 44 47 45 47 50 55 58 59 59 59 59 59 60 60 61 62 62 61 61 62 63 64 65 65 65 65 63 64 63 63 62 62 63 63 62 61 60 59 58 56 52 45
18 16 16 16 18 25 42 46 47 47 49 52 49 56 58 57 56 56 56 57 57 60 61 60 60 60 60 62 63 63 62 62 61 61 60 62 62 61 61 60 59 59 59 56 54 50 49 48 45
17 17 17 16 21 28 39 47 43 46 49 53 54 57 56 55 55 55 55 55 56 58 60 60 59 60 60 61 60 61 60 59 59 59 60 60 59 58 58 57 57 55 53 52 51 50 50 47 43
20 21 20 19 26 40 45 47 43 46 51 56 56 56 55 54 54 54 54 55 56 57 58 58 58 58 59 59 59 59 59 60 60 58 58 57 56 56 56 55 54 52 52 50 50 52 48 46 45
26 27 25 20 19 41 42 45 45 46 50 53 55 54 53 52 53 53 54 54 56 56 56 58 57 58 58 58 58 58 59 60 60 59 59 56 56 55 55 54 53 52 53 50 52 51 48 47 41
28 24 23 22 20 34 40 36 38 49 48 51 54 53 52 52 52 52 53 54 55 56 56 56 57 57 57 56 57 57 58 59 59 60 59 57 55 54 55 55 54 53 54 52 53 52 49 47 43
25 24 20 21 20 32 32 30 39 47 50 50 53 53 52 52 51 52 53 53 54 55 55 56 57 56 56 56 56 54 56 57 57 58 59 58 57 56 57 58 57 56 55 54 53 52 50 48 44
26 20 21 21 21 28 32 31 40 46 48 49 52 52 52 51 51 51 52 53 53 54 55 55 55 55 54 54 54 55 56 55 55 56 56 57 57 59 58 58 58 57 57 55 53 52 50 49 45
21 21 22 20 21 35 36 35 41 42 44 47 50 51 51 51 51 51 51 52 53 54 55 54 54 53 53 54 54 54 54 55 55 55 54 57 58 59 58 58 57 58 57 54 52 51 51 50 48
23 23 22 22 28 33 34 35 37 44 44 47 47 49 51 51 52 51 51 52 52 54 54 54 52 53 54 53 53 52 52 53 54 54 54 56 58 59 59 58 59 58 57 54 52 51 50 50 47
24 23 23 21 28 26 35 35 36 40 45 46 47 49 50 51 51 51 51 51 52 53 53 53 53 52 53 52 51 50 51 51 50 54 55 54 58 59 59 59 58 57 56 54 53 52 50 50 46
23 22 23 21 22 26 33 29 37 40 42 43 46 48 48 51 50 50 50 50 51 52 53 53 52 52 52 51 49 50 51 52 50 51 52 55 56 57 58 59 58 57 56 54 53 52 50 48 47
22 25 25 23 22 22 23 20 32 39 40 42 44 46 47 50 51 50 50 50 50 51 52 52 51 50 50 49 48 48 48 47 47 48 49 52 58 58 58 58 59 58 57 55 54 54 51 49 47
25 28 27 26 23 21 20 20 22 38 38 38 42 44 46 48 51 50 50 50 49 50 51 50 50 49 49 48 48 49 49 48 49 51 53 53 56 59 59 58 59 58 57 56 55 54 53 51 50
28 27 28 28 25 23 23 21 21 37 37 37 41 43 44 48 49 50 49 49 48 50 50 48 48 50 48 48 49 51 51 51 50 50 52 53 54 57 58 59 59 58 57 56 56 56 54 52 52
25 24 23 23 22 23 26 26 24 25 30 39 39 42 43 47 48 48 48 48 48 48 50 50 48 50 48 48 49 53 53 53 54 50 50 52 54 56 57 58 58 58 57 57 57 56 53 52 51
25 25 26 21 23 24 30 26 26 29 30 32 39 41 41 44 48 49 48 48 48 49 49 50 50 50 49 48 48 50 54 55 56 55 52 52 54 55 57 58 58 58 57 57 56 54 53 52 51
27 25 27 26 31 28 29 30 29 30 30 28 32 38 40 42 47 48 49 49 49 50 51 51 51 51 51 50 49 50 54 55 57 57 55 55 57 57 57 58 58 57 57 57 55 53 49 49 48
26 29 26 29 22 23 25 25 26 29 29 29 27 27 35 39 44 48 49 50 50 50 51 53 53 53 53 53 54 54 55 57 57 58 56 57 57 56 56 57 57 57 56 55 53 50 48 47 46
26 26 30 29 29 24 23 24 30 29 31 26 26 26 29 36 41 46 48 49 50 51 51 52 53 54 54 55 55 55 56 57 59 59 58 58 57 56 54 56 56 55 54 51 49 47 47 46 45
23 25 27 28 27 30 28 27 30 29 28 27 26 27 35 37 38 41 46 49 49 49 50 51 52 53 54 56 57 58 59 59 59 59 58 58 56 55 54 55 53 51 49 48 46 46 45 44 43

GFSSGP_sfc_dewp_063.txt.gz
Dewpoint
53 53 45 34 20 23 22 19 20 20 19 43 46 45 48 50 49 42 61 62 64 67 68 67 67 67 68 67 68 70 70 71 70 69 69 69 68 68 67 66 67 67 67 65 65 65 66 65 65
43 46 36 28 19 16 15 18 17 18 25 48 50 51 49 48 54 61 59 62 62 65 68 66 67 65 65 67 68 70 70 70 69 69 69 68 68 67 66 66 66 67 66 65 64 64 64 65 65
40 34 28 26 20 17 17 18 20 31 48 45 53 53 51 51 57 61 66 63 61 61 63 66 66 66 67 68 68 69 70 69 69 68 68 68 67 67 66 66 66 66 66 63 61 62 64 66 64
38 29 25 21 18 19 20 20 19 36 42 48 51 49 55 56 62 62 65 63 61 61 63 65 66 66 68 67 68 69 69 68 68 68 68 68 67 67 66 65 66 66 65 61 59 62 64 64 63
36 28 21 20 18 20 19 21 40 42 45 45 48 44 49 60 63 64 65 63 61 62 65 64 64 66 66 68 68 68 68 68 68 67 67 67 67 66 65 65 65 65 64 60 61 63 64 63 62
27 25 21 19 19 19 18 37 40 43 44 44 49 50 52 60 60 61 64 64 66 66 66 66 65 66 66 67 65 66 67 67 67 67 67 67 67 66 65 64 64 63 63 61 62 64 63 62 62
25 23 21 19 19 17 22 43 42 44 44 46 51 50 53 57 60 62 63 64 66 66 66 66 66 67 67 66 65 65 65 66 66 67 66 66 66 65 65 64 63 62 61 60 60 61 62 62 61
26 24 23 19 16 14 28 44 47 45 47 51 55 48 48 56 60 62 64 64 65 64 66 66 65 65 64 64 63 63 63 65 65 67 66 66 65 65 64 63 62 61 60 60 60 60 61 62 61
23 19 18 17 15 15 36 39 48 48 46 54 57 57 57 59 61 61 61 63 63 64 65 65 65 64 63 62 61 61 63 63 65 65 66 64 64 63 61 62 61 61 60 61 59 58 61 61 61
21 18 17 18 17 17 38 44 46 46 47 50 55 57 59 58 59 58 59 59 61 62 62 64 63 62 61 61 61 60 60 61 62 63 64 64 62 61 60 61 61 61 60 60 59 58 55 51 51
19 17 17 16 17 26 41 44 45 47 44 49 49 55 57 56 56 56 56 57 57 60 61 61 62 62 61 61 60 59 59 61 63 63 63 62 61 61 59 58 57 56 56 51 49 50 47 43 44
17 17 18 17 19 35 43 45 45 47 46 54 52 56 55 55 54 55 55 56 57 59 60 60 61 61 61 62 61 62 62 63 63 62 62 61 59 58 58 56 56 54 53 50 49 51 47 43 41
18 22 24 25 23 34 45 45 41 44 52 55 56 56 54 53 52 53 55 56 57 57 59 59 60 60 61 61 61 61 61 61 61 61 62 60 57 56 55 55 53 52 51 50 50 49 46 43 40
27 27 27 25 28 44 44 44 46 44 51 54 55 53 52 52 51 52 53 55 56 57 58 59 59 59 60 60 60 59 60 60 60 60 60 57 56 55 54 53 52 51 49 50 52 49 46 45 41
28 23 24 23 23 38 40 39 42 46 50 53 54 53 52 52 50 52 53 54 55 56 57 57 58 59 58 58 59 59 60 60 59 59 57 56 55 54 53 52 52 51 52 50 52 50 48 43 39
24 25 20 21 21 27 32 26 35 48 49 51 52 52 52 52 52 50 53 53 55 55 56 57 58 58 57 57 57 58 58 59 59 59 57 55 55 54 54 54 54 53 53 52 52 51 49 46 42
24 17 20 21 23 24 32 29 36 47 47 50 52 52 51 51 50 50 52 53 54 55 56 57 57 56 56 56 56 56 56 55 57 57 57 56 56 56 55 55 55 54 55 54 53 52 50 48 45
20 21 25 21 22 33 34 32 38 46 48 50 51 52 51 50 50 51 52 53 54 55 55 55 55 56 55 55 55 55 56 55 54 54 56 57 57 57 57 57 57 57 56 55 53 51 50 49 46
23 23 21 22 23 32 33 31 36 42 46 45 50 51 51 51 51 51 51 52 53 54 55 54 54 53 53 53 53 53 54 54 54 53 54 57 57 59 58 57 57 57 57 55 53 51 50 50 48
25 23 22 23 24 30 28 31 35 43 43 43 48 50 51 51 51 51 50 52 52 53 54 53 52 53 53 52 52 51 52 53 52 54 55 55 57 57 58 58 57 57 56 54 52 51 50 50 46
24 23 22 21 23 25 31 29 34 38 41 46 48 50 50 51 50 50 50 51 51 53 53 52 52 53 53 52 51 50 50 51 50 50 53 54 55 57 58 58 58 57 56 55 53 52 51 50 49
22 25 25 24 23 20 26 21 23 35 39 42 44 47 49 50 51 51 50 50 50 51 52 52 53 52 52 52 50 49 48 48 49 49 50 51 55 55 57 58 58 57 57 55 54 54 52 52 49
24 28 27 27 23 22 21 19 19 37 37 39 41 45 48 50 51 50 50 50 51 51 52 52 52 52 51 52 50 50 49 49 49 48 48 49 52 56 57 57 57 57 57 57 55 54 53 53 52
28 28 28 28 26 22 23 20 21 33 33 36 38 44 46 49 50 50 50 50 50 51 52 52 52 51 51 51 50 49 49 48 48 48 49 50 52 53 56 57 57 57 57 57 56 56 55 54 53
28 25 23 22 22 22 24 23 22 24 34 33 36 40 45 47 50 50 50 49 50 50 50 51 51 51 50 50 50 48 49 49 49 48 49 49 51 53 54 56 57 57 57 57 57 56 56 54 53
26 25 25 20 21 22 28 26 25 29 28 31 34 39 43 45 48 50 50 49 49 49 49 50 49 50 50 49 49 49 48 50 51 51 50 51 51 52 53 55 57 57 57 56 56 56 55 53 53
27 25 26 24 28 27 28 29 28 28 28 30 30 39 41 43 47 48 50 49 49 48 49 49 48 48 49 49 49 49 49 51 51 52 55 54 53 53 54 55 56 56 56 57 56 57 56 53 52
25 28 25 28 21 22 23 26 24 26 26 30 28 35 41 42 46 48 49 49 49 48 48 50 50 48 48 49 48 48 48 51 53 55 55 56 56 56 57 56 56 57 57 57 57 56 52 50 49
26 26 29 28 27 22 21 24 29 28 29 31 30 28 38 40 43 47 49 49 49 49 48 48 50 51 50 50 50 48 49 51 53 55 56 57 57 57 57 57 57 57 57 55 54 52 49 48 46
25 26 28 27 26 29 26 24 29 30 29 30 25 26 29 35 41 43 48 49 50 49 49 49 49 50 52 53 53 54 54 56 56 57 57 58 58 57 57 55 55 55 54 53 51 49 48 46 45

GFSSGP_sfc_dewp_066.txt.gz
Dewpoint
52 52 44 30 18 20 21 19 22 20 20 40 47 43 43 47 45 39 60 63 66 68 68 67 68 69 69 70 70 70 70 70 70 70 70 69 69 68 68 67 67 67 67 65 64 64 64 64 64
43 46 34 27 18 15 15 18 17 24 36 45 51 52 47 47 54 60 59 61 65 68 66 66 67 67 67 68 69 70 70 70 70 69 69 69 68 68 68 67 67 67 67 65 64 65 65 64 64
39 33 27 23 19 17 16 19 18 21 44 45 51 52 51 48 57 59 64 63 64 67 65 65 67 67 67 67 68 69 69 69 69 69 68 68 67 68 68 67 67 67 67 66 66 66 65 64 64
36 28 24 21 21 19 20 20 21 23 40 47 51 47 54 55 60 62 64 63 62 63 65 66 66 67 67 67 68 69 69 68 68 67 67 67 67 67 67 66 66 66 65 64 65 66 64 63 63
33 27 21 21 18 20 21 20 31 41 42 44 48 44 48 55 61 61 63 63 61 62 63 66 66 66 67 68 68 67 67 68 67 67 67 67 67 67 66 66 65 63 63 64 65 64 63 63 62
25 25 19 17 18 20 20 23 41 41 44 43 48 47 49 60 59 60 63 64 62 61 63 64 65 67 66 67 66 66 67 67 67 67 67 67 66 66 66 65 63 63 64 65 65 64 63 62 61
24 23 21 19 20 18 17 42 40 40 44 44 50 50 52 55 59 61 63 65 65 64 64 64 64 65 65 65 65 65 64 65 66 67 66 66 65 65 65 64 63 63 65 65 64 63 62 61 61
26 24 25 20 18 15 20 41 46 44 43 51 54 47 46 55 60 62 64 62 64 63 64 65 64 64 63 64 64 65 63 66 67 67 66 65 65 64 63 62 61 61 63 64 63 62 62 61 61
24 20 19 18 16 15 26 36 46 47 47 51 56 56 56 58 61 61 61 61 63 63 64 64 64 63 62 63 63 63 64 63 65 66 65 64 63 61 58 59 60 61 61 62 63 62 61 60 60
23 19 18 19 18 16 19 38 43 44 46 49 53 56 57 58 59 58 59 59 61 62 63 63 63 63 63 62 62 61 63 62 61 64 63 63 61 59 58 59 60 60 60 61 62 62 61 59 56
20 18 19 18 18 18 23 43 45 45 43 47 48 52 55 55 57 56 56 57 58 60 61 62 62 61 60 60 59 60 62 62 62 63 63 61 60 60 58 56 54 55 55 51 54 53 50 50 50
18 18 18 18 21 28 34 44 43 46 44 52 53 54 55 54 54 55 56 56 58 59 60 62 61 61 60 59 58 59 60 61 62 62 62 59 59 58 57 55 54 51 50 49 48 46 45 45 46
18 19 22 23 27 26 43 41 42 44 48 54 56 56 54 53 53 54 55 56 58 58 59 60 61 61 61 59 58 58 59 59 60 61 61 59 57 56 55 54 52 51 50 50 48 45 43 42 42
25 24 26 26 24 42 40 43 44 43 52 53 54 53 52 52 51 52 54 56 57 58 58 60 60 61 61 60 60 60 61 61 61 62 61 58 56 55 53 52 51 50 49 51 48 45 43 42 40
28 24 24 22 23 34 41 36 43 45 52 52 53 53 52 51 51 51 52 54 56 57 58 59 59 60 60 60 60 60 61 61 61 61 60 57 56 54 53 52 51 50 50 52 49 47 46 42 40
24 23 20 20 25 30 33 27 28 46 51 51 52 52 52 51 51 51 52 53 55 56 57 58 59 59 59 59 58 60 60 60 60 60 58 56 55 54 53 53 52 52 51 52 51 49 47 43 40
23 18 18 19 23 33 32 28 33 47 50 49 51 52 51 50 50 50 51 53 55 55 57 58 58 58 58 58 58 58 58 58 59 59 57 55 55 55 53 52 52 53 54 52 52 51 49 46 44
20 21 23 21 22 26 30 31 31 45 46 47 49 52 51 51 50 50 52 53 54 55 56 56 57 57 57 57 57 57 57 57 58 58 56 55 55 56 56 55 55 55 55 53 52 51 50 49 47
22 22 21 21 22 24 27 32 30 41 46 47 48 50 51 51 51 51 51 53 54 55 55 55 56 56 56 56 55 55 55 55 56 56 56 56 56 56 56 56 56 56 55 54 53 52 50 50 48
24 23 22 22 23 24 24 26 30 39 43 46 47 49 50 50 50 50 50 52 53 53 54 54 54 54 53 54 55 55 56 54 54 55 55 57 58 58 58 57 57 57 57 56 54 52 51 50 47
24 23 22 18 23 24 26 26 27 34 42 44 45 48 51 51 50 50 50 50 51 52 53 53 53 53 52 53 52 51 54 52 51 52 53 54 56 57 58 58 57 57 56 55 53 52 51 50 49
21 25 24 23 23 21 26 20 22 24 34 40 43 47 49 51 51 51 50 49 49 51 53 53 52 53 52 52 51 49 52 51 50 50 51 52 54 55 56 57 57 57 56 56 54 53 52 51 49
22 26 25 25 24 23 22 21 21 34 29 34 40 43 47 49 51 50 50 50 50 51 52 52 53 52 52 52 51 50 49 51 50 50 49 50 52 54 54 55 56 57 57 56 55 54 52 52 51
29 28 28 28 26 23 23 21 21 21 31 30 36 40 43 48 50 51 51 50 50 50 51 51 51 52 52 52 51 50 49 49 49 48 48 49 50 51 54 55 55 56 55 55 55 55 54 54 53
26 25 23 22 23 23 24 21 22 24 25 30 30 36 42 46 49 50 50 50 50 50 51 51 51 51 52 51 51 50 49 49 49 48 48 49 49 51 52 54 54 55 55 55 55 54 54 54 54
27 26 25 20 21 22 26 23 24 29 28 28 31 35 40 46 48 50 50 50 50 50 50 51 51 51 51 51 51 50 49 50 49 49 49 49 49 49 50 52 54 55 55 55 54 54 55 55 55
27 25 26 23 27 25 25 29 29 30 29 28 29 31 36 44 47 49 50 50 49 49 49 50 51 51 51 50 51 50 50 50 50 50 51 51 51 52 51 52 52 54 54 55 56 56 55 55 55
27 28 25 27 21 21 23 26 24 25 24 25 29 30 37 42 46 48 50 50 50 49 49 50 51 51 51 51 50 50 50 50 51 51 51 53 54 53 52 53 53 54 54 54 56 56 56 56 54
26 25 27 27 26 22 20 21 29 27 28 28 30 31 33 42 44 47 49 50 50 50 49 49 49 50 50 51 51 50 50 50 51 52 53 54 55 56 55 55 56 56 56 55 55 56 54 53 52
26 26 28 26 23 28 25 23 27 29 29 30 30 28 29 40 42 45 48 49 49 49 49 48 49 49 50 51 52 51 50 50 50 51 52 54 54 55 56 56 56 57 56 56 56 54 51 51 48

GFSSGP_sfc_dewp_069.txt.gz
Dewpoint
54 48 42 31 20 21 18 18 22 20 28 32 48 44 42 47 43 40 61 65 68 69 69 69 70 70 71 71 71 71 71 71 71 71 71 70 70 70 69 68 68 68 67 66 66 66 65 64 64
45 43 35 27 20 16 16 18 18 20 32 44 49 51 48 43 54 59 61 64 68 68 68 68 69 70 70 70 71 70 71 71 70 70 70 70 69 69 68 68 67 66 66 64 64 64 65 65 65
38 32 29 24 21 16 16 19 19 20 26 44 46 52 50 46 55 59 65 64 67 67 67 67 67 68 70 70 70 70 70 70 70 70 70 69 69 69 68 67 67 67 66 65 64 64 64 64 65
35 30 25 23 18 20 20 20 22 22 38 47 50 47 53 55 59 62 64 64 66 66 65 67 67 68 69 70 70 70 69 69 69 69 69 69 69 68 67 66 66 67 65 66 65 64 64 64 64
32 28 24 21 19 21 22 22 22 32 40 43 48 43 47 54 61 61 63 65 65 65 66 66 66 67 68 69 69 69 69 68 68 68 67 68 68 67 67 66 67 66 67 67 64 64 63 63 63
27 27 22 17 17 20 22 22 31 39 40 43 45 45 47 59 59 61 63 65 65 64 65 66 65 67 67 68 68 67 68 68 67 67 67 67 67 67 66 65 65 66 66 67 65 63 62 62 62
27 23 19 19 19 20 18 38 38 38 40 41 49 47 52 54 59 61 63 66 64 64 64 66 66 66 67 67 66 66 67 67 67 66 66 66 66 66 65 64 64 66 66 65 64 63 62 62 61
27 25 22 22 19 16 18 38 44 43 40 50 52 46 47 56 60 62 64 64 65 65 65 65 66 66 67 67 65 65 65 65 65 66 65 65 65 65 64 63 65 66 65 64 63 62 62 61 61
25 23 21 19 19 17 20 28 44 46 45 49 55 55 56 58 60 61 61 62 63 63 64 66 65 64 64 65 65 64 64 64 63 64 65 64 64 63 59 61 65 65 64 63 62 62 61 61 61
24 23 21 21 20 17 19 23 35 42 44 45 52 57 57 58 58 58 60 60 61 62 64 64 64 63 63 63 62 61 61 60 61 63 64 63 63 60 57 61 63 64 63 62 62 61 61 57 54
24 21 21 19 20 19 19 33 44 43 40 44 46 52 55 57 57 57 58 58 60 61 62 62 63 63 62 62 62 62 62 61 62 62 63 62 59 59 58 58 59 61 62 58 58 58 53 54 53
21 22 21 18 19 24 24 38 42 44 42 49 51 53 55 56 55 56 57 58 60 61 61 62 62 62 62 62 61 63 61 61 62 63 63 60 58 57 57 54 54 56 58 59 58 54 54 54 53
21 20 20 20 23 26 36 34 37 43 47 53 54 55 55 54 54 55 56 57 59 60 60 61 61 61 60 60 60 61 60 59 61 62 61 57 55 54 54 54 51 51 53 54 53 53 51 52 52
23 20 23 26 25 28 33 36 43 41 46 53 55 54 54 54 53 53 54 56 58 59 60 60 61 60 59 59 59 60 61 61 62 62 61 59 56 56 53 52 51 50 50 50 49 49 48 48 49
26 25 24 23 22 27 41 34 40 43 50 51 53 54 54 53 53 53 53 54 57 58 59 60 61 61 59 59 59 60 61 61 61 61 61 58 57 57 55 52 51 52 51 49 48 47 46 44 43
24 24 20 19 27 35 36 26 27 37 47 48 52 53 53 52 52 52 53 54 56 58 59 60 60 60 60 59 60 61 62 61 62 62 60 58 57 57 55 52 52 53 53 50 47 46 43 43 42
24 18 20 18 22 36 31 25 30 46 47 46 49 52 53 52 52 52 54 53 54 56 58 59 59 59 60 60 61 60 61 61 61 60 59 58 56 57 54 53 53 55 55 53 51 49 47 44 42
15 21 21 19 22 26 29 26 27 35 45 46 47 51 52 53 52 52 53 52 53 56 58 58 58 58 59 59 59 59 60 61 60 60 59 57 56 55 56 56 55 55 55 54 53 52 51 48 45
21 21 19 21 22 21 22 24 26 31 43 44 45 48 51 52 53 52 53 54 52 54 56 57 57 57 57 57 58 57 56 57 59 59 58 56 56 55 56 56 56 57 55 55 56 55 54 52 50
23 22 21 22 24 23 20 23 25 33 38 41 42 46 50 52 52 52 52 53 53 53 55 56 56 56 56 57 56 56 57 57 57 58 58 57 56 56 56 56 56 55 57 57 56 56 54 55 52
24 23 22 20 22 23 24 24 25 27 38 41 45 45 48 51 52 51 51 52 53 52 53 54 56 55 55 56 55 56 55 56 56 56 57 57 57 57 57 57 58 58 58 58 58 57 56 54 53
23 24 23 22 21 13 26 20 25 25 26 34 38 44 47 50 52 52 51 50 51 52 53 55 55 54 55 55 54 55 53 53 54 55 56 57 58 58 58 58 59 59 59 59 58 59 57 56 54
22 27 25 24 22 22 20 21 23 27 25 26 30 38 44 48 51 52 51 51 50 51 52 55 55 54 54 54 54 54 54 54 54 53 54 55 56 57 57 58 59 59 58 59 59 58 57 56 56
27 25 26 28 26 23 24 22 22 23 26 27 28 33 40 46 50 51 52 52 51 51 52 54 53 53 54 53 53 53 54 54 51 51 52 52 54 55 56 56 58 59 58 59 59 59 58 58 57
25 25 21 23 24 21 25 23 24 26 26 28 29 30 34 44 49 51 51 51 51 51 51 52 52 52 54 54 53 53 53 54 53 51 51 51 51 51 54 56 57 57 57 58 58 58 58 58 58
27 25 24 16 22 22 25 23 23 28 29 30 29 31 35 40 48 50 51 51 51 51 51 52 51 51 52 54 53 52 53 52 52 53 51 51 52 52 53 55 55 56 56 57 58 58 59 59 59
28 25 28 25 27 26 24 26 29 30 30 29 30 31 33 36 45 49 51 51 51 51 52 52 51 51 52 53 53 53 52 53 52 53 54 54 54 53 54 54 55 56 56 57 58 58 58 58 59
28 29 26 27 20 18 22 25 22 26 25 27 28 31 33 35 43 47 50 51 51 52 52 52 52 52 53 53 53 52 53 53 53 54 53 53 54 53 53 54 54 54 55 56 57 58 58 58 59
26 26 28 27 27 21 19 21 31 30 30 30 33 33 34 35 40 47 49 51 51 51 51 52 52 52 53 53 53 53 53 53 53 53 54 53 54 54 54 54 54 54 54 56 57 57 58 57 57
26 26 28 27 23 28 27 23 29 33 33 32 33 34 34 33 37 44 48 50 51 51 51 51 51 51 53 54 54 54 54 53 53 53 53 54 53 54 54 54 54 55 55 57 57 56 55 55 55

GFSSGP_sfc_dewp_075.txt.gz
Dewpoint
49 41 37 31 22 16 12 13 14 13 17 23 28 28 28 30 30 34 58 62 64 64 67 68 70 71 71 71 71 71 72 71 71 71 71 71 71 70 71 70 70 70 69 68 68 68 67 67 67
36 36 35 28 15 12 11 15 13 15 19 25 30 29 29 32 38 42 55 63 64 64 66 66 70 70 70 70 71 71 71 71 71 71 71 71 71 71 70 69 69 69 69 68 67 67 66 66 66
41 34 28 21 17 12 11 15 15 17 22 22 25 34 35 38 45 53 62 64 66 66 66 67 69 68 66 64 65 69 70 70 70 70 71 71 71 70 70 69 68 69 68 67 67 66 65 65 65
29 26 23 16 13 15 15 14 17 17 21 27 27 26 40 53 50 57 61 62 64 66 66 67 66 66 65 63 61 68 70 70 70 70 71 71 70 70 69 68 68 68 68 66 66 65 64 65 64
30 25 18 15 14 14 17 16 17 17 19 25 30 26 31 51 55 57 60 61 62 66 67 67 66 66 66 63 65 63 69 69 70 70 70 70 69 68 68 67 67 67 67 66 65 64 64 64 64
24 20 16 11 10 13 17 18 19 18 21 26 29 30 34 53 54 58 61 62 64 66 68 65 66 66 65 67 61 63 68 69 69 69 69 69 68 67 67 66 66 66 66 66 65 64 63 63 63
25 20 16 11 10 11 16 22 22 24 24 20 28 30 38 51 56 58 60 63 65 67 68 68 68 66 66 66 64 63 67 67 68 68 68 68 67 66 66 66 67 66 65 65 65 64 64 63 62
22 18 15 12 11 10 17 19 22 25 23 34 29 29 33 53 55 57 60 64 64 66 68 68 68 66 65 67 66 66 67 67 66 67 67 66 66 66 66 66 66 66 65 64 64 64 63 62 61
22 17 15 12 12 11 15 17 23 26 26 26 34 40 49 55 56 56 59 62 64 65 65 66 67 66 67 66 66 66 65 66 66 66 66 64 64 64 64 64 65 65 64 64 64 63 62 61 61
20 16 14 13 12 11 12 18 21 21 22 26 30 38 53 54 54 53 56 59 61 62 64 66 66 66 66 66 65 65 65 66 66 65 63 64 62 64 63 65 64 64 63 63 63 62 61 57 51
19 16 16 14 14 13 13 16 18 22 22 23 30 29 48 53 52 52 52 57 58 61 62 63 65 66 66 65 66 66 65 65 65 63 62 63 63 62 64 65 62 61 59 55 56 57 51 51 49
16 17 15 15 11 14 15 16 17 21 26 26 35 38 45 50 50 49 52 54 58 61 62 63 62 63 63 63 63 64 65 64 62 62 62 63 63 61 64 62 59 55 52 54 52 51 53 52 50
17 16 15 13 13 13 17 16 18 23 21 23 34 42 45 48 47 48 51 54 58 60 62 63 63 63 62 61 61 61 61 62 62 62 62 63 62 61 61 61 58 54 54 53 52 51 51 51 51
18 16 17 15 14 13 14 16 16 21 23 28 35 42 43 47 47 46 49 51 57 59 62 63 64 63 63 62 61 61 60 60 61 61 62 62 61 59 60 60 58 56 56 53 51 51 50 49 49
20 17 17 18 16 14 16 16 15 19 18 26 31 42 43 46 47 46 48 50 53 58 61 63 63 64 62 62 62 61 59 60 61 61 61 61 59 59 60 59 57 56 57 57 54 51 49 47 47
21 22 19 18 17 16 15 16 18 21 29 32 36 42 44 46 48 47 50 50 52 56 59 61 62 62 62 62 61 60 59 59 61 61 61 59 58 58 59 56 57 57 58 54 50 48 47 46 46
24 18 19 18 17 16 18 20 19 28 30 30 35 40 44 46 48 48 51 50 51 55 58 60 61 61 60 61 61 61 60 60 60 61 60 59 57 57 56 54 54 58 55 54 51 50 48 46 46
20 19 19 19 17 17 18 22 20 23 28 31 32 37 42 45 47 49 51 50 51 54 58 60 61 60 60 60 61 60 60 60 60 60 59 57 56 57 55 53 56 55 52 51 50 52 49 48 46
23 20 18 18 17 17 19 17 16 19 21 28 29 34 39 44 46 49 53 52 52 54 56 58 59 60 60 59 59 59 58 59 60 60 58 58 54 55 55 53 56 55 52 52 55 52 53 50 50
24 22 21 19 17 19 17 15 15 15 18 22 25 30 35 41 45 49 52 53 53 54 55 58 59 59 59 58 59 59 58 59 59 60 58 56 57 54 54 55 55 56 53 56 57 57 54 53 54
26 25 24 20 19 18 19 17 16 16 17 19 22 26 29 37 44 48 52 54 54 53 55 56 58 59 58 59 59 59 59 59 59 59 59 58 57 55 53 54 57 58 57 57 58 58 57 56 55
25 24 22 21 20 17 19 14 17 16 15 20 25 28 30 34 40 47 51 52 54 53 55 56 57 59 59 59 58 58 56 56 57 57 58 58 58 57 53 55 57 59 58 57 59 59 58 58 56
24 24 23 21 22 23 20 16 17 18 15 18 23 24 27 34 39 46 50 51 53 53 54 55 56 57 58 59 59 57 56 56 58 58 57 56 57 57 56 56 57 57 57 58 59 59 58 58 57
23 22 23 22 23 21 21 20 19 16 20 23 21 22 24 30 38 44 49 51 52 53 54 55 56 56 57 57 58 58 58 57 56 57 57 55 57 57 57 55 56 57 57 56 58 59 59 59 59
22 23 22 22 22 22 21 20 21 20 22 23 23 24 24 30 38 43 47 50 51 53 54 54 54 54 56 57 58 58 57 57 55 57 56 56 55 56 56 56 55 54 54 56 56 58 59 57 56
23 24 23 21 24 22 22 18 18 21 22 24 25 25 26 31 37 40 45 50 51 53 53 53 52 52 54 56 57 57 57 56 56 56 55 56 55 55 57 56 55 53 54 56 56 56 57 57 58
25 22 22 22 28 27 24 23 23 24 24 24 25 27 27 29 32 39 43 48 51 53 54 54 51 51 52 55 57 57 57 57 57 57 58 57 56 55 57 57 55 55 54 55 57 55 55 56 56
24 26 22 23 23 22 21 21 25 24 24 24 24 27 28 28 31 35 42 47 50 52 54 55 53 51 51 53 55 55 56 57 58 58 58 57 58 57 57 57 56 55 55 55 57 56 55 55 56
23 23 26 25 24 24 24 24 25 25 25 25 28 29 29 31 33 36 42 45 49 51 53 54 53 51 51 54 55 55 56 56 58 58 58 58 58 58 57 57 56 55 55 55 56 55 56 55 56
24 22 26 26 25 26 26 25 25 28 30 30 30 30 30 31 31 33 38 43 47 50 52 53 54 52 52 55 56 57 57 55 57 57 58 59 58 58 57 56 56 55 55 56 56 55 54 55 54

GFSSGP_sfc_dewp_078.txt.gz
Dewpoint
51 39 37 35 25 21 15 12 14 13 14 22 25 25 25 25 26 35 60 62 63 67 69 68 71 71 72 72 72 72 72 72 71 71 71 71 71 71 70 70 70 70 70 69 68 68 68 68 69
35 32 35 30 25 16 12 14 14 14 18 22 23 25 24 29 43 42 58 63 64 63 68 68 69 70 71 71 67 70 70 71 71 71 71 71 71 71 70 70 69 69 70 68 68 68 67 67 68
41 37 30 27 23 17 14 12 15 15 19 20 19 22 29 36 48 51 61 63 65 65 67 68 69 67 68 64 64 64 66 71 71 71 71 71 71 71 70 69 69 69 69 68 68 67 66 66 66
34 29 25 19 15 14 14 16 16 16 16 22 25 25 39 45 45 54 58 60 63 66 67 68 67 67 66 64 65 65 65 66 70 70 71 71 71 70 70 69 68 68 69 68 67 66 65 65 65
28 25 21 19 16 14 14 16 15 14 16 19 26 26 31 51 53 56 58 60 63 66 69 66 66 66 65 65 65 64 64 63 68 70 70 70 70 70 69 68 67 68 68 67 65 65 65 64 64
24 24 19 14 13 10 15 17 17 16 17 19 23 27 36 53 52 59 62 62 66 67 69 69 66 66 67 65 65 63 63 63 66 69 69 70 69 68 68 67 67 67 67 66 65 64 64 64 64
24 21 17 16 14 13 11 19 20 20 22 21 26 28 36 52 55 57 60 65 67 68 68 69 67 66 66 66 65 63 63 63 66 68 69 68 67 67 67 67 67 67 66 65 65 64 64 63 62
22 21 18 15 12 12 13 20 21 21 22 27 24 23 34 54 55 58 62 65 65 66 68 69 69 68 66 67 64 64 64 63 65 67 67 66 66 66 66 66 66 66 66 65 64 64 63 62 61
22 19 16 14 13 13 14 17 19 21 22 23 23 30 41 54 55 56 60 63 64 65 66 67 68 68 67 68 67 65 65 62 66 66 66 65 65 65 65 64 65 65 65 64 64 63 62 61 59
20 19 16 13 14 12 12 12 17 18 19 21 25 31 52 53 52 53 57 59 61 62 65 66 66 67 66 66 66 65 65 65 65 66 65 65 64 64 64 64 64 64 64 63 63 62 61 57 54
19 18 18 14 15 13 12 11 15 16 19 22 24 35 50 52 51 50 50 58 59 62 64 66 66 66 66 65 66 64 65 65 65 65 64 63 63 63 64 63 62 62 62 60 60 58 53 51 52
16 15 17 16 16 14 12 14 14 15 24 25 27 32 38 39 48 48 49 53 58 61 62 63 64 64 64 64 65 65 65 65 63 63 62 62 62 63 63 62 59 57 56 56 56 54 53 51 51
16 14 14 14 16 14 14 13 15 21 19 21 21 30 39 40 44 47 48 53 60 60 62 63 64 63 62 61 61 64 63 64 62 62 62 61 62 61 61 61 54 53 53 53 52 52 52 53 51
17 15 14 15 15 16 14 13 14 18 18 18 21 32 38 40 44 46 49 51 58 60 62 64 64 64 62 61 60 60 61 62 61 61 62 62 62 62 61 60 53 54 53 52 51 54 53 52 52
20 18 17 16 16 17 16 14 13 19 18 17 18 28 38 41 45 46 48 50 57 59 62 63 64 63 62 61 61 60 60 60 61 61 62 62 62 61 60 59 55 55 53 52 55 53 53 52 51
20 21 19 18 17 17 17 17 16 17 18 16 22 27 39 41 45 46 47 50 55 57 60 62 63 63 62 62 61 60 60 60 60 61 61 61 61 60 59 58 57 57 55 54 54 53 51 51 51
24 20 21 19 19 18 17 16 16 19 23 26 28 32 39 42 45 47 48 51 51 56 58 61 62 61 62 62 60 60 59 60 60 60 59 58 59 58 58 59 59 61 55 57 52 53 51 51 50
20 20 21 20 19 19 16 16 18 22 26 28 27 33 39 42 44 47 48 51 50 56 59 59 61 60 60 61 60 59 59 60 60 60 59 59 59 58 58 59 60 59 58 56 53 52 52 50 50
23 22 21 22 20 19 21 17 17 20 22 27 30 31 36 42 44 48 51 53 53 57 59 59 59 59 60 59 59 58 58 58 59 60 59 59 57 57 57 55 57 56 55 52 53 54 51 51 51
18 19 22 24 22 19 17 16 17 18 20 21 23 30 32 38 43 48 51 53 53 55 57 59 59 59 59 59 59 58 58 58 58 59 57 57 57 55 55 55 54 54 53 53 55 54 53 53 53
21 23 25 23 23 22 19 18 19 19 19 18 20 21 27 36 41 47 51 54 54 55 56 57 58 59 59 59 59 58 59 58 58 58 57 57 57 55 54 56 55 55 54 55 55 56 54 53 53
27 27 26 24 24 23 22 16 19 19 19 20 20 24 26 29 39 46 50 53 54 54 56 56 58 57 59 59 58 58 56 56 56 57 57 56 57 57 53 56 57 57 57 56 56 57 57 57 55
34 32 31 31 25 25 21 18 19 19 17 19 21 24 30 32 36 44 50 52 54 55 56 56 57 56 58 58 58 58 57 56 56 58 58 57 57 57 57 55 58 57 58 58 58 58 58 58 57
33 31 32 30 26 23 22 21 21 20 21 19 21 26 28 31 35 41 49 52 53 55 55 56 56 57 57 58 59 57 57 56 55 57 57 56 56 56 57 56 57 58 58 58 59 59 59 58 56
31 27 29 26 24 23 21 21 23 23 23 23 26 30 29 32 36 40 47 50 52 54 55 55 56 55 58 59 58 58 57 57 57 56 56 55 55 55 55 56 56 56 56 56 57 57 57 57 55
28 26 31 24 25 23 22 20 20 24 24 23 24 32 30 32 40 41 45 50 52 54 54 54 55 54 57 57 58 58 57 57 57 57 56 55 53 55 54 55 55 55 54 54 55 55 56 56 56
32 29 32 31 30 33 29 22 22 22 22 23 24 28 29 32 35 38 42 50 52 54 55 54 53 53 55 56 57 57 58 58 56 57 57 57 55 53 53 54 55 55 53 53 53 54 55 55 55
32 30 27 29 25 27 27 28 21 25 25 25 26 29 32 32 36 39 41 50 51 54 55 55 53 53 54 56 56 55 56 57 57 57 56 56 56 55 52 53 55 55 53 53 53 52 53 54 55
28 28 32 32 30 27 27 26 33 31 28 31 33 33 35 36 37 38 42 47 51 53 54 55 54 52 53 56 57 56 57 57 56 56 57 56 57 56 55 55 54 54 54 53 52 52 53 53 53
28 27 28 30 32 30 31 30 34 33 32 32 33 31 33 35 35 37 41 45 48 51 53 55 55 53 52 54 56 57 57 57 57 57 57 57 57 57 55 55 55 55 54 53 53 52 52 53 53

GFSSGP_sfc_dewp_081.txt.gz
Dewpoint
55 48 40 37 30 24 19 18 16 15 23 26 27 26 28 28 41 45 61 63 69 69 70 71 71 72 72 72 71 72 72 71 72 72 71 71 71 71 70 70 70 70 70 69 69 68 68 69 69
43 37 34 34 26 23 23 17 15 20 23 23 25 26 26 39 49 60 61 64 65 68 68 69 70 72 72 71 71 71 72 71 72 71 71 71 71 71 70 70 70 70 70 69 68 68 68 69 68
44 38 33 29 26 23 20 16 16 20 22 20 22 23 33 47 52 59 62 65 66 67 68 68 70 71 69 68 68 69 70 69 71 71 71 71 71 71 71 70 69 69 69 69 68 67 68 68 67
35 35 28 21 19 20 20 17 17 16 20 24 24 26 48 50 52 60 61 64 64 66 68 68 68 68 67 66 67 67 66 65 64 67 71 71 71 71 70 69 69 69 69 68 67 67 67 67 67
30 28 22 23 20 20 19 16 15 15 18 25 28 27 45 54 57 59 61 61 62 66 67 66 67 67 67 66 67 66 66 65 64 63 68 70 70 70 70 68 68 68 68 68 66 67 66 66 65
26 24 21 19 19 18 17 17 17 18 20 24 23 29 48 55 58 61 61 62 63 66 66 66 67 67 66 66 66 66 66 64 64 64 63 68 69 69 68 68 67 68 67 66 66 65 65 65 64
27 25 21 20 19 17 15 20 21 23 25 25 26 28 51 55 59 60 62 64 65 66 66 65 65 66 66 65 65 64 64 64 62 61 64 68 68 68 68 67 68 67 66 66 65 65 64 64 62
28 24 20 19 18 16 17 23 23 23 25 28 24 25 50 54 57 61 63 62 63 65 64 66 66 65 65 64 64 64 63 63 62 61 63 67 67 67 67 67 66 66 66 65 65 64 64 63 61
26 21 19 18 17 16 16 20 26 24 23 30 25 28 48 56 58 59 61 60 62 64 64 64 66 66 64 64 64 64 64 63 63 63 64 66 66 66 65 65 65 65 65 64 64 64 62 61 59
23 19 19 20 19 16 16 16 23 22 25 25 25 52 55 55 54 55 59 60 61 61 62 64 64 64 65 66 64 64 64 62 62 63 66 66 65 64 64 65 65 65 64 64 63 62 61 57 53
23 20 19 20 19 19 17 13 17 17 19 22 30 51 53 53 52 52 54 58 59 61 64 64 64 64 64 64 64 64 64 63 62 64 65 65 64 64 64 63 63 62 63 61 59 57 54 52 52
22 20 19 18 18 18 15 15 15 17 23 27 27 44 52 52 50 50 52 57 59 60 62 64 64 63 64 63 63 62 64 63 63 64 64 63 63 63 63 62 61 61 59 57 56 53 52 50 51
22 20 18 17 16 16 16 16 15 21 20 20 21 32 37 39 47 47 49 57 60 60 61 62 63 62 61 60 60 62 63 64 63 63 63 62 62 62 62 61 59 57 57 55 53 53 50 50 50
24 22 20 16 15 15 16 16 17 18 21 17 16 19 38 39 42 45 53 58 59 60 61 62 62 61 60 60 60 62 62 63 63 62 61 61 62 63 61 57 54 54 54 51 52 53 51 50 51
25 21 20 20 19 18 18 17 16 20 18 19 17 20 38 40 43 46 48 58 58 60 61 61 61 61 59 59 60 60 62 62 62 62 61 61 62 62 59 53 53 52 53 49 51 53 53 52 52
25 24 19 20 19 19 17 16 18 18 16 16 17 18 35 39 44 45 48 54 58 61 61 62 63 61 60 59 59 60 61 61 61 61 61 61 62 61 59 52 54 52 54 50 53 53 51 51 51
26 22 22 21 22 20 18 16 17 18 18 22 21 24 37 40 45 45 48 57 57 59 60 61 61 61 61 60 59 59 60 60 61 61 61 60 61 61 60 55 56 55 55 52 53 52 50 50 50
23 22 21 21 22 22 19 17 18 19 23 24 26 28 39 41 45 46 49 52 57 58 59 60 60 61 61 60 59 59 59 60 60 60 60 60 59 59 59 59 60 58 57 55 52 50 51 50 50
24 23 22 22 23 24 23 19 17 17 21 24 27 28 37 41 44 46 49 50 56 58 59 59 59 60 60 59 58 57 58 59 59 58 58 58 58 58 57 59 59 59 57 53 51 51 50 48 49
18 18 19 20 22 21 22 23 19 19 21 21 29 29 34 41 44 47 50 50 56 57 58 57 58 59 60 59 58 58 58 58 58 58 56 58 57 56 55 57 58 56 54 53 52 51 52 49 51
22 21 21 22 20 23 26 25 22 20 21 21 22 29 30 41 44 47 49 50 56 57 58 58 57 59 59 59 59 58 58 58 58 58 57 57 57 56 55 55 56 54 54 52 52 52 51 51 52
22 26 30 33 36 33 35 26 27 20 19 20 20 20 22 36 44 48 50 50 53 56 58 58 58 58 58 59 58 57 57 56 57 57 55 56 57 56 54 55 54 54 54 52 53 53 51 54 51
27 34 34 37 38 36 34 29 26 23 21 20 21 20 22 27 44 48 51 50 52 54 55 57 58 58 58 58 58 57 57 56 56 57 55 55 56 56 54 55 56 54 56 56 55 55 56 56 53
38 38 36 37 38 33 34 29 24 22 21 23 23 21 22 26 43 49 51 52 52 54 54 56 57 57 58 58 58 57 57 56 56 56 56 55 56 55 55 55 56 55 57 57 56 57 57 57 55
37 37 32 30 31 29 29 27 25 25 24 25 26 24 25 29 41 48 51 52 52 54 53 56 55 55 58 57 58 58 57 56 55 56 55 55 55 54 55 56 57 56 57 58 58 58 57 57 56
34 35 32 25 27 29 25 22 21 24 24 24 25 24 25 32 40 48 50 51 53 53 54 54 55 56 55 57 57 57 57 57 56 56 56 55 55 54 52 55 56 56 57 57 57 57 57 56 56
29 30 34 32 35 32 34 28 23 24 23 24 24 24 30 37 39 48 49 50 52 53 54 55 54 55 56 56 56 57 57 57 56 56 56 56 55 55 55 53 55 56 55 55 55 55 55 55 55
27 32 31 34 27 27 27 31 31 26 25 26 26 28 30 33 36 40 49 50 52 53 53 53 55 54 56 57 57 57 57 57 57 57 56 56 55 54 55 54 54 55 55 54 54 53 53 54 55
29 29 36 37 33 32 30 34 40 41 33 32 32 31 33 34 34 36 42 50 51 53 53 53 53 54 54 56 56 56 57 57 58 57 57 57 57 55 53 53 53 54 54 53 52 52 51 53 53
31 33 34 33 33 32 34 34 45 46 41 33 29 30 33 32 33 34 38 50 51 53 53 53 52 52 53 55 56 55 55 55 56 57 57 57 57 57 55 53 52 52 53 54 52 52 51 51 52

GFSSGP_sfc_dewp_084.txt.gz
Dewpoint
56 46 38 37 30 24 21 19 18 16 25 26 26 24 25 31 37 33 60 67 68 69 71 71 71 72 72 72 72 72 72 72 72 71 71 71 71 71 71 70 71 71 71 70 69 69 69 69 70
44 39 35 33 26 22 22 23 19 21 25 25 26 26 26 47 58 60 61 68 68 69 70 71 71 71 72 71 71 72 72 72 72 71 71 71 71 71 70 70 70 70 70 69 69 69 68 70 69
40 38 33 30 26 23 23 20 17 20 22 20 21 25 38 47 60 61 62 67 69 67 68 70 71 71 71 71 71 71 71 71 71 71 70 70 71 71 71 70 70 70 69 67 68 68 69 68 67
34 35 31 22 23 25 24 24 21 18 21 24 23 39 47 51 59 61 64 66 67 67 67 69 69 70 71 70 71 70 68 67 65 64 63 67 68 71 71 70 69 69 69 69 69 69 68 68 66
30 28 24 22 21 21 21 21 20 16 20 24 27 27 48 57 60 61 63 64 66 67 67 68 68 68 69 69 69 68 67 67 66 64 63 66 67 69 70 69 69 69 68 68 68 68 68 67 66
25 24 20 20 20 21 21 19 18 16 21 27 26 36 50 57 59 61 63 64 66 66 66 67 68 67 67 68 68 68 67 67 65 64 63 67 66 68 68 69 67 68 67 67 68 67 66 65 64
26 25 20 20 20 21 21 21 19 22 24 23 26 38 52 55 60 61 63 65 66 66 65 65 66 67 67 66 66 66 66 66 65 65 65 66 66 66 67 67 67 67 67 67 67 66 64 64 62
27 26 25 21 20 19 21 18 23 23 25 28 24 44 50 55 60 63 63 63 64 64 64 64 65 66 64 64 65 65 65 64 64 65 65 66 66 66 66 66 67 66 66 66 66 65 64 63 62
27 24 22 21 19 19 20 16 22 24 23 29 26 34 47 57 62 61 60 60 62 63 63 65 65 65 64 63 64 64 64 64 63 64 64 64 62 65 64 66 66 66 65 65 65 64 63 61 62
27 22 23 22 21 20 20 21 19 21 23 23 36 55 56 58 60 60 59 59 60 61 62 63 65 65 64 64 63 63 63 63 62 62 62 63 65 65 66 65 65 65 65 64 64 62 61 57 55
25 25 24 22 21 21 20 20 17 17 19 23 29 53 55 56 56 58 59 59 60 61 62 63 64 64 64 64 63 63 62 62 61 62 63 65 65 65 64 64 63 63 63 61 60 59 53 52 52
26 25 24 23 22 20 19 19 16 16 20 24 36 53 53 53 53 54 56 59 59 60 62 63 63 62 62 64 64 63 62 61 61 64 64 65 64 64 63 62 62 61 59 58 57 54 51 51 52
27 27 27 24 21 19 19 18 17 20 21 22 24 52 52 51 51 51 53 58 60 60 61 62 62 62 62 62 62 63 63 62 63 63 64 64 63 63 62 62 60 59 58 56 53 51 50 50 52
26 26 25 23 21 19 17 16 16 19 21 17 17 37 48 50 50 48 55 58 59 61 61 61 60 60 60 59 60 62 63 62 63 64 63 63 63 62 61 60 58 58 56 54 52 51 49 49 51
28 25 24 23 21 20 19 17 16 21 20 17 16 15 32 40 44 49 55 59 60 61 61 60 59 59 58 58 59 62 63 63 63 63 63 63 62 61 59 57 56 56 53 51 52 51 51 49 51
27 26 22 23 23 21 18 18 19 19 19 18 17 17 26 39 41 49 57 59 60 61 60 60 60 58 58 58 60 60 62 63 62 62 62 62 62 61 56 54 54 54 51 51 52 51 51 51 51
27 23 23 23 24 23 19 19 20 20 18 18 18 18 22 38 42 48 56 58 60 61 61 61 60 58 58 58 60 60 61 61 62 62 61 62 62 60 55 52 54 54 49 52 53 52 51 51 51
25 24 23 22 23 23 22 22 22 22 20 19 19 21 29 38 43 47 55 58 60 60 61 61 61 60 59 58 58 59 60 60 61 61 61 61 61 60 56 54 56 55 49 52 53 51 51 51 51
26 25 24 23 23 26 24 22 21 22 24 20 23 25 32 39 44 48 55 58 59 60 59 60 60 61 59 58 57 57 57 59 60 60 60 61 60 60 58 56 57 56 51 51 52 51 50 50 51
22 20 18 19 22 32 33 28 26 30 26 20 24 26 30 40 45 48 54 57 58 58 58 58 60 60 59 58 58 58 58 58 58 59 60 60 59 59 59 56 57 55 56 53 52 50 50 49 49
15 19 20 21 31 32 32 28 26 30 32 26 23 27 28 39 44 48 52 56 57 57 58 57 58 60 59 59 58 57 58 58 58 57 57 58 58 57 59 57 57 58 56 53 51 50 49 48 50
23 24 27 30 35 30 37 30 31 33 33 31 23 24 29 36 44 47 49 55 56 57 57 57 57 58 59 59 58 57 56 54 55 57 57 57 58 56 55 57 56 57 56 54 52 50 49 51 49
28 38 36 36 35 35 33 35 31 33 31 30 27 22 23 34 44 47 49 53 56 57 57 56 56 56 57 59 58 57 56 57 57 56 54 56 57 56 55 55 55 55 57 55 53 52 53 52 51
38 37 37 37 35 28 28 34 30 31 30 28 25 24 23 26 44 47 48 52 55 57 57 57 56 55 56 58 58 57 56 56 57 56 55 55 56 56 55 55 55 54 57 57 55 55 54 55 52
37 34 29 29 29 24 28 32 30 31 30 28 27 26 27 29 44 48 49 51 54 56 56 57 57 56 56 58 58 57 57 55 56 56 55 53 54 54 55 55 55 55 55 55 55 56 55 55 54
35 35 30 25 25 27 28 26 28 32 32 30 27 26 26 33 46 48 50 50 53 54 55 56 56 56 57 57 57 57 57 56 56 56 55 54 53 54 54 55 56 56 55 56 56 56 56 56 55
34 32 34 33 35 30 30 32 29 40 39 34 25 24 29 37 46 49 51 51 52 53 54 55 55 55 56 56 57 58 57 57 56 56 56 55 54 53 53 54 56 56 57 57 57 56 56 57 56
30 36 34 35 26 26 27 31 37 40 40 37 32 32 34 40 46 50 51 52 52 53 54 55 55 54 55 56 57 57 57 57 56 56 56 56 55 54 53 53 55 56 56 56 56 56 56 56 56
28 33 36 36 33 28 29 34 42 43 42 40 38 33 35 36 38 46 50 52 53 53 53 54 55 55 55 55 55 56 56 57 57 56 56 56 56 55 54 54 53 54 55 55 55 55 55 55 55
28 31 35 33 32 33 34 32 45 44 44 43 38 37 38 39 40 43 49 51 53 53 53 54 54 54 56 56 55 55 56 56 57 57 57 57 56 56 55 54 54 53 53 54 54 53 53 53 53

GFSSGP_sfc_dewp_087.txt.gz
Dewpoint
56 44 37 37 29 25 23 20 19 18 24 25 27 25 24 29 31 22 56 66 68 69 70 70 71 72 72 71 71 72 72 72 72 72 72 72 72 72 71 71 71 71 70 70 71 71 70 69 70
44 38 35 32 27 21 18 24 21 21 21 27 28 32 36 45 58 60 62 67 68 69 70 70 71 71 72 72 72 72 72 71 72 71 71 70 70 70 70 70 71 70 70 70 70 70 69 69 69
40 38 33 30 26 22 19 23 22 23 22 23 23 30 38 46 60 61 62 68 68 68 70 70 70 71 71 72 71 71 71 71 71 71 70 70 70 69 70 70 70 70 70 67 69 70 69 69 68
33 34 31 25 24 26 24 24 26 19 20 22 24 39 48 55 60 61 65 69 67 67 68 70 70 70 71 71 71 71 71 69 68 68 68 68 67 68 69 69 69 69 69 69 70 69 69 67 67
29 29 26 23 22 22 24 24 22 20 19 21 25 36 48 57 61 63 65 67 67 66 67 68 69 70 71 71 70 70 68 66 65 66 66 65 66 66 66 67 68 68 68 69 69 68 67 67 66
24 25 21 20 19 21 22 22 21 21 21 26 28 46 49 58 60 62 64 65 67 66 66 68 69 69 69 70 70 68 67 66 65 65 65 64 65 66 66 67 67 68 67 68 68 68 66 65 65
23 22 20 19 19 21 22 22 20 23 23 24 30 47 52 57 60 62 65 65 65 65 65 67 67 68 68 68 67 66 67 66 66 65 65 66 65 66 66 66 66 67 67 67 67 67 65 65 64
27 26 27 23 21 19 21 19 21 23 22 28 45 49 50 55 60 63 64 64 64 64 63 64 65 66 66 65 66 66 65 66 66 66 65 66 66 65 66 65 65 66 67 67 66 65 63 64 63
27 24 23 23 21 21 21 19 23 24 23 26 30 50 49 58 62 61 60 60 61 63 63 63 65 65 65 63 64 65 65 65 65 65 66 64 63 65 64 65 63 65 66 66 65 63 62 63 62
28 24 24 24 22 21 22 23 23 18 19 22 36 55 58 60 61 60 59 59 60 60 61 63 63 64 64 64 62 61 63 63 62 63 64 65 64 65 64 64 64 65 65 65 64 62 62 61 59
30 25 24 24 24 23 21 22 22 18 18 22 25 51 58 60 60 59 59 59 60 60 61 62 63 64 63 63 62 62 63 63 61 61 61 62 62 64 65 65 65 64 64 62 60 57 55 57 57
27 27 27 27 26 24 22 22 20 19 21 23 25 51 56 57 58 58 58 58 59 59 60 61 62 64 64 63 62 61 61 61 61 62 61 61 63 63 63 64 64 62 61 59 58 53 52 54 54
29 29 29 28 26 24 23 22 21 23 22 22 23 54 54 55 55 56 57 59 59 59 60 61 61 61 62 63 63 62 61 61 61 63 62 62 63 63 64 63 62 60 59 57 55 51 51 52 53
27 29 29 29 27 25 23 22 19 20 22 19 20 51 53 53 53 52 54 58 59 60 61 61 61 61 61 62 62 63 62 61 61 63 63 63 64 63 62 61 60 59 58 56 53 50 51 52 53
29 27 27 25 23 22 21 19 18 21 20 20 18 34 51 52 51 51 54 57 59 60 62 61 60 59 59 59 61 62 63 62 62 63 63 63 63 63 61 60 58 57 56 54 53 50 50 52 53
29 28 24 25 24 22 21 20 21 21 20 19 18 18 22 44 50 50 54 58 60 60 61 60 60 57 56 58 59 61 63 62 62 63 63 63 63 62 60 58 57 56 54 53 52 50 50 52 53
28 26 24 24 24 23 20 20 22 24 22 20 20 19 18 25 40 47 55 59 60 60 60 60 58 56 57 58 58 60 61 62 62 62 63 63 62 60 58 56 55 53 52 52 51 51 50 52 52
26 24 26 22 23 23 23 22 27 26 24 23 22 21 20 22 36 43 57 59 60 60 60 60 58 57 57 58 59 60 60 61 62 62 62 62 61 59 56 56 55 53 51 52 52 50 51 51 52
27 25 24 24 22 30 29 30 28 29 27 29 28 24 23 25 34 46 57 59 60 60 59 59 59 58 57 57 57 58 58 60 60 61 61 62 61 58 56 56 55 52 49 51 52 51 50 51 51
25 24 22 19 22 30 31 28 28 28 28 29 30 30 28 33 44 51 57 59 59 59 58 58 58 57 57 56 56 57 58 59 59 60 61 62 61 58 56 56 54 51 48 52 52 50 50 50 51
16 16 17 18 31 32 33 25 21 24 28 31 34 29 26 35 44 51 56 58 58 58 58 57 58 58 57 57 57 58 57 58 58 58 59 60 61 60 58 58 55 54 49 52 52 51 50 49 50
19 26 26 29 31 25 35 23 25 27 30 33 33 33 28 32 44 49 54 56 58 58 58 58 58 57 57 58 57 57 56 56 57 57 58 59 58 60 59 57 58 56 56 53 52 51 50 51 49
28 35 35 35 34 33 32 31 22 31 30 31 33 33 31 28 43 47 53 55 57 57 57 57 58 57 57 57 57 57 56 56 56 57 57 58 58 58 58 58 58 57 56 54 53 52 51 52 51
38 34 33 36 34 27 26 29 23 22 24 30 33 33 28 25 41 46 50 54 56 56 56 56 56 57 57 57 58 57 56 55 56 56 56 56 57 57 56 57 56 56 56 55 54 54 52 52 52
36 29 20 22 27 22 27 28 26 27 30 33 32 31 29 26 36 45 48 54 55 55 55 56 55 54 56 58 58 57 56 56 55 55 54 55 55 55 55 55 56 55 57 57 56 55 54 54 52
34 29 22 20 24 28 28 26 29 36 38 35 34 33 31 29 30 45 48 53 55 55 55 55 55 54 54 55 56 57 57 56 56 56 55 54 54 55 55 54 55 55 55 56 56 55 55 55 54
35 31 33 30 30 29 30 31 31 41 42 40 38 35 35 32 28 43 47 52 55 55 55 56 54 54 54 54 55 56 57 56 56 56 56 54 54 54 55 55 55 55 55 55 56 56 54 54 55
32 35 30 34 24 23 27 29 35 40 42 42 37 37 38 39 40 46 48 51 54 55 55 56 56 55 54 55 56 56 57 56 56 56 56 56 54 53 53 54 55 56 56 55 55 55 55 55 55
31 33 34 34 34 28 25 31 44 42 43 43 42 38 41 42 46 49 50 51 52 53 55 55 55 55 56 56 56 57 57 57 57 56 56 56 56 54 53 53 54 54 55 56 55 55 54 55 54
28 32 34 30 29 34 32 31 45 42 42 43 43 40 43 46 47 50 52 52 53 53 54 55 55 54 55 56 56 56 56 57 57 56 56 57 56 56 54 53 53 53 54 55 55 55 55 54 54

GFSSGP_sfc_dewp_090.txt.gz
Dewpoint
57 41 37 35 27 25 23 20 21 18 22 24 27 26 25 25 27 21 51 66 67 68 69 70 71 71 71 71 71 72 72 72 73 73 72 72 72 72 72 72 71 71 72 71 71 71 70 69 70
47 36 35 32 24 18 13 23 22 21 22 25 28 37 36 34 57 58 60 66 68 69 69 70 71 71 71 71 71 72 71 70 71 72 72 71 71 71 70 70 70 70 70 71 70 70 70 70 70
39 37 32 29 26 16 11 22 20 23 22 23 23 31 35 43 59 60 62 67 68 69 69 69 70 70 71 71 71 71 71 71 72 71 70 70 70 70 70 70 70 70 70 70 70 70 70 69 68
33 33 30 26 24 26 20 23 25 22 21 22 21 31 47 55 59 61 66 68 67 68 69 68 70 70 71 71 71 71 71 71 71 70 70 70 70 69 69 69 69 69 70 69 69 70 69 68 67
29 30 26 24 24 24 25 26 24 22 21 20 27 28 44 56 61 63 67 67 66 66 67 68 69 70 70 71 70 70 70 69 69 69 69 68 68 68 68 68 67 67 68 69 69 69 68 67 66
25 25 22 19 17 21 22 22 22 22 23 23 27 41 46 58 62 64 66 66 66 65 66 68 70 70 70 70 69 68 67 67 67 68 68 67 67 66 67 67 67 66 67 68 68 68 67 66 66
18 23 21 19 19 19 21 23 21 23 22 20 35 40 49 58 60 63 64 65 65 64 66 68 68 69 68 68 68 67 66 66 66 66 66 66 66 66 66 67 67 67 67 68 68 67 66 66 65
26 23 25 21 16 17 21 21 20 23 22 30 45 40 41 56 61 64 64 64 63 63 65 66 67 68 68 68 67 67 66 66 66 66 66 65 64 64 66 66 65 66 67 67 67 65 66 65 64
28 23 21 19 21 18 21 21 25 25 22 25 31 46 49 59 63 62 61 63 63 64 63 65 66 66 66 66 67 67 66 66 66 66 66 65 64 64 64 65 65 65 65 66 65 64 65 63 63
26 24 19 20 22 20 22 24 24 19 21 20 25 52 58 60 61 61 59 60 61 61 63 64 65 65 64 65 63 63 64 63 63 63 63 65 63 63 64 64 64 64 65 65 63 64 63 62 60
30 24 23 24 24 24 22 23 23 21 21 22 21 30 58 58 60 60 59 59 60 61 62 63 63 64 62 63 62 61 62 62 61 62 64 64 62 64 63 63 64 65 65 63 60 62 60 59 58
28 28 25 25 25 26 24 25 23 22 23 25 25 28 57 58 59 59 59 59 58 59 61 63 64 63 63 63 62 62 62 62 61 61 62 63 62 64 63 63 64 64 63 60 56 57 58 57 56
29 30 28 28 26 26 26 24 23 24 23 24 23 30 52 57 58 59 58 58 58 58 59 61 63 63 63 62 62 62 61 61 61 61 61 62 63 62 63 63 64 63 61 58 53 54 56 54 55
29 30 29 29 28 28 26 26 24 24 24 21 20 25 50 55 57 55 57 58 58 59 59 60 62 62 62 63 62 62 62 61 60 61 62 61 62 62 63 63 62 61 60 57 53 53 54 54 54
23 24 27 28 26 25 25 22 20 24 23 20 20 19 39 53 54 54 55 56 58 59 60 61 62 60 61 61 61 62 62 61 61 61 62 62 62 62 62 63 61 60 58 54 51 52 53 54 54
29 27 25 26 26 25 23 23 23 23 22 21 20 20 22 47 52 53 53 54 58 59 61 61 62 59 58 57 61 62 62 61 62 62 63 63 63 63 62 61 60 59 57 54 51 51 52 53 53
28 26 24 24 24 24 21 22 23 26 26 24 23 23 21 20 33 51 51 54 59 60 61 60 60 59 59 59 59 61 62 62 62 62 63 63 62 62 61 59 58 57 56 54 51 51 53 53 53
25 25 25 24 24 23 22 22 24 30 30 27 25 26 26 24 22 27 48 55 59 60 61 60 59 57 57 57 57 59 61 61 62 62 63 62 61 60 59 58 56 55 54 53 51 50 53 53 53
28 26 24 24 25 21 23 24 30 29 28 27 28 28 28 28 28 28 47 57 59 60 60 59 58 57 57 57 56 57 58 60 60 61 62 62 61 59 57 56 55 53 52 52 51 51 52 52 53
25 25 24 23 21 29 27 26 25 27 27 28 28 29 30 31 34 47 56 58 59 59 60 59 58 57 56 56 56 56 59 59 60 61 61 62 60 58 57 56 54 51 51 52 50 51 51 51 53
19 20 18 18 27 27 32 19 19 22 24 27 29 30 31 31 30 49 56 57 58 59 59 58 58 57 56 56 56 57 58 58 58 59 60 61 60 58 58 57 55 52 51 52 52 50 50 50 51
13 18 20 28 26 22 33 21 20 20 21 24 28 33 34 34 35 48 55 57 57 58 58 58 57 57 56 56 56 55 55 55 57 58 59 60 59 58 58 56 55 53 52 53 52 51 51 52 50
23 32 31 34 31 31 31 25 19 21 18 18 20 31 34 34 33 47 54 56 57 58 58 58 57 57 57 56 55 55 55 55 57 58 58 58 59 58 58 57 55 54 53 53 53 52 52 52 51
38 32 35 36 32 25 27 25 18 17 20 32 35 30 33 33 31 42 51 55 57 57 57 57 57 56 56 56 56 55 55 55 56 57 57 57 57 58 58 58 56 54 54 54 54 54 52 52 52
31 27 21 17 23 20 25 26 22 24 28 41 38 34 34 33 29 41 50 54 56 56 55 56 56 55 56 56 55 55 56 55 55 56 56 57 57 56 58 57 57 55 51 49 54 54 53 52 52
32 27 23 17 23 25 27 28 27 36 43 43 43 39 39 37 28 42 49 54 55 55 55 55 56 56 56 55 55 55 56 56 55 55 55 55 56 56 56 57 57 55 55 54 55 54 53 53 52
34 29 31 27 28 24 23 30 32 41 40 41 42 43 41 43 40 36 46 52 54 54 55 55 55 54 55 55 56 56 55 55 55 55 55 55 54 56 55 55 56 56 55 56 55 54 55 55 54
30 34 27 31 25 22 25 28 31 37 40 41 41 42 44 47 45 34 45 52 54 55 54 55 55 54 54 54 54 55 55 56 56 56 55 54 54 54 54 54 54 55 54 55 56 55 55 55 55
32 32 33 32 30 25 23 26 39 39 42 42 41 43 45 46 50 48 50 53 54 54 54 54 54 54 54 54 55 55 56 56 57 56 55 54 54 53 54 54 54 54 55 55 54 55 55 54 54
30 33 32 26 25 32 31 27 43 43 44 44 42 44 45 45 48 52 52 53 54 54 54 54 55 53 54 55 55 55 54 56 56 56 56 56 55 54 53 53 54 54 54 55 54 54 54 54 54

GFSSGP_sfc_dewp_093.txt.gz
Dewpoint
57 42 38 36 28 27 20 18 22 19 21 23 26 25 26 25 33 26 55 66 67 68 70 70 70 71 71 71 72 72 72 73 73 73 73 73 73 72 72 72 72 71 71 72 71 72 71 71 71
46 35 36 33 24 15 9 22 22 22 22 24 26 33 32 28 50 53 57 66 66 68 69 69 70 70 71 71 72 71 71 73 73 73 73 73 72 72 72 72 71 71 72 72 70 70 70 70 70
38 36 32 30 26 9 5 18 23 23 24 23 24 31 32 37 57 57 61 67 68 68 69 69 69 70 70 71 72 71 70 71 72 71 71 71 70 70 70 70 70 71 71 71 71 70 70 70 69
35 34 31 25 19 25 15 22 24 24 21 22 22 22 43 52 58 60 64 67 68 68 69 68 68 69 70 71 71 71 70 70 71 71 70 71 70 70 69 69 68 69 71 71 71 70 70 69 68
31 32 22 24 21 24 26 26 26 21 21 21 24 22 41 54 59 63 66 67 67 68 69 68 69 69 70 70 71 71 70 70 70 70 70 70 70 69 68 68 67 68 69 70 70 70 69 68 67
25 29 21 10 10 22 23 23 22 20 22 23 22 28 40 57 61 65 68 67 68 69 69 68 70 69 69 70 69 70 69 69 69 69 69 69 68 68 68 67 67 67 68 69 69 69 68 67 67
23 25 16 18 15 18 19 22 20 23 23 21 30 28 45 57 62 66 67 68 68 69 69 68 69 69 69 68 68 68 68 68 68 68 68 67 67 67 67 67 67 67 67 68 68 68 67 66 66
23 24 19 19 11 13 20 22 20 21 21 28 43 34 36 53 62 65 66 68 68 68 68 67 69 70 70 70 67 67 67 67 67 67 66 65 65 65 65 65 66 66 66 68 68 67 66 66 64
28 19 16 14 15 13 21 21 24 24 22 23 27 40 50 59 63 64 64 64 65 66 66 67 68 69 70 69 68 67 66 66 66 66 66 64 63 63 64 64 64 66 65 66 67 66 65 64 63
26 21 17 19 17 16 20 23 23 20 22 21 22 48 58 60 62 62 63 62 64 65 65 66 67 68 68 68 68 67 66 66 66 66 66 66 65 65 63 64 65 65 64 65 66 65 64 62 61
28 23 22 21 20 22 22 22 23 21 19 23 24 26 53 59 60 60 60 62 63 63 64 64 65 66 68 66 67 66 66 66 65 65 66 66 66 66 65 66 67 66 64 65 65 64 62 61 60
27 29 24 21 23 24 23 25 24 24 26 28 28 26 37 52 56 59 59 60 62 63 63 64 64 64 66 65 66 65 64 64 64 65 66 66 65 65 64 63 65 66 65 63 64 63 61 61 59
31 28 28 26 24 25 26 25 24 26 26 26 26 26 26 39 49 57 59 60 61 62 64 64 64 64 64 63 64 64 64 64 64 64 64 65 64 64 64 64 65 64 62 61 62 60 60 59 58
29 29 26 26 28 29 27 27 27 27 28 27 25 25 24 35 45 53 59 59 60 60 62 64 63 65 64 63 63 63 63 63 62 63 62 65 64 64 65 64 64 64 61 60 61 59 59 58 57
24 21 22 26 27 28 28 26 25 29 28 27 26 24 24 26 44 53 56 58 59 60 61 63 64 64 63 63 62 63 63 63 62 62 63 63 64 64 64 63 63 63 62 59 60 59 58 57 56
29 26 23 25 21 24 26 23 25 26 24 23 24 25 26 26 37 48 55 57 58 59 60 62 63 62 63 63 63 62 62 63 63 63 63 63 62 63 62 62 62 61 58 57 57 56 56 56 56
28 23 26 26 26 25 25 21 24 26 28 28 29 29 28 27 28 30 48 54 56 59 60 62 62 61 62 62 62 63 62 62 63 63 63 63 63 62 62 62 61 60 58 57 56 56 56 55 55
21 26 26 25 25 24 24 23 24 25 30 30 29 29 30 30 30 32 33 44 53 58 61 62 62 61 62 62 60 62 63 63 63 63 63 63 62 62 62 61 60 60 58 56 56 56 56 55 55
25 25 24 25 26 25 26 25 26 27 29 29 28 28 29 31 31 33 36 39 53 58 60 61 60 60 59 58 58 59 60 61 62 63 63 62 61 60 59 59 59 60 58 55 56 55 56 55 55
23 21 22 25 26 25 25 24 24 26 26 26 27 28 29 30 32 34 40 48 55 58 60 60 59 59 59 58 58 57 58 60 60 62 62 62 60 59 59 58 57 57 56 54 54 55 54 54 55
20 20 22 20 23 26 29 20 19 21 24 26 28 29 29 31 32 34 45 53 56 57 60 59 59 59 58 58 57 58 59 59 60 61 61 61 60 59 58 58 57 56 55 53 54 55 55 53 54
16 19 19 18 22 17 32 17 20 19 21 23 26 33 34 31 33 34 43 53 56 57 60 59 59 58 58 57 57 57 56 56 57 59 60 60 60 59 58 56 54 54 55 54 53 53 55 55 53
15 21 20 30 28 30 27 25 17 18 16 33 40 42 41 39 35 36 41 50 55 58 60 59 59 58 57 56 56 56 55 55 57 58 59 60 60 59 58 57 55 54 54 54 53 53 55 55 54
35 33 35 35 32 23 22 22 18 20 23 34 42 43 43 42 42 37 39 51 55 58 59 59 59 58 57 56 56 56 55 55 57 58 58 58 58 58 58 57 56 54 54 55 55 54 54 55 55
30 27 25 20 23 14 24 25 24 32 41 41 41 42 44 45 47 45 37 51 55 57 57 58 57 56 57 56 56 56 56 57 57 57 58 58 57 57 57 57 56 55 54 53 53 54 53 55 54
29 27 22 13 19 22 27 16 25 41 40 40 42 42 43 45 47 49 43 48 55 57 57 57 57 56 56 56 56 56 56 57 57 57 57 57 57 57 58 57 56 55 53 52 52 54 53 54 55
32 27 29 26 28 24 21 23 30 38 38 41 41 40 41 45 46 50 50 49 54 57 57 57 56 56 55 56 56 56 57 57 57 57 58 57 58 58 58 58 56 55 53 52 51 53 53 54 55
30 33 27 30 23 20 21 26 28 35 38 40 41 40 44 45 46 51 48 47 54 56 56 56 56 56 55 56 56 56 56 57 57 57 57 56 56 57 57 57 57 57 54 51 51 52 52 53 54
30 30 32 31 28 23 22 23 40 39 41 42 43 43 44 44 46 51 50 51 54 55 55 55 56 55 57 56 56 57 56 57 57 56 56 56 56 57 58 57 57 56 56 56 55 55 53 54 54
32 32 30 25 26 28 28 25 41 41 42 43 42 44 43 44 45 47 52 54 54 54 54 55 55 54 55 55 55 55 56 57 57 57 57 57 57 57 57 57 57 56 57 57 57 56 55 55 53

GFSSGP_sfc_dewp_096.txt.gz
Dewpoint
53 45 31 35 23 17 8 5 17 19 20 22 23 21 24 24 28 25 52 60 62 63 67 70 70 70 71 72 72 73 73 73 73 72 72 72 73 73 73 73 72 72 72 72 71 72 71 71 71
39 34 32 29 14 5 2 8 13 17 22 25 26 25 24 24 35 45 55 61 59 62 65 68 70 70 71 72 72 72 73 73 73 73 71 73 73 73 72 72 71 72 72 72 71 71 71 71 71
38 29 22 16 12 4 2 5 10 21 22 23 23 27 27 29 45 46 54 64 62 63 65 67 70 70 71 72 72 71 71 72 73 73 73 72 72 72 71 71 71 71 72 72 71 71 71 70 69
31 26 24 16 7 11 10 8 21 21 19 22 23 23 32 43 48 52 58 63 62 64 65 68 68 69 70 71 72 71 71 71 72 71 70 70 70 69 69 69 70 71 71 71 71 71 70 69 69
30 22 14 12 7 6 16 16 24 22 17 17 21 22 29 49 54 57 60 63 62 66 67 69 68 69 70 71 72 71 70 70 71 71 70 70 70 70 69 69 69 68 68 69 70 70 69 69 68
22 20 9 4 6 8 16 14 17 18 17 15 20 22 26 49 54 60 63 64 65 68 69 69 69 69 69 70 71 70 70 70 69 69 69 70 70 69 69 68 68 68 68 68 68 69 69 68 67
21 15 7 4 3 6 11 15 15 12 12 17 22 23 30 48 55 61 64 65 68 70 70 70 69 69 69 68 69 69 69 69 69 69 69 69 68 68 68 67 67 68 66 67 67 68 67 67 66
21 15 12 6 7 7 11 15 14 15 17 25 27 26 30 48 59 63 64 67 67 70 71 69 69 69 69 70 68 68 68 68 68 68 68 67 67 67 67 66 66 67 67 67 67 67 67 66 65
25 17 12 10 9 9 13 13 18 19 21 23 24 29 45 53 61 62 63 65 66 68 69 69 69 69 69 70 69 68 68 67 67 67 66 65 65 65 65 64 66 67 67 66 66 66 66 64 64
24 20 18 16 13 12 11 15 16 19 19 20 21 37 48 53 58 59 59 61 64 66 67 68 68 69 69 69 70 69 68 68 68 67 66 66 65 64 62 63 64 65 65 65 64 66 64 64 62
24 20 21 19 17 15 13 13 13 14 11 19 21 24 27 44 47 52 54 58 61 64 66 67 67 68 68 68 69 68 68 68 67 68 66 66 64 64 64 63 64 64 65 66 64 64 65 64 63
23 22 22 20 20 18 18 17 16 16 18 16 24 22 26 27 38 43 47 52 58 62 65 66 67 67 68 67 68 68 67 66 66 66 67 66 65 65 64 63 65 65 66 65 65 64 64 64 62
26 26 23 23 21 19 20 18 18 21 19 19 18 20 24 25 28 35 42 47 54 60 64 66 66 66 67 66 66 66 66 66 66 65 66 66 66 66 64 64 65 65 65 66 65 64 64 63 61
26 26 24 23 22 22 22 22 23 24 25 22 23 23 23 23 26 31 38 46 53 57 62 66 65 66 66 66 66 65 65 66 66 65 65 66 66 65 65 64 65 66 64 65 64 64 64 62 59
24 23 24 24 25 25 26 23 22 24 24 24 23 21 23 24 26 30 36 46 51 55 60 65 66 66 66 66 65 65 64 65 65 64 65 65 66 65 65 66 65 64 63 64 63 63 63 61 57
22 24 22 24 23 23 24 24 23 25 25 26 25 25 24 25 25 29 38 44 48 52 58 62 63 65 65 66 64 64 64 64 64 64 64 64 64 64 65 64 65 64 62 62 61 62 60 58 57
26 21 24 25 25 23 22 22 23 24 24 24 25 26 27 28 28 30 34 42 47 51 57 61 64 64 65 65 65 64 65 64 63 63 63 64 64 64 64 64 63 62 61 61 61 61 60 58 57
21 22 23 23 24 26 23 23 24 24 25 27 27 28 28 28 28 29 31 35 41 48 56 60 63 64 64 64 64 64 64 63 64 63 63 63 64 63 63 63 62 60 59 59 60 60 61 59 56
21 20 21 22 24 25 25 24 24 25 26 28 28 28 28 29 30 30 33 35 39 46 54 59 62 63 63 62 62 62 62 62 63 63 63 63 63 62 62 62 61 60 58 58 59 60 59 59 57
25 25 20 21 25 26 24 23 23 24 26 27 27 27 28 29 30 31 33 35 42 46 53 58 60 62 62 62 62 61 60 61 61 63 63 63 62 60 61 61 60 59 58 58 59 59 58 57 57
24 21 19 19 20 22 22 21 22 23 23 24 25 26 27 29 31 30 32 36 42 50 53 56 60 60 62 62 60 60 59 59 60 61 62 61 60 60 59 60 60 59 59 58 59 59 58 55 56
18 18 18 19 19 18 24 15 17 19 19 20 25 36 40 42 41 39 36 34 39 50 54 56 60 59 61 62 60 60 57 56 58 58 59 61 61 59 59 59 59 59 59 59 57 58 58 57 55
15 15 17 16 14 18 20 21 15 15 15 24 32 40 42 43 44 44 42 38 37 48 55 58 60 59 60 60 60 59 58 55 57 58 60 61 60 60 59 59 59 59 59 58 59 59 59 57 56
17 17 21 24 24 24 19 18 12 15 24 34 38 40 42 43 44 45 47 42 39 48 57 59 59 58 59 60 60 59 58 56 56 58 59 59 59 59 58 57 57 58 58 58 57 57 57 56 57
24 25 25 24 24 17 19 18 16 28 37 38 39 39 41 43 45 46 46 47 42 51 57 59 58 58 58 59 59 59 58 56 57 57 58 59 58 58 57 57 56 56 57 56 55 56 55 56 56
25 23 21 12 13 13 23 19 20 35 34 38 37 39 41 42 44 46 48 50 47 50 56 58 58 58 58 58 58 58 57 56 56 57 58 59 59 58 58 57 57 56 56 56 56 55 55 56 57
28 26 26 21 26 23 16 19 26 34 32 35 36 39 41 42 43 46 48 52 50 50 56 58 57 57 57 57 58 57 57 57 56 58 58 58 59 58 58 57 57 56 55 54 53 52 54 54 55
28 28 26 28 22 19 17 20 24 29 35 36 37 40 42 42 42 44 45 52 48 50 56 58 58 57 57 57 57 57 57 57 57 58 57 57 59 59 58 58 56 55 55 55 54 52 52 52 54
28 27 28 26 27 22 19 23 37 36 36 36 38 42 41 41 42 41 43 50 50 52 56 57 57 56 57 57 57 57 57 57 58 57 58 57 58 58 58 58 57 55 54 53 53 52 52 52 53
23 23 25 23 26 27 28 25 39 33 33 38 41 40 40 40 40 40 41 46 52 53 55 56 56 56 56 57 56 57 56 57 57 57 57 57 57 57 58 58 57 56 55 54 51 51 51 51 50

GFSSGP_sfc_dewp_099.txt.gz
Dewpoint
55 46 32 27 21 17 7 5 4 12 15 17 20 18 20 22 26 32 45 54 52 59 67 69 71 71 71 72 72 73 73 73 73 73 73 72 73 73 73 73 73 73 73 72 71 71 71 71 71
39 34 25 22 18 7 7 4 6 8 18 24 24 20 21 23 27 43 48 54 53 57 65 67 70 71 71 72 72 73 73 73 73 72 72 72 73 71 73 73 72 72 73 72 71 71 71 71 71
48 31 20 17 14 8 3 3 6 5 20 22 22 22 22 26 35 39 49 56 55 57 62 68 70 70 71 72 72 72 73 73 73 73 72 73 73 71 71 71 71 72 73 72 71 71 71 71 70
34 26 21 16 13 9 8 6 5 10 17 19 21 21 25 35 41 41 53 55 55 59 61 68 69 70 71 72 72 71 72 72 71 72 72 71 71 71 71 69 69 70 70 71 70 70 71 70 69
27 19 13 10 9 8 6 8 12 15 15 16 19 20 27 40 43 46 55 55 56 60 64 68 69 69 70 71 72 71 71 71 72 71 70 70 71 70 70 69 68 68 68 68 68 70 70 68 68
23 19 12 9 9 8 7 9 12 16 18 18 16 21 24 36 45 52 57 58 60 63 66 68 69 69 70 70 71 70 70 70 70 70 70 70 70 70 70 69 69 69 68 68 68 68 68 67 67
24 18 13 10 9 8 7 13 13 13 17 14 16 19 25 37 46 53 58 61 65 67 68 69 68 68 69 69 69 70 70 70 70 70 69 70 69 68 69 69 68 68 68 68 67 66 67 67 66
24 22 17 14 11 8 7 9 12 11 10 12 20 20 24 43 50 57 59 63 66 69 70 69 69 68 68 69 68 69 69 69 69 68 68 68 68 68 68 67 68 67 67 67 66 66 67 67 66
26 21 18 16 13 13 10 8 14 12 7 19 19 26 41 44 54 58 59 63 65 67 68 69 69 68 68 69 69 69 68 68 68 68 67 67 68 66 66 65 67 67 66 66 66 66 65 65 65
26 24 22 19 17 14 11 13 13 13 14 16 19 27 40 43 50 56 57 59 62 64 67 68 69 68 68 68 70 69 68 67 67 67 68 69 67 66 63 64 66 67 66 66 66 64 65 65 65
25 24 24 22 20 18 13 12 13 12 15 14 17 25 37 38 43 50 52 55 58 61 64 66 68 68 67 66 68 67 67 67 67 68 68 67 64 68 67 66 62 62 64 63 63 64 65 64 64
23 24 24 23 22 20 18 18 16 14 17 14 14 21 26 25 32 37 44 47 52 58 62 66 67 68 68 65 66 66 66 67 67 67 68 68 67 67 66 63 65 67 68 63 64 65 64 63 64
22 23 24 24 23 22 22 20 20 22 18 17 16 14 21 21 22 28 34 40 43 53 61 66 66 67 68 66 65 67 66 67 67 66 67 67 65 66 66 65 66 67 65 66 66 64 64 63 63
25 24 25 25 25 23 23 22 21 23 21 20 19 15 15 18 21 24 29 34 41 47 57 65 66 67 67 65 66 67 67 65 67 66 66 68 67 67 65 65 65 66 64 65 64 63 63 63 63
23 25 26 26 26 25 24 22 22 24 23 24 24 21 18 20 21 22 28 32 38 42 51 65 67 67 68 66 65 65 64 64 64 65 67 66 66 66 65 66 66 65 66 64 64 63 63 62 63
21 24 23 25 24 25 25 24 24 25 25 24 24 25 22 19 20 22 27 29 32 40 48 61 64 66 66 66 64 63 63 64 62 64 66 66 66 66 64 65 65 66 65 65 63 63 62 62 62
22 19 21 21 22 23 23 23 24 24 25 25 26 26 25 24 22 24 25 28 32 38 46 57 64 66 66 66 65 65 65 64 63 62 64 65 65 65 66 65 66 66 64 63 63 62 62 61 60
21 21 22 21 22 24 23 23 23 23 24 25 25 26 26 27 26 25 26 28 32 38 46 53 61 65 66 65 64 64 64 64 64 63 62 62 64 64 64 65 64 64 63 62 62 61 61 61 58
22 22 26 24 24 25 26 25 22 23 25 26 26 28 29 29 29 29 31 31 34 39 46 53 60 64 65 64 62 63 63 63 63 63 62 62 63 64 64 63 62 61 60 60 61 61 59 59 61
23 33 31 28 25 25 23 23 23 24 25 26 26 28 29 30 29 30 32 34 36 38 41 48 56 61 64 63 62 62 62 62 62 62 61 61 62 64 63 62 61 60 60 59 60 60 59 60 59
26 30 27 23 21 25 25 22 21 22 23 24 26 27 27 28 29 31 32 35 38 39 44 44 52 58 64 64 62 61 61 61 61 62 61 62 63 64 62 62 61 60 60 59 59 60 59 58 59
18 24 23 21 25 24 21 16 18 18 20 22 24 25 31 36 38 39 39 40 39 40 43 48 50 55 63 63 61 61 58 59 59 59 58 62 62 60 60 60 61 60 59 59 59 61 59 59 56
17 20 22 24 20 19 17 19 18 18 17 18 25 33 38 40 41 42 43 43 42 41 43 51 52 55 62 62 61 60 59 58 57 57 59 61 61 60 59 59 60 59 59 59 59 59 60 59 57
21 18 17 17 15 15 15 15 17 13 14 23 33 37 38 40 42 43 45 46 45 43 46 52 54 59 61 61 61 61 60 58 55 56 59 61 60 59 59 60 59 59 59 59 60 61 60 59 58
20 19 20 18 18 17 18 18 16 26 32 34 35 35 37 40 42 43 44 46 49 49 43 50 55 59 60 61 61 61 60 58 56 57 58 60 59 59 58 59 59 59 60 59 59 59 59 60 59
20 19 25 17 19 18 17 12 13 28 32 34 34 36 38 40 42 42 44 48 50 51 47 51 56 58 59 60 60 60 60 57 55 57 58 59 59 59 58 58 57 57 58 59 58 58 57 58 58
21 21 25 28 24 21 16 23 29 30 31 32 33 36 40 39 41 42 45 47 50 52 50 53 58 57 58 59 61 60 59 57 55 58 59 59 60 59 59 58 56 57 57 57 57 57 57 57 57
23 23 24 27 14 12 13 17 28 32 31 32 34 39 40 40 41 41 43 44 47 50 49 56 59 58 59 59 59 59 58 57 57 59 59 60 60 59 59 58 57 56 56 57 57 56 56 56 57
24 25 25 23 22 23 21 27 33 29 30 33 38 40 39 40 39 40 39 40 43 47 50 59 57 58 58 59 58 59 58 57 57 58 59 58 59 59 58 57 57 56 55 55 54 55 53 54 54
22 26 23 25 23 23 26 30 32 26 31 40 40 40 39 39 38 37 36 38 39 42 51 57 57 57 58 58 58 58 58 57 57 58 58 59 59 59 59 58 57 56 55 55 54 54 52 51 52

GFSSGP_sfc_dewp_102.txt.gz
Dewpoint
55 47 42 33 22 21 13 8 9 6 9 14 16 17 18 22 33 37 46 55 65 65 68 69 71 72 72 72 73 73 73 73 73 73 73 73 73 73 73 73 73 73 72 72 71 71 71 71 72
37 37 35 23 18 14 10 11 6 5 11 23 23 21 17 21 36 44 48 53 62 65 67 68 71 71 72 72 72 73 73 73 73 73 73 73 73 73 73 73 72 72 72 72 71 71 71 71 71
43 36 28 18 14 14 14 9 5 7 20 20 18 20 21 26 32 43 51 57 58 64 64 68 70 71 72 72 72 73 73 73 73 72 73 72 72 72 73 71 71 71 70 71 71 71 71 71 70
36 37 26 15 12 12 11 12 10 5 14 16 16 17 23 41 39 47 50 53 58 61 68 68 69 70 71 72 72 72 73 73 72 72 72 72 71 71 71 70 69 69 68 68 69 70 70 70 69
31 26 19 12 9 10 13 11 8 7 9 14 14 15 26 40 41 51 53 54 60 64 69 68 69 70 71 71 72 71 71 72 72 71 71 71 71 71 71 70 69 69 69 67 68 68 68 68 68
28 23 16 12 11 10 10 10 7 10 15 15 14 17 25 38 42 54 57 59 64 68 69 68 69 69 70 71 71 70 70 70 71 71 71 71 71 70 69 69 69 69 67 66 66 68 68 67 66
29 23 19 16 14 13 11 13 11 12 15 14 16 15 27 41 46 53 59 63 68 70 70 69 68 68 69 69 69 69 69 70 69 70 70 70 69 69 68 68 69 69 68 68 68 68 67 66 66
30 27 23 20 17 14 13 11 9 12 13 16 15 16 27 42 48 55 60 66 69 70 71 70 69 68 69 69 68 69 69 69 69 69 69 68 68 68 68 68 68 68 68 68 67 67 66 66 66
30 27 23 22 21 19 17 12 12 12 11 14 12 19 39 46 54 57 59 65 68 69 70 71 70 69 70 69 69 69 69 68 68 68 68 67 68 67 67 67 68 68 67 66 66 66 66 66 65
26 28 27 24 22 20 18 17 14 10 12 11 10 18 42 44 53 56 58 62 65 68 69 69 70 70 70 67 69 69 69 68 68 69 68 69 68 67 66 66 67 67 66 66 66 66 65 65 65
28 25 28 25 23 22 20 17 13 12 13 15 19 24 39 41 46 53 54 59 62 65 67 68 69 70 70 68 70 69 68 68 68 68 69 68 66 68 66 66 66 66 66 65 65 65 64 64 64
25 27 26 26 25 24 21 21 19 13 20 20 21 20 33 36 38 44 50 53 59 62 65 67 67 69 69 69 69 68 67 68 67 68 69 68 67 67 66 66 65 65 65 64 63 63 64 63 64
20 26 26 26 25 24 24 23 21 23 20 17 17 17 22 30 27 31 39 45 51 59 64 66 67 68 68 69 67 68 68 68 66 68 68 68 67 66 66 66 66 65 65 64 64 63 64 63 63
20 20 24 24 24 24 24 23 23 24 23 21 20 19 18 19 24 25 30 36 44 54 62 67 67 68 68 68 68 68 67 67 68 66 67 68 67 66 65 65 65 66 65 65 64 63 63 62 63
22 18 20 24 24 23 25 23 22 25 23 22 22 22 22 21 17 22 28 35 41 45 61 66 67 67 68 68 68 67 66 66 66 66 67 67 67 67 65 65 65 66 65 65 64 63 63 62 63
20 22 19 21 23 25 25 24 25 24 24 23 24 24 25 24 21 20 28 28 33 38 53 66 66 66 66 68 67 66 65 65 66 66 66 66 66 66 66 65 65 65 65 64 63 62 62 62 62
19 19 20 21 22 24 25 24 26 26 24 24 25 26 26 28 24 23 27 28 31 34 50 65 67 66 66 67 67 66 65 64 64 65 66 66 66 66 65 64 64 64 64 64 63 62 60 60 61
16 18 19 20 21 23 23 24 24 24 25 26 25 27 28 27 27 28 28 28 30 34 49 65 66 66 66 66 67 65 65 64 64 64 64 64 66 65 65 64 64 64 64 63 63 61 61 61 60
18 17 18 20 31 29 27 23 22 24 24 25 26 27 28 29 29 30 35 35 42 45 50 60 65 67 66 64 64 63 63 63 63 63 63 63 64 64 64 64 63 63 62 62 62 61 60 60 60
14 20 21 30 31 31 31 33 32 25 26 24 26 27 29 31 31 34 37 40 44 46 47 51 62 66 65 64 63 63 62 63 62 62 63 63 63 64 64 63 63 63 62 61 61 60 59 59 60
11 16 27 27 32 37 35 32 31 28 25 25 27 27 28 30 31 33 38 44 49 49 51 46 54 63 65 64 63 62 63 62 62 62 62 62 62 63 63 63 62 61 61 60 60 60 58 57 59
11 15 27 28 34 30 26 25 25 25 24 24 25 30 30 31 37 39 41 44 47 50 51 50 48 55 64 64 62 62 61 60 61 61 61 62 62 63 63 62 62 61 60 60 60 61 59 58 57
11 18 25 24 29 30 27 30 26 23 20 21 23 31 38 41 42 42 43 45 46 50 51 53 51 50 63 63 63 62 61 61 60 60 60 62 62 61 60 60 61 60 60 60 60 60 60 59 57
15 28 28 28 26 28 28 26 21 21 23 23 30 35 39 41 42 43 44 46 46 50 53 54 54 51 63 64 63 62 61 60 59 59 59 60 59 60 59 59 60 60 60 59 59 59 59 59 59
22 25 21 22 26 21 18 16 20 24 22 31 34 35 39 42 42 42 42 44 47 50 52 54 51 52 63 63 62 62 62 61 60 57 58 59 59 58 58 59 59 59 59 59 60 60 60 59 59
20 22 24 13 15 14 14 26 28 31 33 34 36 40 40 40 42 42 42 44 45 48 50 53 53 53 62 62 62 62 61 61 59 57 59 59 58 58 58 59 59 59 59 60 60 60 60 59 59
19 19 25 35 31 31 25 33 32 38 33 35 37 39 39 40 40 40 41 41 42 45 47 50 51 55 60 61 61 62 61 61 59 59 60 59 59 59 58 58 58 58 59 59 58 57 57 58 58
23 24 27 33 28 26 21 26 31 35 32 35 37 38 39 39 38 39 38 38 40 41 44 49 53 59 59 59 60 60 60 60 59 59 60 60 59 58 58 57 57 57 57 57 58 57 57 57 57
24 29 32 32 27 26 24 33 38 36 38 38 39 38 37 37 37 37 36 37 38 39 41 45 57 58 59 59 59 60 60 58 59 59 59 59 60 59 58 57 57 56 57 57 57 57 57 56 56
28 29 28 31 20 30 32 33 40 40 39 39 37 37 37 37 37 36 35 36 37 37 39 41 44 58 59 59 59 59 59 58 58 59 59 60 59 58 57 58 56 56 56 56 56 55 56 55 55

GFSSGP_sfc_dewp_105.txt.gz
Dewpoint
54 51 46 38 24 23 19 15 15 12 11 19 22 21 20 33 41 43 61 63 66 68 70 71 71 72 73 73 73 73 73 73 73 73 73 73 73 73 73 73 73 73 72 72 71 71 72 72 72
44 41 38 35 19 16 16 19 16 12 20 26 23 22 19 40 46 54 60 64 66 67 69 69 71 72 72 72 73 73 73 73 73 73 73 73 73 73 72 73 72 73 72 71 71 71 71 71 71
42 40 32 27 18 15 16 17 16 15 23 22 20 22 23 36 48 49 62 65 65 66 68 69 70 71 72 72 72 73 73 73 73 73 73 73 73 73 72 72 71 69 70 69 69 71 71 70 69
34 38 35 20 16 15 13 13 13 12 19 18 18 19 34 40 48 52 62 64 64 65 67 69 69 70 71 72 72 72 72 72 72 72 73 73 72 71 71 70 70 69 68 68 67 67 69 68 68
32 31 24 19 15 13 12 11 11 12 10 16 15 16 36 46 49 53 56 62 67 67 67 68 69 70 71 72 72 72 72 72 72 71 72 71 72 71 70 70 69 68 66 68 68 67 68 67 68
29 28 20 20 18 15 13 12 11 11 12 19 16 19 33 47 49 53 58 64 68 67 67 68 69 70 70 71 70 70 71 71 71 71 71 71 71 70 70 69 69 65 67 68 67 65 67 67 67
31 27 21 18 16 15 15 15 14 14 14 15 15 17 29 44 52 55 60 67 68 68 67 67 68 69 69 69 69 69 69 69 69 70 70 70 69 69 68 69 69 68 67 67 67 66 66 67 67
34 31 29 26 19 18 18 18 17 15 17 22 16 20 24 44 55 59 63 66 68 67 67 67 67 67 67 67 68 68 68 69 69 69 69 68 68 68 68 68 69 67 67 67 68 67 66 65 65
29 30 29 28 25 23 22 21 22 15 13 22 20 21 45 53 57 62 64 66 67 68 67 67 67 67 67 67 68 68 69 68 68 68 68 67 68 68 67 67 68 67 67 67 67 66 65 65 64
28 26 28 28 26 24 24 23 23 15 14 14 18 42 46 51 55 60 63 65 66 66 67 68 67 67 68 68 67 66 67 66 66 67 67 67 67 67 67 67 67 67 67 67 66 66 65 64 63
21 27 27 27 28 29 27 25 23 19 13 15 17 39 43 45 53 55 61 65 66 67 67 68 68 68 68 68 67 67 67 66 66 66 67 67 66 66 66 66 66 66 65 64 65 64 63 63 63
11 17 27 28 26 26 26 27 24 24 19 20 19 29 41 40 45 52 55 62 64 66 67 67 67 67 67 69 68 67 67 66 66 66 66 65 65 65 64 65 65 64 64 63 64 63 62 62 62
19 13 14 20 26 26 26 26 25 26 26 20 20 19 36 37 39 45 49 56 62 64 67 66 67 67 67 68 68 67 66 66 66 66 66 66 65 65 64 64 65 64 64 64 63 63 62 62 62
24 21 17 17 21 26 26 26 25 25 27 22 22 20 20 35 33 32 38 42 56 62 65 66 66 66 67 67 66 66 67 66 65 66 66 65 65 65 64 64 64 65 64 64 63 63 62 62 62
16 17 19 21 18 18 24 23 24 26 25 24 22 22 22 22 26 25 24 28 37 58 64 65 66 66 67 66 65 65 65 65 65 64 66 65 65 64 64 64 63 64 64 63 63 63 62 61 62
15 17 13 17 21 19 20 22 24 25 24 23 24 22 22 23 23 20 23 24 28 45 63 65 66 66 66 66 66 65 64 65 65 65 65 65 65 64 64 63 63 64 63 63 62 63 62 61 61
13 15 13 15 21 20 20 20 24 26 26 24 23 23 23 22 24 25 21 24 24 36 63 65 66 65 65 66 66 65 64 64 65 65 65 65 65 64 64 64 64 64 63 63 62 61 61 60 60
10 17 17 15 19 21 20 20 21 27 26 26 26 24 23 24 24 27 25 26 25 29 63 65 65 65 65 66 65 64 64 63 63 65 65 65 65 64 64 62 62 62 62 62 62 61 61 60 60
11 16 18 16 18 31 32 30 29 28 28 25 25 25 25 24 26 27 27 24 26 31 63 65 65 65 64 64 64 63 63 62 62 63 64 65 65 64 64 63 62 61 61 62 62 61 59 59 60
11 12 14 16 21 36 37 36 37 37 35 34 28 24 27 27 29 27 30 29 31 35 59 65 65 65 64 64 64 63 63 63 62 62 62 63 64 64 63 62 62 62 62 61 61 61 60 59 60
18 7 7 8 33 38 36 33 33 35 33 33 31 25 27 28 29 34 39 41 42 43 46 63 65 65 64 63 63 62 62 62 62 61 61 62 62 62 62 61 62 62 62 62 62 61 60 58 60
11 8 5 7 32 31 37 28 31 32 31 31 29 25 27 37 41 42 44 44 46 48 50 49 63 65 64 63 62 61 60 60 60 60 61 61 62 61 62 61 61 61 62 61 61 61 60 59 58
23 13 9 11 33 32 34 32 31 35 32 27 27 39 40 41 41 42 43 44 46 47 49 51 52 59 64 63 62 61 60 60 61 61 61 61 60 61 61 62 61 61 60 61 61 61 60 60 58
28 31 33 34 30 24 27 29 28 30 31 27 39 41 40 40 41 41 42 43 43 44 46 48 49 52 61 63 62 61 60 60 60 60 59 59 60 60 60 60 60 61 60 60 60 61 60 59 59
28 25 24 26 24 21 25 28 26 28 33 38 40 39 40 40 40 40 40 40 40 41 43 44 46 48 51 62 62 61 61 60 59 59 59 59 59 59 59 59 58 58 60 60 60 60 60 60 59
28 27 24 18 20 20 22 23 24 34 41 41 39 40 38 38 38 37 37 38 38 40 40 41 43 46 49 60 62 61 60 60 59 59 60 59 58 58 58 58 58 59 60 59 60 60 60 60 59
24 25 29 29 33 24 23 33 34 40 42 38 39 37 36 36 36 36 36 36 37 38 39 40 42 44 48 52 62 61 61 60 58 58 60 59 58 58 58 58 58 59 59 59 59 59 59 59 59
20 27 22 30 24 24 28 31 33 37 39 38 35 35 35 36 35 35 35 35 37 37 39 40 42 47 51 60 60 60 61 61 58 59 59 58 58 58 58 58 58 58 58 59 58 58 59 59 59
25 33 33 33 31 26 28 30 39 40 38 36 36 35 35 35 35 36 35 35 36 37 38 39 41 44 52 58 58 58 59 60 59 59 59 58 58 58 58 57 57 57 57 57 58 57 58 58 58
32 31 34 29 31 33 32 30 41 39 36 35 35 35 35 34 34 34 34 35 35 36 37 37 39 41 44 50 58 58 58 59 58 59 59 58 58 58 58 57 57 56 56 57 57 56 57 56 56

GFSSGP_sfc_dewp_108.txt.gz
Dewpoint
52 50 45 37 21 22 21 18 17 14 15 14 21 21 24 36 39 38 61 62 67 69 71 71 72 73 73 73 72 73 73 73 73 73 73 73 73 73 73 73 73 73 72 72 71 71 71 72 71
43 42 37 33 20 15 15 20 20 19 19 22 24 22 31 44 51 60 58 64 66 69 70 71 71 72 73 72 72 73 73 73 73 73 73 73 73 73 73 73 72 71 71 71 71 71 71 71 71
40 40 32 30 20 15 14 17 17 20 16 15 19 22 30 44 57 58 60 65 67 68 69 70 71 71 72 72 72 73 73 73 73 73 73 73 73 73 73 71 70 71 71 71 70 71 71 70 70
33 38 35 26 20 17 16 12 15 14 14 15 17 19 39 46 57 59 62 64 65 67 68 69 70 71 71 72 72 72 72 72 72 72 73 73 73 73 72 71 70 70 70 69 69 70 70 69 69
33 33 28 24 22 18 17 15 15 13 12 12 15 15 40 48 56 62 62 62 65 66 68 69 69 70 71 72 72 72 72 71 71 72 72 72 72 72 71 70 69 69 69 69 70 70 69 68 68
28 29 23 23 19 19 17 16 15 13 14 15 16 19 38 51 61 63 62 64 66 66 68 68 69 70 70 71 71 70 71 71 71 71 71 72 71 70 70 69 68 69 69 68 68 68 68 68 68
32 28 23 23 20 19 20 20 17 18 19 15 15 19 40 53 56 61 65 67 66 66 67 67 68 69 69 69 69 69 70 71 71 70 70 70 69 69 69 68 66 67 68 68 66 66 66 67 67
33 31 29 24 22 21 20 20 20 20 19 23 16 19 43 48 56 64 67 67 66 66 66 66 67 67 67 68 68 68 68 69 69 69 69 69 68 69 69 68 67 68 68 67 66 65 66 66 66
30 28 28 29 29 29 28 26 27 25 17 18 16 26 40 56 62 65 66 66 65 65 65 65 66 66 66 66 68 68 69 68 68 69 68 67 68 67 68 67 67 67 66 67 67 66 65 65 65
29 26 28 30 31 29 29 28 28 25 24 14 25 46 54 60 61 62 63 64 65 65 65 65 65 66 66 67 67 66 67 66 66 67 67 67 67 67 67 67 67 66 66 66 67 66 65 64 63
18 28 29 30 30 29 28 28 29 28 27 20 19 46 54 58 59 61 62 64 65 66 66 66 66 66 66 66 66 66 65 64 65 65 66 66 66 67 67 67 67 66 66 66 65 64 63 62 62
9 12 20 23 29 28 27 27 26 26 28 26 27 38 50 55 58 60 62 63 65 66 67 67 66 67 67 67 66 66 65 65 64 65 66 65 65 65 65 66 66 65 64 63 63 62 61 61 61
17 15 11 11 13 18 26 28 27 28 28 28 27 31 44 52 56 59 61 63 65 65 66 67 67 67 67 67 66 66 66 65 65 65 66 65 65 64 64 65 65 65 64 63 62 61 61 61 61
19 19 22 24 20 15 14 18 23 26 29 26 26 22 38 42 46 51 58 61 65 65 66 67 67 67 67 67 67 66 66 66 65 66 66 64 65 64 64 64 64 64 64 63 62 62 61 60 61
12 11 12 13 16 20 18 16 17 23 27 26 25 23 24 34 37 42 45 58 62 64 66 66 66 67 66 67 67 66 66 65 65 66 65 64 65 64 63 63 63 63 64 63 62 61 61 60 61
10 10 7 10 15 17 20 19 19 19 23 24 25 24 24 25 34 32 35 38 55 62 64 66 66 66 66 67 66 66 66 65 65 65 65 64 64 64 64 63 63 63 63 63 62 62 62 61 61
10 6 6 7 14 16 16 18 20 20 21 24 25 24 24 24 24 27 25 25 26 57 63 65 66 65 66 66 66 65 65 65 65 64 64 65 64 64 64 63 63 63 62 62 62 62 62 61 61
11 6 6 11 16 16 15 19 20 21 25 26 26 26 24 24 24 24 25 23 23 42 62 64 65 65 66 65 65 64 64 64 65 64 64 65 65 64 63 63 62 62 62 62 62 62 62 60 60
20 12 10 10 11 17 17 15 34 36 26 24 27 27 27 27 25 26 25 28 26 37 60 63 64 65 65 65 64 63 62 63 64 64 64 64 65 64 63 63 62 62 61 62 62 61 60 59 60
16 22 20 13 11 13 29 33 34 36 37 35 32 34 32 27 27 26 29 37 40 40 58 63 64 65 65 65 65 64 63 63 63 64 64 64 64 64 64 63 62 61 60 61 61 60 60 59 60
9 9 22 21 12 15 30 28 30 31 34 35 35 35 34 33 40 44 45 46 48 50 53 63 63 64 64 64 64 62 62 61 61 61 62 63 64 63 63 63 62 61 61 61 61 61 59 58 60
19 17 26 27 17 12 33 21 31 31 32 32 33 35 41 42 42 43 44 43 44 47 49 50 63 64 64 62 64 62 62 61 61 61 61 62 63 63 62 62 61 61 62 62 62 62 61 58 57
21 19 25 23 14 19 26 30 30 33 33 33 34 40 40 40 40 40 40 40 41 43 44 47 47 54 57 63 63 62 61 61 60 60 60 61 62 62 62 61 61 61 62 62 61 61 61 60 58
24 28 27 29 22 14 16 30 25 30 31 40 40 39 38 37 37 37 37 38 39 40 41 43 44 46 49 54 63 62 61 60 60 60 59 60 60 61 62 61 61 61 61 60 60 61 60 60 59
27 27 20 18 20 19 25 30 26 39 42 40 37 36 36 35 35 35 35 36 37 38 39 41 42 43 45 47 53 62 61 60 60 60 60 60 60 60 61 61 61 61 61 60 60 60 61 60 60
29 25 20 20 22 23 27 26 31 40 40 39 36 35 35 35 35 35 35 35 36 37 38 39 40 42 44 46 48 60 62 61 60 60 60 60 59 60 59 59 59 59 59 60 60 60 60 60 60
25 25 26 27 29 21 26 33 38 38 38 38 36 35 35 35 35 35 35 35 36 37 37 38 39 40 42 46 47 54 62 61 60 60 60 60 60 58 58 58 58 57 58 58 59 59 59 59 59
29 32 24 27 14 13 26 29 33 35 35 35 35 34 34 34 34 34 34 35 36 36 37 38 39 39 42 46 51 55 62 61 60 59 59 59 59 58 57 57 57 57 58 58 59 58 59 59 59
27 29 32 30 29 23 24 28 37 35 35 33 35 36 34 34 33 34 34 34 35 36 37 38 38 38 40 45 54 60 60 59 59 59 59 59 58 58 57 57 58 58 58 58 58 58 59 58 58
34 32 31 26 26 31 30 26 36 37 36 35 35 34 33 33 33 33 34 34 34 34 35 37 38 38 40 43 47 58 59 58 58 59 59 58 58 57 57 57 57 56 57 57 57 57 58 58 58

GFSSGP_sfc_dewp_111.txt.gz
Dewpoint
50 46 43 34 21 22 18 17 15 12 12 13 20 22 20 35 39 36 59 62 67 68 70 71 72 72 72 72 72 72 73 73 73 73 73 73 73 74 74 73 73 72 72 71 71 71 71 71 71
42 42 36 31 17 15 13 21 17 16 17 22 19 23 23 38 53 59 58 65 67 68 70 71 71 72 72 72 72 72 73 73 72 73 73 73 73 73 73 73 72 72 72 71 71 71 71 71 71
39 38 32 30 22 11 5 13 16 18 20 17 14 21 33 44 58 58 60 66 68 68 70 70 71 71 72 72 72 72 72 72 72 72 73 73 73 73 73 72 71 72 72 72 71 71 71 71 70
34 36 33 26 24 21 14 13 14 14 15 16 16 11 30 49 58 58 63 66 67 68 69 70 70 71 72 72 72 72 72 72 72 72 72 73 73 73 72 70 70 71 72 72 71 71 70 69 69
31 33 26 27 25 23 19 18 17 15 14 13 14 12 32 53 59 60 63 64 65 67 68 69 69 70 71 72 72 72 72 71 71 72 72 72 72 72 70 70 70 70 70 71 71 70 69 69 68
25 29 25 22 16 20 20 21 19 16 16 16 14 17 36 54 59 59 62 63 65 66 68 69 70 70 70 71 71 71 71 71 71 71 71 72 72 71 70 70 69 69 69 70 69 69 69 68 68
26 27 23 22 22 21 22 22 21 21 20 18 16 17 38 59 58 60 61 65 65 66 67 68 68 69 69 69 69 69 70 70 70 70 70 70 70 69 69 69 69 69 68 68 68 68 68 68 67
34 31 29 23 19 20 23 23 20 22 22 26 20 19 41 52 62 65 66 65 65 65 66 67 67 67 67 68 68 69 69 69 69 69 69 68 69 69 68 68 68 68 68 68 67 66 67 67 67
31 29 26 24 26 26 30 29 29 28 26 29 22 27 40 56 65 65 64 63 63 64 65 66 66 66 66 66 68 69 69 69 69 69 68 67 68 68 67 65 67 67 67 66 66 65 65 66 66
25 26 24 28 30 29 30 30 31 28 28 28 29 31 56 62 63 63 63 62 63 63 64 65 66 66 65 67 66 66 68 67 68 68 68 67 67 67 67 66 66 66 66 66 66 65 65 64 63
24 24 25 27 30 31 31 30 29 28 28 30 29 26 52 59 61 62 62 62 63 63 64 64 65 65 65 66 66 65 65 65 65 66 67 66 66 67 67 66 65 65 65 64 65 64 62 61 61
14 9 15 22 27 28 29 29 28 27 28 30 30 30 42 54 59 60 61 62 63 63 63 64 65 65 65 66 66 65 65 63 64 65 66 66 65 65 66 66 66 65 65 64 63 62 61 61 61
28 24 21 19 15 13 15 13 21 27 28 30 29 29 28 44 57 59 60 62 64 64 64 64 64 65 66 65 65 65 64 64 64 65 65 66 65 65 65 65 65 65 64 62 61 60 60 60 60
15 9 8 8 8 13 20 20 14 15 20 24 28 28 28 34 53 58 59 61 64 64 65 65 65 65 66 65 65 65 65 64 64 65 65 65 65 64 65 64 64 64 63 62 61 61 60 59 60
12 13 13 12 9 11 15 12 16 19 17 19 26 27 26 31 46 55 58 60 63 64 66 66 66 66 66 66 65 65 65 65 64 65 65 64 64 64 64 64 63 63 63 61 60 60 60 59 60
15 14 10 10 9 9 14 13 14 18 20 18 18 25 25 25 36 41 50 59 62 64 65 66 67 66 66 66 66 66 66 65 65 65 65 64 64 63 63 63 63 62 63 62 61 61 60 61 60
17 12 10 9 10 8 8 7 11 18 20 20 20 21 25 25 24 34 39 49 60 63 65 66 66 66 66 67 67 66 65 65 65 65 65 64 64 63 63 63 62 62 62 62 61 61 60 60 60
18 18 18 18 14 7 6 10 16 17 21 24 21 20 22 25 25 25 32 34 41 59 63 65 66 66 66 66 65 63 65 65 64 65 65 64 64 63 63 62 62 62 62 61 61 61 61 61 59
11 10 10 19 26 19 11 9 11 16 22 29 33 23 27 26 26 26 28 31 27 31 60 64 65 65 65 65 64 64 64 64 64 64 64 64 64 63 63 62 61 61 61 61 61 61 61 61 60
21 19 16 15 16 25 24 15 12 16 31 28 31 32 30 33 35 45 47 48 49 50 48 59 64 65 65 65 64 64 64 63 64 64 63 64 64 63 63 62 61 61 61 61 61 61 60 60 60
21 23 22 19 12 23 26 23 13 17 27 32 35 36 37 40 43 42 41 42 43 44 46 58 62 64 65 64 64 62 62 61 60 63 64 63 63 64 63 62 62 61 62 61 61 60 60 59 59
22 24 24 19 20 17 23 14 13 20 25 32 32 40 40 40 39 39 39 40 41 42 43 45 59 64 64 65 64 63 62 61 62 62 63 64 63 63 64 63 62 62 62 62 62 61 61 60 58
22 26 25 21 17 26 24 21 17 33 32 37 39 38 36 36 36 37 38 39 39 40 41 43 46 49 51 63 65 63 63 62 60 60 61 62 63 63 63 63 63 62 63 62 62 62 61 60 59
25 25 26 24 23 21 19 18 18 26 35 37 36 35 35 35 35 35 36 37 38 39 40 41 42 44 47 49 55 63 62 61 60 60 60 61 61 62 63 63 62 62 62 61 61 61 61 61 60
25 25 17 20 14 16 18 19 18 36 37 37 36 35 35 36 36 35 35 36 37 37 38 39 40 42 43 45 47 51 62 60 60 60 60 60 60 60 61 62 61 61 61 62 61 60 60 60 59
25 24 21 15 20 21 26 24 31 36 36 37 35 36 35 35 35 36 35 35 36 36 37 38 39 40 42 44 45 48 50 62 61 60 60 60 59 59 60 61 61 61 61 60 60 60 60 60 60
25 25 26 26 27 26 28 34 35 36 35 34 36 35 35 35 35 34 34 34 35 36 37 38 38 39 41 42 45 49 50 59 61 60 60 60 60 59 60 61 60 60 60 60 60 59 59 60 60
29 32 27 30 21 11 24 28 27 30 33 33 32 34 34 34 34 34 34 34 34 34 36 37 38 38 40 41 44 48 52 55 62 61 60 59 60 59 59 59 59 58 58 58 58 58 59 59 59
30 28 31 30 27 19 19 25 34 32 32 32 32 33 33 33 33 34 34 34 34 34 34 35 36 37 39 41 43 47 55 57 62 61 60 59 59 59 58 58 57 57 57 57 57 57 58 58 58
36 31 31 25 25 30 27 24 34 35 34 34 33 33 33 33 31 32 33 33 33 34 34 35 35 37 38 40 42 43 46 49 59 60 60 59 59 59 58 58 57 57 57 57 57 57 58 58 58

GFSSGP_sfc_dewp_114.txt.gz
Dewpoint
48 45 42 30 18 20 14 9 16 12 14 15 21 19 18 30 42 39 59 63 66 68 70 71 72 72 72 72 72 72 72 73 73 73 73 73 73 73 73 73 73 73 73 72 72 72 71 71 72
41 41 36 29 14 10 6 18 17 14 13 19 18 20 26 32 51 58 60 64 66 69 70 70 71 72 72 72 72 72 72 73 73 73 73 73 73 73 73 72 72 72 73 73 71 71 71 72 71
39 37 28 28 19 6 2 5 16 17 17 19 14 18 24 41 55 58 59 66 67 68 70 70 71 71 72 72 72 72 72 72 72 72 73 73 73 73 73 72 72 72 73 72 71 71 72 71 70
35 34 30 24 22 19 7 12 16 15 15 16 15 12 17 45 56 59 64 67 66 68 70 70 70 71 72 72 72 72 72 71 72 72 73 73 73 73 72 71 71 72 72 72 72 72 71 70 70
32 32 17 25 25 24 22 19 18 16 16 16 16 13 19 38 59 61 64 66 66 68 68 70 69 70 71 72 72 72 71 71 71 72 72 72 73 73 71 70 71 71 72 72 72 71 70 69 69
19 29 23 16 16 22 21 21 21 19 19 18 16 17 21 50 59 61 64 64 66 67 68 69 70 70 71 71 71 71 70 70 71 71 72 72 72 71 70 70 70 70 71 71 70 70 69 69 68
20 26 20 22 20 22 22 23 22 23 23 20 18 20 22 50 59 61 62 64 65 66 68 69 69 70 70 69 70 69 70 70 70 70 70 71 70 69 69 69 69 69 69 69 69 69 68 68 68
33 29 26 21 19 19 22 23 23 21 22 25 22 22 21 44 60 63 64 63 64 65 66 67 68 68 68 69 69 69 69 69 69 69 69 69 69 69 69 68 69 69 68 69 68 68 68 67 67
32 27 25 24 24 25 28 28 30 29 26 31 27 31 32 52 64 63 62 62 63 64 65 66 66 68 67 67 69 69 69 69 68 69 68 67 68 68 68 67 68 68 67 67 67 67 66 66 66
26 25 21 25 27 28 30 29 30 29 30 29 30 32 55 63 63 60 60 60 61 62 64 65 66 66 66 67 68 68 69 69 69 68 68 67 68 67 66 65 66 67 66 66 65 64 65 65 64
25 19 22 23 26 30 31 30 31 29 29 30 30 30 41 57 62 61 59 58 59 61 63 64 65 66 66 66 67 67 68 68 68 67 67 66 67 67 65 64 65 64 66 64 64 63 62 62 63
24 16 12 13 17 16 15 23 21 24 27 30 31 31 31 48 57 61 61 60 60 61 62 64 64 65 65 66 66 66 66 65 66 66 66 66 66 66 66 65 64 64 63 62 63 62 61 60 62
15 21 25 18 10 9 11 10 19 21 21 18 18 26 28 30 48 57 60 61 62 62 62 63 64 64 65 65 64 65 65 65 64 65 66 66 66 65 66 66 64 64 64 63 61 61 60 60 60
14 12 12 14 14 11 10 10 13 16 21 18 18 21 25 27 30 44 57 59 63 63 62 63 63 64 65 64 64 64 64 63 63 65 66 65 65 65 65 65 65 64 64 61 61 61 60 59 60
16 14 16 15 12 9 10 8 6 13 12 16 18 20 19 23 29 33 49 59 61 63 63 63 63 63 64 64 64 64 64 63 63 64 65 65 64 64 64 64 64 64 63 61 60 59 59 59 60
15 17 15 14 12 12 10 8 8 8 8 12 14 18 19 21 25 30 46 56 60 63 64 64 63 64 64 64 64 64 64 64 63 64 65 64 64 64 64 64 63 64 63 61 60 60 60 59 60
16 14 16 16 15 13 10 10 11 10 9 9 12 15 19 21 22 26 38 55 59 63 64 65 65 64 64 65 65 64 64 64 63 64 64 64 63 63 63 64 63 63 63 62 61 61 59 59 60
10 14 16 17 18 18 20 19 19 17 12 13 15 19 19 24 22 25 30 47 58 62 63 65 66 65 65 65 65 65 65 64 64 64 64 64 64 63 63 62 62 63 62 62 61 61 61 59 60
14 13 13 13 14 13 12 17 19 20 20 15 14 16 21 27 27 41 45 44 34 43 61 64 65 65 65 65 64 63 63 63 64 64 64 63 63 63 63 62 61 62 62 61 61 60 60 60 60
23 21 20 18 16 21 18 18 17 21 22 22 22 15 26 28 43 43 43 43 44 46 48 56 64 65 65 65 64 64 64 64 64 64 64 64 63 63 63 63 62 62 62 61 61 61 60 60 61
18 18 15 16 21 24 20 16 16 18 17 20 22 25 38 38 40 40 40 40 41 42 44 50 61 64 65 65 65 62 63 63 63 63 63 63 63 63 63 63 62 62 62 61 61 61 60 59 59
19 19 19 21 23 21 21 16 20 16 18 22 36 36 36 36 37 38 38 38 39 40 42 44 52 61 64 65 64 63 63 62 63 63 64 64 63 64 63 63 62 62 62 62 62 62 61 60 58
20 24 24 23 24 24 21 22 21 21 22 36 36 36 35 35 35 35 36 37 38 39 40 42 46 47 50 54 64 64 63 63 61 62 63 63 64 64 64 63 63 62 62 62 62 61 61 61 60
25 25 26 26 25 20 18 19 17 33 36 36 36 36 37 36 35 36 36 37 37 38 39 40 43 44 46 49 51 60 63 62 61 61 62 62 63 63 63 63 63 63 62 62 62 62 61 61 61
25 23 18 17 20 17 19 18 26 34 36 36 36 36 36 37 36 35 35 36 37 37 38 39 40 42 43 46 48 50 53 62 61 61 61 61 62 62 62 63 62 63 63 62 62 61 61 61 61
22 22 22 16 18 22 25 22 28 35 36 36 36 37 36 36 36 36 35 35 35 36 37 37 39 40 42 44 46 48 50 52 62 61 61 61 61 61 62 62 62 61 62 62 62 61 61 61 61
24 24 29 27 27 24 29 30 33 33 33 34 33 34 34 35 35 35 35 35 35 35 36 36 37 39 40 42 45 47 49 52 52 61 61 60 60 60 59 61 61 61 61 61 61 61 60 60 60
27 30 28 29 21 18 24 25 24 27 30 31 31 31 33 34 34 34 34 34 35 35 36 36 36 37 38 40 43 45 48 53 52 56 60 60 60 59 59 60 61 61 61 61 60 60 60 59 59
31 29 32 31 28 22 19 22 33 30 30 30 31 32 32 34 34 34 33 34 33 34 34 35 35 35 37 39 41 43 44 46 53 55 61 61 60 59 59 60 60 60 59 59 59 59 58 58 58
35 32 32 28 24 29 27 22 33 34 33 33 31 31 32 33 33 32 33 33 33 32 33 33 34 34 35 38 39 41 42 43 44 47 49 61 60 60 59 59 59 59 58 58 58 57 57 57 56

GFSSGP_sfc_dewp_117.txt.gz
Dewpoint
47 43 41 31 14 19 8 3 15 10 16 17 19 17 14 21 43 33 58 62 65 68 70 71 72 72 72 72 72 72 73 74 74 73 73 73 73 73 73 73 73 73 73 73 72 73 73 73 72
41 39 36 29 7 2 -3 11 15 13 13 18 19 17 21 32 39 50 59 63 65 68 69 70 71 72 72 72 72 72 73 73 73 73 73 73 73 73 73 73 73 73 73 73 72 71 72 72 71
39 36 26 26 13 -1 -3 1 10 15 16 14 14 16 16 30 48 57 61 64 66 68 69 70 71 71 72 71 72 72 72 72 72 73 73 73 73 73 73 72 72 73 73 73 72 72 72 71 70
35 35 30 18 15 16 6 12 15 16 15 16 15 12 17 29 50 58 62 64 67 68 69 70 70 71 71 72 72 72 72 71 72 72 73 73 73 73 72 72 72 73 73 73 72 72 71 70 70
33 30 14 21 20 22 23 19 19 16 18 17 16 14 19 25 55 61 64 65 66 68 69 70 69 70 71 72 72 71 71 71 71 72 72 73 73 73 71 71 71 72 72 72 72 71 70 70 69
21 30 17 14 14 21 21 20 19 18 18 19 18 18 22 39 56 61 65 66 67 68 70 70 70 70 71 71 71 70 70 71 71 71 72 72 72 72 71 70 71 71 71 71 71 70 70 69 69
18 22 15 19 19 20 20 24 22 23 23 22 21 21 26 35 54 61 64 66 68 69 69 70 71 71 70 69 70 69 69 70 70 71 71 71 71 70 70 70 70 70 70 70 70 69 69 69 68
31 29 24 21 19 20 22 22 23 23 24 27 23 24 26 35 57 63 64 66 67 68 69 69 69 70 71 71 69 69 69 69 69 70 70 70 69 69 69 69 69 70 70 69 69 68 68 68 67
34 24 22 22 23 22 25 25 29 29 28 31 31 30 33 59 62 62 62 64 65 65 67 67 68 68 70 70 70 70 69 69 69 69 69 68 70 70 69 67 68 68 68 68 68 68 67 67 66
25 25 20 23 25 26 27 29 28 28 29 30 32 34 39 36 49 57 59 59 62 64 65 65 66 67 68 68 69 70 70 70 70 70 70 71 71 70 68 67 67 67 67 67 67 67 66 66 67
17 12 20 18 21 17 16 14 19 19 20 25 27 23 25 27 31 42 58 59 59 61 64 64 65 66 67 67 68 68 69 69 69 70 70 70 69 70 69 67 66 68 66 65 64 65 66 67 67
20 21 18 18 19 12 10 11 11 11 17 18 19 21 23 21 21 23 42 58 59 60 62 64 64 65 66 66 67 67 68 68 69 69 70 69 67 68 68 66 66 67 66 66 64 62 64 66 66
14 12 16 16 14 12 13 12 10 12 11 15 16 15 17 18 20 24 27 42 59 59 61 64 64 64 65 66 66 66 67 67 67 68 69 69 67 67 68 67 66 65 66 66 65 63 63 64 65
17 15 14 15 15 16 14 10 10 10 10 12 11 10 10 18 22 25 28 35 57 61 61 64 64 64 64 65 65 65 66 66 66 67 68 69 67 67 66 66 66 66 66 65 64 63 63 63 64
16 14 15 14 13 14 12 8 8 11 11 10 10 10 10 12 16 23 27 32 39 59 62 64 65 66 65 64 64 64 64 66 67 67 68 68 67 66 66 66 66 66 66 65 65 64 64 63 63
15 16 12 14 13 15 15 13 14 16 15 16 17 15 15 16 12 17 25 29 31 48 61 64 63 64 65 65 64 64 65 66 66 66 66 66 67 67 66 65 66 67 65 64 65 64 63 62 62
17 10 11 11 15 15 16 15 16 19 19 19 17 16 15 17 19 21 24 27 30 40 60 64 64 64 65 65 65 65 65 65 65 66 65 65 67 67 66 65 65 66 65 64 64 62 63 62 62
10 11 11 11 11 14 15 16 16 16 17 18 19 18 17 16 17 19 26 33 33 35 59 64 64 64 65 65 65 64 64 64 64 65 65 65 66 66 66 65 65 65 64 63 63 62 62 62 62
16 16 14 14 16 18 16 14 16 22 22 20 18 19 20 18 19 20 41 46 46 46 57 63 65 64 64 63 63 62 62 62 63 64 65 65 65 66 66 65 64 64 63 62 63 62 62 62 63
18 17 17 18 18 16 16 17 21 23 24 23 20 17 19 21 21 24 43 43 45 46 50 63 65 65 64 63 64 65 64 63 63 64 64 65 66 65 65 65 63 63 63 62 62 62 61 61 62
19 18 17 17 17 19 21 19 17 19 19 21 21 27 28 35 33 40 41 42 43 44 46 50 63 66 66 65 65 65 65 65 64 64 64 64 65 65 65 65 64 63 63 62 62 62 62 60 61
21 20 19 18 20 18 22 18 19 22 28 35 35 35 35 36 37 38 39 40 40 42 44 48 55 65 66 66 65 64 63 62 63 64 64 63 64 64 65 64 64 64 63 63 62 62 62 62 60
17 22 22 23 23 23 19 23 17 30 32 35 35 36 37 37 38 37 37 39 39 40 41 44 48 50 53 62 65 64 64 65 64 64 64 64 64 64 65 64 64 64 63 63 63 63 62 63 62
25 26 25 25 25 20 19 21 19 28 30 33 34 36 37 37 37 37 37 37 38 39 40 42 45 46 48 51 54 62 64 64 63 63 63 64 64 64 65 64 64 64 64 64 64 64 63 63 62
27 23 21 18 20 16 28 24 27 33 33 33 32 33 36 37 37 37 37 36 37 37 38 40 42 43 44 47 49 51 53 58 63 63 63 63 62 63 64 64 64 64 64 64 64 64 63 63 62
23 22 21 18 16 20 29 24 26 34 32 34 34 33 34 35 35 37 37 36 35 36 36 37 39 41 42 45 47 49 51 53 54 62 63 64 62 63 64 63 64 63 63 63 63 63 63 63 63
25 24 26 28 26 25 28 29 33 29 30 31 32 31 31 33 34 34 36 36 36 36 36 36 37 38 39 42 44 47 49 50 53 54 61 63 64 63 63 63 63 62 63 62 62 62 62 62 62
28 28 30 30 22 18 25 23 23 26 29 29 29 30 30 32 32 34 34 34 34 34 35 36 36 36 37 39 42 44 46 47 51 55 55 61 62 63 63 63 62 62 62 62 62 62 62 61 61
27 29 34 34 29 25 22 22 32 30 30 28 29 30 30 30 32 32 34 33 32 32 33 34 34 35 36 38 40 41 42 44 46 48 52 53 61 61 61 62 62 62 61 61 61 61 61 61 60
32 31 33 27 25 30 26 22 33 33 32 30 29 29 30 31 32 32 33 31 32 31 32 32 33 34 35 36 38 39 39 40 42 43 44 48 50 61 61 60 60 61 61 61 60 59 60 60 59

GFSSGP_sfc_dewp_120.txt.gz
Dewpoint
45 34 35 31 17 8 1 -4 -2 1 8 14 17 11 10 17 19 31 53 59 61 64 69 72 71 72 72 72 72 73 74 74 74 73 73 73 73 73 74 73 73 73 73 73 72 72 73 73 73
33 34 33 23 12 5 2 0 6 3 5 12 11 12 17 20 34 35 48 62 61 64 68 69 71 71 72 72 72 73 74 74 74 73 73 73 73 73 73 73 73 73 73 73 72 72 73 73 71
36 34 24 19 16 12 10 5 3 6 11 10 9 13 14 19 26 39 49 62 62 64 67 69 71 71 71 71 71 72 73 73 73 73 73 73 73 73 73 73 73 73 73 73 72 72 72 71 70
30 27 21 19 18 16 11 8 11 8 7 14 13 12 14 20 33 47 57 61 62 64 67 70 70 71 71 71 71 72 72 72 72 73 73 73 73 73 73 72 73 73 73 73 72 72 71 70 70
26 24 22 20 21 21 19 18 17 16 17 18 18 19 22 27 44 46 55 62 62 65 68 71 69 70 71 71 72 71 71 71 72 73 73 73 73 73 72 72 72 73 72 73 73 71 70 70 70
22 24 20 18 18 19 21 22 20 20 21 22 22 23 24 33 44 49 56 62 64 66 69 70 71 71 71 71 71 70 70 71 71 72 72 73 72 72 71 71 72 72 71 72 71 70 70 70 69
23 17 14 14 17 19 21 23 22 23 24 23 24 24 27 28 49 53 59 64 67 68 70 70 71 71 70 70 70 69 70 70 71 71 71 71 71 70 70 71 71 71 71 71 70 70 69 69 69
25 21 13 15 13 11 16 20 20 21 23 27 26 25 28 35 43 50 57 63 67 69 71 71 71 71 71 71 69 69 69 69 70 70 70 70 70 70 70 70 70 71 70 70 70 69 69 69 68
25 12 6 5 12 11 16 22 25 27 26 27 29 31 32 37 34 36 44 54 64 67 68 70 70 70 70 70 70 70 69 69 69 70 70 69 68 70 69 67 69 70 69 69 69 68 68 67 67
12 6 5 12 15 19 21 21 21 17 17 18 18 23 31 28 29 30 31 40 53 62 66 67 69 69 70 68 70 70 69 68 69 69 70 69 68 68 66 67 68 68 68 68 68 68 67 67 65
0 2 -1 11 11 16 9 5 5 8 6 6 10 16 17 19 23 24 25 28 40 54 62 65 66 68 68 68 68 68 68 66 68 70 69 69 69 70 67 67 66 67 67 66 66 67 65 64 63
12 4 11 9 7 9 8 8 7 6 9 9 9 10 13 14 14 16 19 21 26 46 58 63 66 67 67 66 67 66 67 68 68 68 70 70 70 69 67 65 65 66 65 64 64 63 64 64 64
9 8 9 10 10 11 11 9 8 11 9 9 9 10 10 9 9 11 16 20 25 32 50 61 64 65 66 68 65 66 67 68 68 69 70 69 68 68 67 66 65 66 64 64 64 63 63 63 64
13 14 12 12 12 12 12 11 9 10 10 9 9 9 10 11 12 12 13 19 25 31 41 59 63 65 66 66 66 66 67 68 68 68 69 70 68 68 66 65 65 65 64 64 64 63 62 61 62
15 13 12 10 9 10 12 9 5 8 10 14 12 13 15 17 16 17 19 19 22 27 32 53 63 66 65 66 65 65 66 67 67 68 69 70 69 68 68 67 65 64 65 66 66 64 62 62 61
13 14 8 9 9 11 12 10 10 12 13 13 14 16 16 18 17 16 18 19 16 22 30 37 58 64 65 66 64 64 65 66 67 68 68 69 69 68 68 66 66 67 67 66 64 63 62 62 61
14 6 7 7 9 10 12 10 8 9 10 11 12 14 15 17 19 20 17 18 20 19 29 35 51 63 65 65 64 65 66 66 64 64 67 68 68 68 67 66 66 69 67 66 65 64 63 61 61
7 9 10 9 8 12 12 12 13 13 12 15 17 19 20 19 18 20 21 21 19 21 32 36 41 63 64 65 64 62 62 63 62 63 64 66 68 67 67 67 67 67 66 66 65 64 63 62 61
15 14 13 13 14 15 15 13 13 16 18 20 20 20 21 22 21 19 23 25 25 30 42 41 41 58 64 62 61 60 60 61 61 62 64 66 67 67 67 66 66 66 65 64 65 64 63 63 63
19 18 16 15 14 15 15 15 16 17 26 32 34 33 33 32 28 24 23 26 42 45 46 47 47 50 62 62 61 60 61 60 60 61 63 65 66 67 66 66 66 65 65 65 64 63 63 63 64
21 18 17 15 16 19 18 15 16 23 28 29 32 35 36 37 37 37 39 42 44 45 47 48 54 51 61 63 63 61 61 61 61 61 61 64 66 66 66 66 65 65 65 64 64 63 63 62 63
22 16 14 14 20 19 21 18 19 24 24 26 30 33 38 39 39 38 39 40 42 43 45 49 55 61 63 65 63 62 61 60 62 61 62 63 65 65 65 65 66 65 64 64 64 63 63 63 61
19 22 19 20 23 23 19 21 17 24 25 27 29 31 36 37 39 37 37 38 39 40 41 46 50 52 55 65 65 63 63 62 63 63 63 64 65 65 65 65 65 64 65 65 65 63 63 64 62
25 25 26 25 23 21 20 24 21 26 29 28 33 30 33 34 37 38 38 38 38 39 40 43 47 48 51 55 61 65 64 64 64 64 64 64 65 65 65 65 65 65 64 64 64 64 64 64 63
26 26 22 21 24 12 23 25 28 32 33 33 32 33 32 34 34 35 36 37 39 39 39 41 42 44 49 52 53 56 58 61 65 64 64 64 64 64 64 65 65 65 65 64 65 64 64 64 64
25 26 22 21 19 20 23 23 28 29 32 32 31 33 33 32 33 33 34 35 37 38 38 39 40 41 44 47 50 52 53 54 55 58 60 64 64 64 65 65 65 65 65 65 66 66 65 65 65
25 24 27 28 27 26 28 29 33 26 28 30 31 30 32 31 32 32 33 34 36 38 36 38 39 39 40 43 46 47 49 50 52 54 56 57 65 64 65 65 64 64 65 64 65 65 64 64 65
29 29 26 32 25 23 26 27 26 28 28 31 29 30 30 31 30 30 32 32 34 35 35 36 37 38 38 40 42 44 45 47 49 52 54 56 57 62 64 64 64 64 64 64 63 63 63 63 63
25 28 30 32 28 26 24 26 32 30 30 29 29 30 30 31 30 30 30 32 30 32 34 34 35 35 37 38 39 41 42 43 44 46 47 50 53 54 63 63 63 63 63 62 62 62 62 62 62
24 28 33 30 27 30 32 26 34 31 31 30 30 30 31 31 31 30 30 30 29 29 30 32 34 35 35 37 37 38 39 39 41 42 43 45 48 50 56 62 62 62 62 62 61 61 61 61 61